<?xml version="1.0" encoding="UTF-8" standalone="no" ?>
<gpx xmlns="http://www.topografix.com/GPX/1/1" xmlns:xsi="http://www.w3.org/2001/XMLSchema-instance" xsi:schemaLocation="http://www.topografix.com/GPX/1/1 http://www.topografix.com/GPX/1/1/gpx.xsd" version="1.1" creator="VisuGPX - https://www.visugpx.com">
  <metadata>
    <name>SAMBUY</name>
    <desc><![CDATA[Bonjour, 
Je voudrais charger la trace pour la réaliser. Merci beaucoup. ]]></desc>
  </metadata>
  <trk>
    <name><![CDATA[SAMBUY_1]]></name>
    <trkseg>
      <trkpt lat="45.72637" lon="6.29948">
        <ele>816.4</ele>
        <time>2015-11-03T08:10:15Z</time>
      </trkpt>
      <trkpt lat="45.72628" lon="6.2995">
        <ele>816.4</ele>
        <time>2015-11-03T08:10:17Z</time>
      </trkpt>
      <trkpt lat="45.72616" lon="6.29951">
        <ele>816.4</ele>
        <time>2015-11-03T08:10:20Z</time>
      </trkpt>
      <trkpt lat="45.72605" lon="6.2995">
        <ele>816.1</ele>
        <time>2015-11-03T08:10:23Z</time>
      </trkpt>
      <trkpt lat="45.72594" lon="6.29943">
        <ele>815.5</ele>
        <time>2015-11-03T08:10:26Z</time>
      </trkpt>
      <trkpt lat="45.72589" lon="6.2993">
        <ele>816.2</ele>
        <time>2015-11-03T08:10:29Z</time>
      </trkpt>
      <trkpt lat="45.72588" lon="6.29915">
        <ele>817.1</ele>
        <time>2015-11-03T08:10:32Z</time>
      </trkpt>
      <trkpt lat="45.72589" lon="6.299">
        <ele>816.6</ele>
        <time>2015-11-03T08:10:35Z</time>
      </trkpt>
      <trkpt lat="45.7259" lon="6.29886">
        <ele>817.3</ele>
        <time>2015-11-03T08:10:38Z</time>
      </trkpt>
      <trkpt lat="45.72589" lon="6.29872">
        <ele>817.7</ele>
        <time>2015-11-03T08:10:41Z</time>
      </trkpt>
      <trkpt lat="45.72587" lon="6.29858">
        <ele>817.2</ele>
        <time>2015-11-03T08:10:44Z</time>
      </trkpt>
      <trkpt lat="45.72584" lon="6.29845">
        <ele>817.7</ele>
        <time>2015-11-03T08:10:47Z</time>
      </trkpt>
      <trkpt lat="45.7258" lon="6.29829">
        <ele>818.6</ele>
        <time>2015-11-03T08:10:51Z</time>
      </trkpt>
      <trkpt lat="45.72576" lon="6.29815">
        <ele>819.7</ele>
        <time>2015-11-03T08:10:55Z</time>
      </trkpt>
      <trkpt lat="45.72573" lon="6.298">
        <ele>820.2</ele>
        <time>2015-11-03T08:10:59Z</time>
      </trkpt>
      <trkpt lat="45.72571" lon="6.29784">
        <ele>820.3</ele>
        <time>2015-11-03T08:11:03Z</time>
      </trkpt>
      <trkpt lat="45.7257" lon="6.29767">
        <ele>821.1</ele>
        <time>2015-11-03T08:11:07Z</time>
      </trkpt>
      <trkpt lat="45.72567" lon="6.29752">
        <ele>821.3</ele>
        <time>2015-11-03T08:11:11Z</time>
      </trkpt>
      <trkpt lat="45.72564" lon="6.2974">
        <ele>821.4</ele>
        <time>2015-11-03T08:11:15Z</time>
      </trkpt>
      <trkpt lat="45.72559" lon="6.29729">
        <ele>822.6</ele>
        <time>2015-11-03T08:11:19Z</time>
      </trkpt>
      <trkpt lat="45.72553" lon="6.29716">
        <ele>824</ele>
        <time>2015-11-03T08:11:24Z</time>
      </trkpt>
      <trkpt lat="45.72546" lon="6.29705">
        <ele>825</ele>
        <time>2015-11-03T08:11:29Z</time>
      </trkpt>
      <trkpt lat="45.72539" lon="6.29694">
        <ele>825.1</ele>
        <time>2015-11-03T08:11:34Z</time>
      </trkpt>
      <trkpt lat="45.72533" lon="6.29683">
        <ele>826.3</ele>
        <time>2015-11-03T08:11:39Z</time>
      </trkpt>
      <trkpt lat="45.72525" lon="6.29673">
        <ele>827.8</ele>
        <time>2015-11-03T08:11:44Z</time>
      </trkpt>
      <trkpt lat="45.72518" lon="6.29662">
        <ele>827.7</ele>
        <time>2015-11-03T08:11:49Z</time>
      </trkpt>
      <trkpt lat="45.72509" lon="6.29653">
        <ele>828.8</ele>
        <time>2015-11-03T08:11:54Z</time>
      </trkpt>
      <trkpt lat="45.72502" lon="6.29645">
        <ele>829.7</ele>
        <time>2015-11-03T08:11:58Z</time>
      </trkpt>
      <trkpt lat="45.72494" lon="6.29639">
        <ele>830.2</ele>
        <time>2015-11-03T08:12:02Z</time>
      </trkpt>
      <trkpt lat="45.72475" lon="6.29623">
        <ele>832.2</ele>
        <time>2015-11-03T08:12:12Z</time>
      </trkpt>
      <trkpt lat="45.72466" lon="6.29616">
        <ele>832.6</ele>
        <time>2015-11-03T08:12:17Z</time>
      </trkpt>
      <trkpt lat="45.72457" lon="6.29609">
        <ele>833.5</ele>
        <time>2015-11-03T08:12:22Z</time>
      </trkpt>
      <trkpt lat="45.7245" lon="6.29599">
        <ele>833.8</ele>
        <time>2015-11-03T08:12:27Z</time>
      </trkpt>
      <trkpt lat="45.72447" lon="6.29585">
        <ele>833.8</ele>
        <time>2015-11-03T08:12:32Z</time>
      </trkpt>
      <trkpt lat="45.72449" lon="6.29571">
        <ele>835.1</ele>
        <time>2015-11-03T08:12:37Z</time>
      </trkpt>
      <trkpt lat="45.72456" lon="6.29559">
        <ele>835.7</ele>
        <time>2015-11-03T08:12:42Z</time>
      </trkpt>
      <trkpt lat="45.72465" lon="6.29554">
        <ele>837</ele>
        <time>2015-11-03T08:12:47Z</time>
      </trkpt>
      <trkpt lat="45.72473" lon="6.29547">
        <ele>837.6</ele>
        <time>2015-11-03T08:12:52Z</time>
      </trkpt>
      <trkpt lat="45.7248" lon="6.29536">
        <ele>837.9</ele>
        <time>2015-11-03T08:12:57Z</time>
      </trkpt>
      <trkpt lat="45.72485" lon="6.29523">
        <ele>839.3</ele>
        <time>2015-11-03T08:13:02Z</time>
      </trkpt>
      <trkpt lat="45.7249" lon="6.29512">
        <ele>839.9</ele>
        <time>2015-11-03T08:13:07Z</time>
      </trkpt>
      <trkpt lat="45.72502" lon="6.2949">
        <ele>840.7</ele>
        <time>2015-11-03T08:13:52Z</time>
      </trkpt>
      <trkpt lat="45.7251" lon="6.29483">
        <ele>841.6</ele>
        <time>2015-11-03T08:13:56Z</time>
      </trkpt>
      <trkpt lat="45.72517" lon="6.29474">
        <ele>842.3</ele>
        <time>2015-11-03T08:14:00Z</time>
      </trkpt>
      <trkpt lat="45.72522" lon="6.29462">
        <ele>842.9</ele>
        <time>2015-11-03T08:14:05Z</time>
      </trkpt>
      <trkpt lat="45.72523" lon="6.29447">
        <ele>843.4</ele>
        <time>2015-11-03T08:14:11Z</time>
      </trkpt>
      <trkpt lat="45.72518" lon="6.2942">
        <ele>844.3</ele>
        <time>2015-11-03T08:14:21Z</time>
      </trkpt>
      <trkpt lat="45.72514" lon="6.29405">
        <ele>846.4</ele>
        <time>2015-11-03T08:14:26Z</time>
      </trkpt>
      <trkpt lat="45.7251" lon="6.2939">
        <ele>846.5</ele>
        <time>2015-11-03T08:14:31Z</time>
      </trkpt>
      <trkpt lat="45.72505" lon="6.29378">
        <ele>846.6</ele>
        <time>2015-11-03T08:14:35Z</time>
      </trkpt>
      <trkpt lat="45.725" lon="6.29367">
        <ele>847.5</ele>
        <time>2015-11-03T08:14:39Z</time>
      </trkpt>
      <trkpt lat="45.72493" lon="6.29357">
        <ele>848.3</ele>
        <time>2015-11-03T08:14:43Z</time>
      </trkpt>
      <trkpt lat="45.72486" lon="6.29346">
        <ele>848.9</ele>
        <time>2015-11-03T08:14:47Z</time>
      </trkpt>
      <trkpt lat="45.72479" lon="6.29337">
        <ele>848.7</ele>
        <time>2015-11-03T08:14:51Z</time>
      </trkpt>
      <trkpt lat="45.72471" lon="6.2933">
        <ele>849.9</ele>
        <time>2015-11-03T08:14:55Z</time>
      </trkpt>
      <trkpt lat="45.72462" lon="6.29323">
        <ele>851.1</ele>
        <time>2015-11-03T08:14:59Z</time>
      </trkpt>
      <trkpt lat="45.72454" lon="6.29317">
        <ele>852</ele>
        <time>2015-11-03T08:15:03Z</time>
      </trkpt>
      <trkpt lat="45.72444" lon="6.29316">
        <ele>853.2</ele>
        <time>2015-11-03T08:15:07Z</time>
      </trkpt>
      <trkpt lat="45.72435" lon="6.29317">
        <ele>853.4</ele>
        <time>2015-11-03T08:15:11Z</time>
      </trkpt>
      <trkpt lat="45.72424" lon="6.29323">
        <ele>854.4</ele>
        <time>2015-11-03T08:15:16Z</time>
      </trkpt>
      <trkpt lat="45.72405" lon="6.29329">
        <ele>856.6</ele>
        <time>2015-11-03T08:15:24Z</time>
      </trkpt>
      <trkpt lat="45.72395" lon="6.29332">
        <ele>856.5</ele>
        <time>2015-11-03T08:15:28Z</time>
      </trkpt>
      <trkpt lat="45.72386" lon="6.29336">
        <ele>856.8</ele>
        <time>2015-11-03T08:15:32Z</time>
      </trkpt>
      <trkpt lat="45.72377" lon="6.2934">
        <ele>857.5</ele>
        <time>2015-11-03T08:15:36Z</time>
      </trkpt>
      <trkpt lat="45.72367" lon="6.29344">
        <ele>858</ele>
        <time>2015-11-03T08:15:40Z</time>
      </trkpt>
      <trkpt lat="45.72357" lon="6.29351">
        <ele>859.6</ele>
        <time>2015-11-03T08:15:45Z</time>
      </trkpt>
      <trkpt lat="45.72348" lon="6.29356">
        <ele>860.2</ele>
        <time>2015-11-03T08:15:49Z</time>
      </trkpt>
      <trkpt lat="45.7234" lon="6.29362">
        <ele>860.5</ele>
        <time>2015-11-03T08:15:53Z</time>
      </trkpt>
      <trkpt lat="45.7233" lon="6.29368">
        <ele>861.8</ele>
        <time>2015-11-03T08:15:58Z</time>
      </trkpt>
      <trkpt lat="45.72319" lon="6.29374">
        <ele>862.5</ele>
        <time>2015-11-03T08:16:03Z</time>
      </trkpt>
      <trkpt lat="45.72309" lon="6.2938">
        <ele>863.6</ele>
        <time>2015-11-03T08:16:08Z</time>
      </trkpt>
      <trkpt lat="45.723" lon="6.29386">
        <ele>864.3</ele>
        <time>2015-11-03T08:16:12Z</time>
      </trkpt>
      <trkpt lat="45.72291" lon="6.29393">
        <ele>864.5</ele>
        <time>2015-11-03T08:16:16Z</time>
      </trkpt>
      <trkpt lat="45.72281" lon="6.294">
        <ele>864.4</ele>
        <time>2015-11-03T08:16:20Z</time>
      </trkpt>
      <trkpt lat="45.72261" lon="6.29411">
        <ele>865.2</ele>
        <time>2015-11-03T08:16:28Z</time>
      </trkpt>
      <trkpt lat="45.72251" lon="6.29416">
        <ele>866</ele>
        <time>2015-11-03T08:16:32Z</time>
      </trkpt>
      <trkpt lat="45.72241" lon="6.29422">
        <ele>866.5</ele>
        <time>2015-11-03T08:16:36Z</time>
      </trkpt>
      <trkpt lat="45.72231" lon="6.29427">
        <ele>866.9</ele>
        <time>2015-11-03T08:16:40Z</time>
      </trkpt>
      <trkpt lat="45.72221" lon="6.29433">
        <ele>867.6</ele>
        <time>2015-11-03T08:16:44Z</time>
      </trkpt>
      <trkpt lat="45.72211" lon="6.29438">
        <ele>867.9</ele>
        <time>2015-11-03T08:16:48Z</time>
      </trkpt>
      <trkpt lat="45.72202" lon="6.29444">
        <ele>868.5</ele>
        <time>2015-11-03T08:16:52Z</time>
      </trkpt>
      <trkpt lat="45.72192" lon="6.29449">
        <ele>868.9</ele>
        <time>2015-11-03T08:16:56Z</time>
      </trkpt>
      <trkpt lat="45.72183" lon="6.29454">
        <ele>870.3</ele>
        <time>2015-11-03T08:17:00Z</time>
      </trkpt>
      <trkpt lat="45.72172" lon="6.29458">
        <ele>871.1</ele>
        <time>2015-11-03T08:17:05Z</time>
      </trkpt>
      <trkpt lat="45.72161" lon="6.29461">
        <ele>871.8</ele>
        <time>2015-11-03T08:17:10Z</time>
      </trkpt>
      <trkpt lat="45.72151" lon="6.29461">
        <ele>873.2</ele>
        <time>2015-11-03T08:17:15Z</time>
      </trkpt>
      <trkpt lat="45.7214" lon="6.29458">
        <ele>874</ele>
        <time>2015-11-03T08:17:20Z</time>
      </trkpt>
      <trkpt lat="45.72132" lon="6.29452">
        <ele>874.6</ele>
        <time>2015-11-03T08:17:25Z</time>
      </trkpt>
      <trkpt lat="45.72135" lon="6.29425">
        <ele>877.8</ele>
        <time>2015-11-03T08:17:36Z</time>
      </trkpt>
      <trkpt lat="45.72142" lon="6.29414">
        <ele>878.4</ele>
        <time>2015-11-03T08:17:41Z</time>
      </trkpt>
      <trkpt lat="45.72148" lon="6.29401">
        <ele>878.9</ele>
        <time>2015-11-03T08:17:46Z</time>
      </trkpt>
      <trkpt lat="45.72151" lon="6.29387">
        <ele>878.8</ele>
        <time>2015-11-03T08:17:51Z</time>
      </trkpt>
      <trkpt lat="45.72154" lon="6.29372">
        <ele>879.9</ele>
        <time>2015-11-03T08:17:57Z</time>
      </trkpt>
      <trkpt lat="45.72156" lon="6.29358">
        <ele>881</ele>
        <time>2015-11-03T08:18:02Z</time>
      </trkpt>
      <trkpt lat="45.72158" lon="6.29345">
        <ele>881.8</ele>
        <time>2015-11-03T08:18:06Z</time>
      </trkpt>
      <trkpt lat="45.72159" lon="6.29332">
        <ele>882.1</ele>
        <time>2015-11-03T08:18:10Z</time>
      </trkpt>
      <trkpt lat="45.7216" lon="6.29317">
        <ele>882.8</ele>
        <time>2015-11-03T08:18:15Z</time>
      </trkpt>
      <trkpt lat="45.72159" lon="6.29304">
        <ele>884</ele>
        <time>2015-11-03T08:18:20Z</time>
      </trkpt>
      <trkpt lat="45.7216" lon="6.2929">
        <ele>884.9</ele>
        <time>2015-11-03T08:18:25Z</time>
      </trkpt>
      <trkpt lat="45.7216" lon="6.29276">
        <ele>886.2</ele>
        <time>2015-11-03T08:18:30Z</time>
      </trkpt>
      <trkpt lat="45.72158" lon="6.29245">
        <ele>886.9</ele>
        <time>2015-11-03T08:18:40Z</time>
      </trkpt>
      <trkpt lat="45.72157" lon="6.29229">
        <ele>887.9</ele>
        <time>2015-11-03T08:18:45Z</time>
      </trkpt>
      <trkpt lat="45.72154" lon="6.29215">
        <ele>888.3</ele>
        <time>2015-11-03T08:18:49Z</time>
      </trkpt>
      <trkpt lat="45.72149" lon="6.29202">
        <ele>889.4</ele>
        <time>2015-11-03T08:18:53Z</time>
      </trkpt>
      <trkpt lat="45.72144" lon="6.29191">
        <ele>890.1</ele>
        <time>2015-11-03T08:18:57Z</time>
      </trkpt>
      <trkpt lat="45.72137" lon="6.29179">
        <ele>890.2</ele>
        <time>2015-11-03T08:19:02Z</time>
      </trkpt>
      <trkpt lat="45.72128" lon="6.2917">
        <ele>891.3</ele>
        <time>2015-11-03T08:19:07Z</time>
      </trkpt>
      <trkpt lat="45.7212" lon="6.29163">
        <ele>892.2</ele>
        <time>2015-11-03T08:19:11Z</time>
      </trkpt>
      <trkpt lat="45.72113" lon="6.29156">
        <ele>893.4</ele>
        <time>2015-11-03T08:19:15Z</time>
      </trkpt>
      <trkpt lat="45.72105" lon="6.2915">
        <ele>893.8</ele>
        <time>2015-11-03T08:19:19Z</time>
      </trkpt>
      <trkpt lat="45.72096" lon="6.29139">
        <ele>895</ele>
        <time>2015-11-03T08:19:24Z</time>
      </trkpt>
      <trkpt lat="45.7209" lon="6.29127">
        <ele>895.7</ele>
        <time>2015-11-03T08:19:29Z</time>
      </trkpt>
      <trkpt lat="45.72087" lon="6.29113">
        <ele>896.6</ele>
        <time>2015-11-03T08:19:34Z</time>
      </trkpt>
      <trkpt lat="45.7209" lon="6.29085">
        <ele>898.5</ele>
        <time>2015-11-03T08:19:44Z</time>
      </trkpt>
      <trkpt lat="45.72093" lon="6.29071">
        <ele>899.6</ele>
        <time>2015-11-03T08:19:49Z</time>
      </trkpt>
      <trkpt lat="45.72098" lon="6.29058">
        <ele>899.8</ele>
        <time>2015-11-03T08:19:54Z</time>
      </trkpt>
      <trkpt lat="45.72103" lon="6.29046">
        <ele>900.7</ele>
        <time>2015-11-03T08:19:59Z</time>
      </trkpt>
      <trkpt lat="45.72104" lon="6.29032">
        <ele>901.6</ele>
        <time>2015-11-03T08:20:04Z</time>
      </trkpt>
      <trkpt lat="45.72097" lon="6.29023">
        <ele>902.6</ele>
        <time>2015-11-03T08:20:09Z</time>
      </trkpt>
      <trkpt lat="45.72087" lon="6.29024">
        <ele>903.7</ele>
        <time>2015-11-03T08:20:15Z</time>
      </trkpt>
      <trkpt lat="45.7208" lon="6.29035">
        <ele>905.1</ele>
        <time>2015-11-03T08:20:22Z</time>
      </trkpt>
      <trkpt lat="45.72071" lon="6.29042">
        <ele>905.5</ele>
        <time>2015-11-03T08:20:28Z</time>
      </trkpt>
      <trkpt lat="45.72063" lon="6.29048">
        <ele>906.4</ele>
        <time>2015-11-03T08:20:33Z</time>
      </trkpt>
      <trkpt lat="45.72053" lon="6.29053">
        <ele>907.7</ele>
        <time>2015-11-03T08:20:38Z</time>
      </trkpt>
      <trkpt lat="45.72033" lon="6.29066">
        <ele>909</ele>
        <time>2015-11-03T08:20:48Z</time>
      </trkpt>
      <trkpt lat="45.72025" lon="6.29074">
        <ele>910.8</ele>
        <time>2015-11-03T08:20:53Z</time>
      </trkpt>
      <trkpt lat="45.72016" lon="6.29084">
        <ele>911.8</ele>
        <time>2015-11-03T08:20:58Z</time>
      </trkpt>
      <trkpt lat="45.7201" lon="6.29098">
        <ele>912.7</ele>
        <time>2015-11-03T08:21:03Z</time>
      </trkpt>
      <trkpt lat="45.72008" lon="6.29113">
        <ele>914.3</ele>
        <time>2015-11-03T08:21:08Z</time>
      </trkpt>
      <trkpt lat="45.72008" lon="6.29129">
        <ele>914</ele>
        <time>2015-11-03T08:21:13Z</time>
      </trkpt>
      <trkpt lat="45.72011" lon="6.29144">
        <ele>915.1</ele>
        <time>2015-11-03T08:21:18Z</time>
      </trkpt>
      <trkpt lat="45.72017" lon="6.29157">
        <ele>916.2</ele>
        <time>2015-11-03T08:21:23Z</time>
      </trkpt>
      <trkpt lat="45.7202" lon="6.29171">
        <ele>917.4</ele>
        <time>2015-11-03T08:21:28Z</time>
      </trkpt>
      <trkpt lat="45.72021" lon="6.29186">
        <ele>918.1</ele>
        <time>2015-11-03T08:21:33Z</time>
      </trkpt>
      <trkpt lat="45.72019" lon="6.29201">
        <ele>918.6</ele>
        <time>2015-11-03T08:21:39Z</time>
      </trkpt>
      <trkpt lat="45.7201" lon="6.29225">
        <ele>920.9</ele>
        <time>2015-11-03T08:21:49Z</time>
      </trkpt>
      <trkpt lat="45.72002" lon="6.29232">
        <ele>921.9</ele>
        <time>2015-11-03T08:21:54Z</time>
      </trkpt>
      <trkpt lat="45.71992" lon="6.29233">
        <ele>922.3</ele>
        <time>2015-11-03T08:21:59Z</time>
      </trkpt>
      <trkpt lat="45.71981" lon="6.2923">
        <ele>923.3</ele>
        <time>2015-11-03T08:22:04Z</time>
      </trkpt>
      <trkpt lat="45.71972" lon="6.29225">
        <ele>924.7</ele>
        <time>2015-11-03T08:22:09Z</time>
      </trkpt>
      <trkpt lat="45.71963" lon="6.29218">
        <ele>925.6</ele>
        <time>2015-11-03T08:22:14Z</time>
      </trkpt>
      <trkpt lat="45.71953" lon="6.29212">
        <ele>927</ele>
        <time>2015-11-03T08:22:19Z</time>
      </trkpt>
      <trkpt lat="45.71944" lon="6.29205">
        <ele>927.5</ele>
        <time>2015-11-03T08:22:24Z</time>
      </trkpt>
      <trkpt lat="45.71935" lon="6.29198">
        <ele>929.3</ele>
        <time>2015-11-03T08:22:30Z</time>
      </trkpt>
      <trkpt lat="45.71925" lon="6.29193">
        <ele>929.8</ele>
        <time>2015-11-03T08:22:35Z</time>
      </trkpt>
      <trkpt lat="45.71915" lon="6.29192">
        <ele>930.5</ele>
        <time>2015-11-03T08:22:40Z</time>
      </trkpt>
      <trkpt lat="45.71893" lon="6.29196">
        <ele>931.8</ele>
        <time>2015-11-03T08:22:50Z</time>
      </trkpt>
      <trkpt lat="45.71882" lon="6.29198">
        <ele>933.2</ele>
        <time>2015-11-03T08:22:55Z</time>
      </trkpt>
      <trkpt lat="45.71873" lon="6.29201">
        <ele>934</ele>
        <time>2015-11-03T08:23:00Z</time>
      </trkpt>
      <trkpt lat="45.71864" lon="6.292">
        <ele>934.2</ele>
        <time>2015-11-03T08:23:05Z</time>
      </trkpt>
      <trkpt lat="45.71855" lon="6.29207">
        <ele>935.4</ele>
        <time>2015-11-03T08:23:12Z</time>
      </trkpt>
      <trkpt lat="45.71847" lon="6.29215">
        <ele>936.7</ele>
        <time>2015-11-03T08:23:18Z</time>
      </trkpt>
      <trkpt lat="45.71843" lon="6.29227">
        <ele>937.7</ele>
        <time>2015-11-03T08:23:23Z</time>
      </trkpt>
      <trkpt lat="45.7184" lon="6.2924">
        <ele>938.1</ele>
        <time>2015-11-03T08:23:28Z</time>
      </trkpt>
      <trkpt lat="45.71838" lon="6.29253">
        <ele>939.7</ele>
        <time>2015-11-03T08:23:33Z</time>
      </trkpt>
      <trkpt lat="45.71835" lon="6.29267">
        <ele>940.5</ele>
        <time>2015-11-03T08:23:38Z</time>
      </trkpt>
      <trkpt lat="45.71831" lon="6.29279">
        <ele>940.9</ele>
        <time>2015-11-03T08:23:43Z</time>
      </trkpt>
      <trkpt lat="45.71814" lon="6.29292">
        <ele>942.3</ele>
        <time>2015-11-03T08:23:53Z</time>
      </trkpt>
      <trkpt lat="45.71805" lon="6.29299">
        <ele>943.5</ele>
        <time>2015-11-03T08:23:58Z</time>
      </trkpt>
      <trkpt lat="45.71797" lon="6.29305">
        <ele>944.8</ele>
        <time>2015-11-03T08:24:03Z</time>
      </trkpt>
      <trkpt lat="45.71789" lon="6.29312">
        <ele>945.9</ele>
        <time>2015-11-03T08:24:08Z</time>
      </trkpt>
      <trkpt lat="45.7178" lon="6.2932">
        <ele>946.1</ele>
        <time>2015-11-03T08:24:13Z</time>
      </trkpt>
      <trkpt lat="45.71771" lon="6.29328">
        <ele>946.7</ele>
        <time>2015-11-03T08:24:18Z</time>
      </trkpt>
      <trkpt lat="45.71762" lon="6.29334">
        <ele>947.7</ele>
        <time>2015-11-03T08:24:23Z</time>
      </trkpt>
      <trkpt lat="45.71755" lon="6.29345">
        <ele>948.8</ele>
        <time>2015-11-03T08:24:29Z</time>
      </trkpt>
      <trkpt lat="45.71749" lon="6.29358">
        <ele>949.2</ele>
        <time>2015-11-03T08:24:34Z</time>
      </trkpt>
      <trkpt lat="45.71745" lon="6.29371">
        <ele>949.9</ele>
        <time>2015-11-03T08:24:38Z</time>
      </trkpt>
      <trkpt lat="45.71742" lon="6.29384">
        <ele>950.7</ele>
        <time>2015-11-03T08:24:42Z</time>
      </trkpt>
      <trkpt lat="45.71739" lon="6.29396">
        <ele>951.7</ele>
        <time>2015-11-03T08:24:46Z</time>
      </trkpt>
      <trkpt lat="45.71723" lon="6.29418">
        <ele>954.1</ele>
        <time>2015-11-03T08:24:56Z</time>
      </trkpt>
      <trkpt lat="45.71713" lon="6.29426">
        <ele>954.9</ele>
        <time>2015-11-03T08:25:01Z</time>
      </trkpt>
      <trkpt lat="45.71705" lon="6.29432">
        <ele>955.6</ele>
        <time>2015-11-03T08:25:05Z</time>
      </trkpt>
      <trkpt lat="45.71698" lon="6.29442">
        <ele>955.1</ele>
        <time>2015-11-03T08:25:09Z</time>
      </trkpt>
      <trkpt lat="45.71691" lon="6.2945">
        <ele>955.8</ele>
        <time>2015-11-03T08:25:13Z</time>
      </trkpt>
      <trkpt lat="45.71683" lon="6.29459">
        <ele>956.9</ele>
        <time>2015-11-03T08:25:19Z</time>
      </trkpt>
      <trkpt lat="45.71674" lon="6.29465">
        <ele>958.6</ele>
        <time>2015-11-03T08:25:24Z</time>
      </trkpt>
      <trkpt lat="45.71666" lon="6.29472">
        <ele>959.4</ele>
        <time>2015-11-03T08:25:29Z</time>
      </trkpt>
      <trkpt lat="45.71655" lon="6.29471">
        <ele>960</ele>
        <time>2015-11-03T08:25:35Z</time>
      </trkpt>
      <trkpt lat="45.71651" lon="6.29459">
        <ele>961.9</ele>
        <time>2015-11-03T08:25:41Z</time>
      </trkpt>
      <trkpt lat="45.71656" lon="6.29445">
        <ele>963</ele>
        <time>2015-11-03T08:25:47Z</time>
      </trkpt>
      <trkpt lat="45.71666" lon="6.2942">
        <ele>965</ele>
        <time>2015-11-03T08:25:58Z</time>
      </trkpt>
      <trkpt lat="45.71668" lon="6.29407">
        <ele>966</ele>
        <time>2015-11-03T08:26:03Z</time>
      </trkpt>
      <trkpt lat="45.71669" lon="6.29394">
        <ele>967.3</ele>
        <time>2015-11-03T08:26:08Z</time>
      </trkpt>
      <trkpt lat="45.71668" lon="6.2938">
        <ele>967.6</ele>
        <time>2015-11-03T08:26:14Z</time>
      </trkpt>
      <trkpt lat="45.71664" lon="6.29366">
        <ele>968.4</ele>
        <time>2015-11-03T08:26:20Z</time>
      </trkpt>
      <trkpt lat="45.7166" lon="6.29353">
        <ele>969.6</ele>
        <time>2015-11-03T08:26:25Z</time>
      </trkpt>
      <trkpt lat="45.71656" lon="6.29341">
        <ele>969.9</ele>
        <time>2015-11-03T08:26:30Z</time>
      </trkpt>
      <trkpt lat="45.71654" lon="6.29326">
        <ele>971.7</ele>
        <time>2015-11-03T08:26:36Z</time>
      </trkpt>
      <trkpt lat="45.71653" lon="6.29313">
        <ele>973</ele>
        <time>2015-11-03T08:26:41Z</time>
      </trkpt>
      <trkpt lat="45.71657" lon="6.29298">
        <ele>973.6</ele>
        <time>2015-11-03T08:26:47Z</time>
      </trkpt>
      <trkpt lat="45.71659" lon="6.29284">
        <ele>974.3</ele>
        <time>2015-11-03T08:26:52Z</time>
      </trkpt>
      <trkpt lat="45.71665" lon="6.29257">
        <ele>977.1</ele>
        <time>2015-11-03T08:27:02Z</time>
      </trkpt>
      <trkpt lat="45.71668" lon="6.29243">
        <ele>978.1</ele>
        <time>2015-11-03T08:27:07Z</time>
      </trkpt>
      <trkpt lat="45.71671" lon="6.2923">
        <ele>978.6</ele>
        <time>2015-11-03T08:27:12Z</time>
      </trkpt>
      <trkpt lat="45.71675" lon="6.29217">
        <ele>979.7</ele>
        <time>2015-11-03T08:27:17Z</time>
      </trkpt>
      <trkpt lat="45.71678" lon="6.29203">
        <ele>980.2</ele>
        <time>2015-11-03T08:27:22Z</time>
      </trkpt>
      <trkpt lat="45.71681" lon="6.29189">
        <ele>981.3</ele>
        <time>2015-11-03T08:27:27Z</time>
      </trkpt>
      <trkpt lat="45.71687" lon="6.29176">
        <ele>981.9</ele>
        <time>2015-11-03T08:27:33Z</time>
      </trkpt>
      <trkpt lat="45.71692" lon="6.29164">
        <ele>982.4</ele>
        <time>2015-11-03T08:27:38Z</time>
      </trkpt>
      <trkpt lat="45.71698" lon="6.2915">
        <ele>983.6</ele>
        <time>2015-11-03T08:27:43Z</time>
      </trkpt>
      <trkpt lat="45.71703" lon="6.29139">
        <ele>984.3</ele>
        <time>2015-11-03T08:27:47Z</time>
      </trkpt>
      <trkpt lat="45.71708" lon="6.29126">
        <ele>984.8</ele>
        <time>2015-11-03T08:27:52Z</time>
      </trkpt>
      <trkpt lat="45.71714" lon="6.29113">
        <ele>986.5</ele>
        <time>2015-11-03T08:27:57Z</time>
      </trkpt>
      <trkpt lat="45.71726" lon="6.29088">
        <ele>988.1</ele>
        <time>2015-11-03T08:28:07Z</time>
      </trkpt>
      <trkpt lat="45.7173" lon="6.29075">
        <ele>988.8</ele>
        <time>2015-11-03T08:28:12Z</time>
      </trkpt>
      <trkpt lat="45.71735" lon="6.29061">
        <ele>989.5</ele>
        <time>2015-11-03T08:28:17Z</time>
      </trkpt>
      <trkpt lat="45.71739" lon="6.29048">
        <ele>990.7</ele>
        <time>2015-11-03T08:28:22Z</time>
      </trkpt>
      <trkpt lat="45.71743" lon="6.29034">
        <ele>991.4</ele>
        <time>2015-11-03T08:28:27Z</time>
      </trkpt>
      <trkpt lat="45.71746" lon="6.29021">
        <ele>991.4</ele>
        <time>2015-11-03T08:28:32Z</time>
      </trkpt>
      <trkpt lat="45.71748" lon="6.29006">
        <ele>992.5</ele>
        <time>2015-11-03T08:28:37Z</time>
      </trkpt>
      <trkpt lat="45.71747" lon="6.28991">
        <ele>993.4</ele>
        <time>2015-11-03T08:28:42Z</time>
      </trkpt>
      <trkpt lat="45.71744" lon="6.28976">
        <ele>994.5</ele>
        <time>2015-11-03T08:28:47Z</time>
      </trkpt>
      <trkpt lat="45.71743" lon="6.28961">
        <ele>995.8</ele>
        <time>2015-11-03T08:28:52Z</time>
      </trkpt>
      <trkpt lat="45.71742" lon="6.28947">
        <ele>996</ele>
        <time>2015-11-03T08:28:57Z</time>
      </trkpt>
      <trkpt lat="45.71742" lon="6.28934">
        <ele>996.8</ele>
        <time>2015-11-03T08:29:02Z</time>
      </trkpt>
      <trkpt lat="45.71752" lon="6.28909">
        <ele>998.3</ele>
        <time>2015-11-03T08:29:13Z</time>
      </trkpt>
      <trkpt lat="45.71758" lon="6.28895">
        <ele>999.9</ele>
        <time>2015-11-03T08:29:18Z</time>
      </trkpt>
      <trkpt lat="45.71763" lon="6.28882">
        <ele>1000.6</ele>
        <time>2015-11-03T08:29:23Z</time>
      </trkpt>
      <trkpt lat="45.71768" lon="6.28871">
        <ele>1001.5</ele>
        <time>2015-11-03T08:29:27Z</time>
      </trkpt>
      <trkpt lat="45.71773" lon="6.2886">
        <ele>1001.9</ele>
        <time>2015-11-03T08:29:31Z</time>
      </trkpt>
      <trkpt lat="45.71778" lon="6.28846">
        <ele>1003.2</ele>
        <time>2015-11-03T08:29:36Z</time>
      </trkpt>
      <trkpt lat="45.71782" lon="6.28831">
        <ele>1003.6</ele>
        <time>2015-11-03T08:29:41Z</time>
      </trkpt>
      <trkpt lat="45.71784" lon="6.28816">
        <ele>1004.1</ele>
        <time>2015-11-03T08:29:46Z</time>
      </trkpt>
      <trkpt lat="45.71787" lon="6.28803">
        <ele>1004.9</ele>
        <time>2015-11-03T08:29:51Z</time>
      </trkpt>
      <trkpt lat="45.71791" lon="6.2879">
        <ele>1006.4</ele>
        <time>2015-11-03T08:29:56Z</time>
      </trkpt>
      <trkpt lat="45.71796" lon="6.28777">
        <ele>1007.5</ele>
        <time>2015-11-03T08:30:01Z</time>
      </trkpt>
      <trkpt lat="45.71801" lon="6.28763">
        <ele>1008.8</ele>
        <time>2015-11-03T08:30:06Z</time>
      </trkpt>
      <trkpt lat="45.71808" lon="6.28736">
        <ele>1010.2</ele>
        <time>2015-11-03T08:30:16Z</time>
      </trkpt>
      <trkpt lat="45.71811" lon="6.28722">
        <ele>1010.3</ele>
        <time>2015-11-03T08:30:21Z</time>
      </trkpt>
      <trkpt lat="45.71812" lon="6.28709">
        <ele>1011.8</ele>
        <time>2015-11-03T08:30:26Z</time>
      </trkpt>
      <trkpt lat="45.71811" lon="6.28695">
        <ele>1013.3</ele>
        <time>2015-11-03T08:30:32Z</time>
      </trkpt>
      <trkpt lat="45.71808" lon="6.28683">
        <ele>1014.2</ele>
        <time>2015-11-03T08:30:37Z</time>
      </trkpt>
      <trkpt lat="45.71803" lon="6.2867">
        <ele>1014.4</ele>
        <time>2015-11-03T08:30:43Z</time>
      </trkpt>
      <trkpt lat="45.71797" lon="6.28658">
        <ele>1015.7</ele>
        <time>2015-11-03T08:30:48Z</time>
      </trkpt>
      <trkpt lat="45.71791" lon="6.28648">
        <ele>1016.8</ele>
        <time>2015-11-03T08:30:53Z</time>
      </trkpt>
      <trkpt lat="45.71785" lon="6.28636">
        <ele>1017.6</ele>
        <time>2015-11-03T08:30:58Z</time>
      </trkpt>
      <trkpt lat="45.7178" lon="6.28625">
        <ele>1018.4</ele>
        <time>2015-11-03T08:31:03Z</time>
      </trkpt>
      <trkpt lat="45.71774" lon="6.28614">
        <ele>1018.7</ele>
        <time>2015-11-03T08:31:08Z</time>
      </trkpt>
      <trkpt lat="45.71761" lon="6.28593">
        <ele>1021.7</ele>
        <time>2015-11-03T08:31:18Z</time>
      </trkpt>
      <trkpt lat="45.71755" lon="6.28583">
        <ele>1022.2</ele>
        <time>2015-11-03T08:31:23Z</time>
      </trkpt>
      <trkpt lat="45.71749" lon="6.28572">
        <ele>1022.2</ele>
        <time>2015-11-03T08:31:28Z</time>
      </trkpt>
      <trkpt lat="45.71743" lon="6.2856">
        <ele>1023.6</ele>
        <time>2015-11-03T08:31:33Z</time>
      </trkpt>
      <trkpt lat="45.71738" lon="6.28547">
        <ele>1024.9</ele>
        <time>2015-11-03T08:31:38Z</time>
      </trkpt>
      <trkpt lat="45.71732" lon="6.28538">
        <ele>1025.4</ele>
        <time>2015-11-03T08:31:42Z</time>
      </trkpt>
      <trkpt lat="45.71721" lon="6.28537">
        <ele>1026.9</ele>
        <time>2015-11-03T08:31:47Z</time>
      </trkpt>
      <trkpt lat="45.71719" lon="6.28551">
        <ele>1028</ele>
        <time>2015-11-03T08:31:53Z</time>
      </trkpt>
      <trkpt lat="45.71724" lon="6.28564">
        <ele>1028.9</ele>
        <time>2015-11-03T08:31:58Z</time>
      </trkpt>
      <trkpt lat="45.71731" lon="6.28576">
        <ele>1029.9</ele>
        <time>2015-11-03T08:32:05Z</time>
      </trkpt>
      <trkpt lat="45.71736" lon="6.28588">
        <ele>1031.7</ele>
        <time>2015-11-03T08:32:12Z</time>
      </trkpt>
      <trkpt lat="45.71747" lon="6.28613">
        <ele>1034.4</ele>
        <time>2015-11-03T08:32:24Z</time>
      </trkpt>
      <trkpt lat="45.71749" lon="6.28626">
        <ele>1034.8</ele>
        <time>2015-11-03T08:32:29Z</time>
      </trkpt>
      <trkpt lat="45.71751" lon="6.2864">
        <ele>1036.2</ele>
        <time>2015-11-03T08:32:34Z</time>
      </trkpt>
      <trkpt lat="45.71752" lon="6.28653">
        <ele>1037.9</ele>
        <time>2015-11-03T08:32:39Z</time>
      </trkpt>
      <trkpt lat="45.71752" lon="6.28667">
        <ele>1038.8</ele>
        <time>2015-11-03T08:32:44Z</time>
      </trkpt>
      <trkpt lat="45.71751" lon="6.2868">
        <ele>1040.1</ele>
        <time>2015-11-03T08:32:49Z</time>
      </trkpt>
      <trkpt lat="45.7175" lon="6.28693">
        <ele>1040.8</ele>
        <time>2015-11-03T08:32:54Z</time>
      </trkpt>
      <trkpt lat="45.71745" lon="6.28705">
        <ele>1041.9</ele>
        <time>2015-11-03T08:33:01Z</time>
      </trkpt>
      <trkpt lat="45.71739" lon="6.28717">
        <ele>1044.2</ele>
        <time>2015-11-03T08:33:09Z</time>
      </trkpt>
      <trkpt lat="45.71732" lon="6.28726">
        <ele>1045.1</ele>
        <time>2015-11-03T08:33:15Z</time>
      </trkpt>
      <trkpt lat="45.71718" lon="6.28748">
        <ele>1046.8</ele>
        <time>2015-11-03T08:33:26Z</time>
      </trkpt>
      <trkpt lat="45.71711" lon="6.28756">
        <ele>1047.2</ele>
        <time>2015-11-03T08:33:30Z</time>
      </trkpt>
      <trkpt lat="45.71703" lon="6.28766">
        <ele>1048.7</ele>
        <time>2015-11-03T08:33:35Z</time>
      </trkpt>
      <trkpt lat="45.71694" lon="6.28773">
        <ele>1049.5</ele>
        <time>2015-11-03T08:33:40Z</time>
      </trkpt>
      <trkpt lat="45.71686" lon="6.28781">
        <ele>1050.5</ele>
        <time>2015-11-03T08:33:45Z</time>
      </trkpt>
      <trkpt lat="45.71678" lon="6.28787">
        <ele>1051.5</ele>
        <time>2015-11-03T08:33:50Z</time>
      </trkpt>
      <trkpt lat="45.71668" lon="6.28793">
        <ele>1052.8</ele>
        <time>2015-11-03T08:33:56Z</time>
      </trkpt>
      <trkpt lat="45.7166" lon="6.28798">
        <ele>1053.4</ele>
        <time>2015-11-03T08:34:01Z</time>
      </trkpt>
      <trkpt lat="45.71651" lon="6.28806">
        <ele>1055</ele>
        <time>2015-11-03T08:34:07Z</time>
      </trkpt>
      <trkpt lat="45.71642" lon="6.28811">
        <ele>1055.6</ele>
        <time>2015-11-03T08:34:12Z</time>
      </trkpt>
      <trkpt lat="45.71633" lon="6.28816">
        <ele>1056.4</ele>
        <time>2015-11-03T08:34:18Z</time>
      </trkpt>
      <trkpt lat="45.71616" lon="6.28829">
        <ele>1057.5</ele>
        <time>2015-11-03T08:34:28Z</time>
      </trkpt>
      <trkpt lat="45.71608" lon="6.28837">
        <ele>1058.4</ele>
        <time>2015-11-03T08:34:33Z</time>
      </trkpt>
      <trkpt lat="45.71599" lon="6.28845">
        <ele>1059.9</ele>
        <time>2015-11-03T08:34:38Z</time>
      </trkpt>
      <trkpt lat="45.71591" lon="6.28852">
        <ele>1060.9</ele>
        <time>2015-11-03T08:34:43Z</time>
      </trkpt>
      <trkpt lat="45.71584" lon="6.2886">
        <ele>1062.1</ele>
        <time>2015-11-03T08:34:48Z</time>
      </trkpt>
      <trkpt lat="45.71576" lon="6.28868">
        <ele>1062.1</ele>
        <time>2015-11-03T08:34:53Z</time>
      </trkpt>
      <trkpt lat="45.71568" lon="6.28877">
        <ele>1063.7</ele>
        <time>2015-11-03T08:35:00Z</time>
      </trkpt>
      <trkpt lat="45.71563" lon="6.28888">
        <ele>1064.5</ele>
        <time>2015-11-03T08:35:06Z</time>
      </trkpt>
      <trkpt lat="45.71557" lon="6.28899">
        <ele>1066.4</ele>
        <time>2015-11-03T08:35:13Z</time>
      </trkpt>
      <trkpt lat="45.71551" lon="6.28909">
        <ele>1067.7</ele>
        <time>2015-11-03T08:35:19Z</time>
      </trkpt>
      <trkpt lat="45.71536" lon="6.28925">
        <ele>1069.6</ele>
        <time>2015-11-03T08:35:29Z</time>
      </trkpt>
      <trkpt lat="45.71528" lon="6.28932">
        <ele>1070.5</ele>
        <time>2015-11-03T08:35:34Z</time>
      </trkpt>
      <trkpt lat="45.71518" lon="6.28936">
        <ele>1070.9</ele>
        <time>2015-11-03T08:35:39Z</time>
      </trkpt>
      <trkpt lat="45.71508" lon="6.2894">
        <ele>1072.2</ele>
        <time>2015-11-03T08:35:44Z</time>
      </trkpt>
      <trkpt lat="45.71498" lon="6.28943">
        <ele>1072.4</ele>
        <time>2015-11-03T08:35:49Z</time>
      </trkpt>
      <trkpt lat="45.71489" lon="6.28947">
        <ele>1073.4</ele>
        <time>2015-11-03T08:35:54Z</time>
      </trkpt>
      <trkpt lat="45.71479" lon="6.28953">
        <ele>1074.6</ele>
        <time>2015-11-03T08:35:59Z</time>
      </trkpt>
      <trkpt lat="45.7147" lon="6.28957">
        <ele>1075.5</ele>
        <time>2015-11-03T08:36:04Z</time>
      </trkpt>
      <trkpt lat="45.71462" lon="6.28963">
        <ele>1076</ele>
        <time>2015-11-03T08:36:09Z</time>
      </trkpt>
      <trkpt lat="45.71453" lon="6.28968">
        <ele>1077.2</ele>
        <time>2015-11-03T08:36:14Z</time>
      </trkpt>
      <trkpt lat="45.71444" lon="6.28974">
        <ele>1078.8</ele>
        <time>2015-11-03T08:36:19Z</time>
      </trkpt>
      <trkpt lat="45.71436" lon="6.28981">
        <ele>1080.6</ele>
        <time>2015-11-03T08:36:24Z</time>
      </trkpt>
      <trkpt lat="45.71424" lon="6.29003">
        <ele>1082.1</ele>
        <time>2015-11-03T08:36:41Z</time>
      </trkpt>
      <trkpt lat="45.71418" lon="6.29012">
        <ele>1082.3</ele>
        <time>2015-11-03T08:37:02Z</time>
      </trkpt>
      <trkpt lat="45.71412" lon="6.29023">
        <ele>1082</ele>
        <time>2015-11-03T08:37:09Z</time>
      </trkpt>
      <trkpt lat="45.71408" lon="6.29037">
        <ele>1082.6</ele>
        <time>2015-11-03T08:37:15Z</time>
      </trkpt>
      <trkpt lat="45.7141" lon="6.2905">
        <ele>1084</ele>
        <time>2015-11-03T08:37:21Z</time>
      </trkpt>
      <trkpt lat="45.71415" lon="6.29062">
        <ele>1085</ele>
        <time>2015-11-03T08:37:27Z</time>
      </trkpt>
      <trkpt lat="45.71422" lon="6.29086">
        <ele>1086.8</ele>
        <time>2015-11-03T08:37:39Z</time>
      </trkpt>
      <trkpt lat="45.71427" lon="6.29099">
        <ele>1088</ele>
        <time>2015-11-03T08:37:45Z</time>
      </trkpt>
      <trkpt lat="45.71432" lon="6.29112">
        <ele>1089.3</ele>
        <time>2015-11-03T08:37:51Z</time>
      </trkpt>
      <trkpt lat="45.71434" lon="6.29126">
        <ele>1089.9</ele>
        <time>2015-11-03T08:37:57Z</time>
      </trkpt>
      <trkpt lat="45.71425" lon="6.2912">
        <ele>1091</ele>
        <time>2015-11-03T08:38:05Z</time>
      </trkpt>
      <trkpt lat="45.71422" lon="6.29108">
        <ele>1092.1</ele>
        <time>2015-11-03T08:38:11Z</time>
      </trkpt>
      <trkpt lat="45.7142" lon="6.29094">
        <ele>1093.6</ele>
        <time>2015-11-03T08:38:18Z</time>
      </trkpt>
      <trkpt lat="45.71417" lon="6.29081">
        <ele>1095</ele>
        <time>2015-11-03T08:38:25Z</time>
      </trkpt>
      <trkpt lat="45.71413" lon="6.29069">
        <ele>1096</ele>
        <time>2015-11-03T08:38:31Z</time>
      </trkpt>
      <trkpt lat="45.71401" lon="6.29046">
        <ele>1098.6</ele>
        <time>2015-11-03T08:38:43Z</time>
      </trkpt>
      <trkpt lat="45.71396" lon="6.29033">
        <ele>1099.6</ele>
        <time>2015-11-03T08:38:49Z</time>
      </trkpt>
      <trkpt lat="45.71392" lon="6.2902">
        <ele>1100.8</ele>
        <time>2015-11-03T08:38:55Z</time>
      </trkpt>
      <trkpt lat="45.71389" lon="6.29007">
        <ele>1103</ele>
        <time>2015-11-03T08:39:02Z</time>
      </trkpt>
      <trkpt lat="45.71387" lon="6.28994">
        <ele>1103.6</ele>
        <time>2015-11-03T08:39:07Z</time>
      </trkpt>
      <trkpt lat="45.71387" lon="6.2898">
        <ele>1104.6</ele>
        <time>2015-11-03T08:39:13Z</time>
      </trkpt>
      <trkpt lat="45.71389" lon="6.28966">
        <ele>1105.6</ele>
        <time>2015-11-03T08:39:18Z</time>
      </trkpt>
      <trkpt lat="45.71392" lon="6.28952">
        <ele>1106.3</ele>
        <time>2015-11-03T08:39:24Z</time>
      </trkpt>
      <trkpt lat="45.71394" lon="6.28938">
        <ele>1107.7</ele>
        <time>2015-11-03T08:39:30Z</time>
      </trkpt>
      <trkpt lat="45.71398" lon="6.28926">
        <ele>1108.3</ele>
        <time>2015-11-03T08:39:36Z</time>
      </trkpt>
      <trkpt lat="45.71411" lon="6.28906">
        <ele>1110.4</ele>
        <time>2015-11-03T08:39:48Z</time>
      </trkpt>
      <trkpt lat="45.71418" lon="6.28895">
        <ele>1111.3</ele>
        <time>2015-11-03T08:40:06Z</time>
      </trkpt>
      <trkpt lat="45.71424" lon="6.28885">
        <ele>1111.8</ele>
        <time>2015-11-03T08:40:12Z</time>
      </trkpt>
      <trkpt lat="45.71431" lon="6.28874">
        <ele>1112.6</ele>
        <time>2015-11-03T08:40:18Z</time>
      </trkpt>
      <trkpt lat="45.71437" lon="6.28864">
        <ele>1113.2</ele>
        <time>2015-11-03T08:40:23Z</time>
      </trkpt>
      <trkpt lat="45.71444" lon="6.28856">
        <ele>1114.4</ele>
        <time>2015-11-03T08:40:28Z</time>
      </trkpt>
      <trkpt lat="45.7145" lon="6.28846">
        <ele>1115.5</ele>
        <time>2015-11-03T08:40:33Z</time>
      </trkpt>
      <trkpt lat="45.71457" lon="6.28837">
        <ele>1116.4</ele>
        <time>2015-11-03T08:40:49Z</time>
      </trkpt>
      <trkpt lat="45.71464" lon="6.28811">
        <ele>1116.1</ele>
        <time>2015-11-03T08:41:42Z</time>
      </trkpt>
      <trkpt lat="45.71468" lon="6.288">
        <ele>1117.7</ele>
        <time>2015-11-03T08:41:48Z</time>
      </trkpt>
      <trkpt lat="45.71473" lon="6.28788">
        <ele>1119.3</ele>
        <time>2015-11-03T08:41:56Z</time>
      </trkpt>
      <trkpt lat="45.71486" lon="6.28768">
        <ele>1120.9</ele>
        <time>2015-11-03T08:42:09Z</time>
      </trkpt>
      <trkpt lat="45.71493" lon="6.28759">
        <ele>1122.2</ele>
        <time>2015-11-03T08:42:15Z</time>
      </trkpt>
      <trkpt lat="45.715" lon="6.2875">
        <ele>1123.9</ele>
        <time>2015-11-03T08:42:21Z</time>
      </trkpt>
      <trkpt lat="45.71507" lon="6.28741">
        <ele>1125.1</ele>
        <time>2015-11-03T08:42:26Z</time>
      </trkpt>
      <trkpt lat="45.71514" lon="6.2873">
        <ele>1126</ele>
        <time>2015-11-03T08:42:32Z</time>
      </trkpt>
      <trkpt lat="45.71521" lon="6.28719">
        <ele>1127.1</ele>
        <time>2015-11-03T08:42:38Z</time>
      </trkpt>
      <trkpt lat="45.71527" lon="6.28708">
        <ele>1127.8</ele>
        <time>2015-11-03T08:42:44Z</time>
      </trkpt>
      <trkpt lat="45.71532" lon="6.28697">
        <ele>1128.8</ele>
        <time>2015-11-03T08:42:50Z</time>
      </trkpt>
      <trkpt lat="45.71536" lon="6.28684">
        <ele>1130.5</ele>
        <time>2015-11-03T08:42:57Z</time>
      </trkpt>
      <trkpt lat="45.71543" lon="6.28657">
        <ele>1132.2</ele>
        <time>2015-11-03T08:43:11Z</time>
      </trkpt>
      <trkpt lat="45.71544" lon="6.28644">
        <ele>1133</ele>
        <time>2015-11-03T08:43:18Z</time>
      </trkpt>
      <trkpt lat="45.71543" lon="6.28629">
        <ele>1133.8</ele>
        <time>2015-11-03T08:43:26Z</time>
      </trkpt>
      <trkpt lat="45.7154" lon="6.28616">
        <ele>1135.3</ele>
        <time>2015-11-03T08:43:32Z</time>
      </trkpt>
      <trkpt lat="45.71534" lon="6.28603">
        <ele>1135.6</ele>
        <time>2015-11-03T08:43:38Z</time>
      </trkpt>
      <trkpt lat="45.71528" lon="6.28593">
        <ele>1136.2</ele>
        <time>2015-11-03T08:43:44Z</time>
      </trkpt>
      <trkpt lat="45.71522" lon="6.28582">
        <ele>1137.9</ele>
        <time>2015-11-03T08:43:51Z</time>
      </trkpt>
      <trkpt lat="45.71515" lon="6.28573">
        <ele>1137.9</ele>
        <time>2015-11-03T08:43:57Z</time>
      </trkpt>
      <trkpt lat="45.71508" lon="6.28565">
        <ele>1139</ele>
        <time>2015-11-03T08:44:02Z</time>
      </trkpt>
      <trkpt lat="45.71494" lon="6.28544">
        <ele>1141.4</ele>
        <time>2015-11-03T08:44:13Z</time>
      </trkpt>
      <trkpt lat="45.71487" lon="6.28534">
        <ele>1142.2</ele>
        <time>2015-11-03T08:44:19Z</time>
      </trkpt>
      <trkpt lat="45.71481" lon="6.28523">
        <ele>1143.3</ele>
        <time>2015-11-03T08:44:25Z</time>
      </trkpt>
      <trkpt lat="45.71475" lon="6.28513">
        <ele>1144.7</ele>
        <time>2015-11-03T08:44:30Z</time>
      </trkpt>
      <trkpt lat="45.71468" lon="6.28502">
        <ele>1144.8</ele>
        <time>2015-11-03T08:44:35Z</time>
      </trkpt>
      <trkpt lat="45.71462" lon="6.2849">
        <ele>1144.9</ele>
        <time>2015-11-03T08:44:40Z</time>
      </trkpt>
      <trkpt lat="45.71457" lon="6.28479">
        <ele>1147</ele>
        <time>2015-11-03T08:44:45Z</time>
      </trkpt>
      <trkpt lat="45.71451" lon="6.28468">
        <ele>1148.2</ele>
        <time>2015-11-03T08:44:50Z</time>
      </trkpt>
      <trkpt lat="45.71445" lon="6.28457">
        <ele>1148.9</ele>
        <time>2015-11-03T08:44:55Z</time>
      </trkpt>
      <trkpt lat="45.71439" lon="6.28446">
        <ele>1149.9</ele>
        <time>2015-11-03T08:45:00Z</time>
      </trkpt>
      <trkpt lat="45.71433" lon="6.28434">
        <ele>1151.2</ele>
        <time>2015-11-03T08:45:06Z</time>
      </trkpt>
      <trkpt lat="45.71422" lon="6.28409">
        <ele>1152.6</ele>
        <time>2015-11-03T08:45:18Z</time>
      </trkpt>
      <trkpt lat="45.7142" lon="6.28396">
        <ele>1153.8</ele>
        <time>2015-11-03T08:45:23Z</time>
      </trkpt>
      <trkpt lat="45.71422" lon="6.28383">
        <ele>1154.6</ele>
        <time>2015-11-03T08:45:28Z</time>
      </trkpt>
      <trkpt lat="45.71428" lon="6.2837">
        <ele>1155.3</ele>
        <time>2015-11-03T08:45:34Z</time>
      </trkpt>
      <trkpt lat="45.71434" lon="6.2836">
        <ele>1156.1</ele>
        <time>2015-11-03T08:45:41Z</time>
      </trkpt>
      <trkpt lat="45.71441" lon="6.28348">
        <ele>1157.8</ele>
        <time>2015-11-03T08:45:48Z</time>
      </trkpt>
      <trkpt lat="45.71449" lon="6.28339">
        <ele>1158.1</ele>
        <time>2015-11-03T08:45:55Z</time>
      </trkpt>
      <trkpt lat="45.71455" lon="6.2833">
        <ele>1159.6</ele>
        <time>2015-11-03T08:46:01Z</time>
      </trkpt>
      <trkpt lat="45.71464" lon="6.28322">
        <ele>1161</ele>
        <time>2015-11-03T08:46:08Z</time>
      </trkpt>
      <trkpt lat="45.71481" lon="6.28307">
        <ele>1163</ele>
        <time>2015-11-03T08:46:19Z</time>
      </trkpt>
      <trkpt lat="45.71488" lon="6.28298">
        <ele>1163.1</ele>
        <time>2015-11-03T08:46:24Z</time>
      </trkpt>
      <trkpt lat="45.71494" lon="6.28286">
        <ele>1164.3</ele>
        <time>2015-11-03T08:46:29Z</time>
      </trkpt>
      <trkpt lat="45.71497" lon="6.28273">
        <ele>1165.3</ele>
        <time>2015-11-03T08:46:34Z</time>
      </trkpt>
      <trkpt lat="45.715" lon="6.28259">
        <ele>1166.3</ele>
        <time>2015-11-03T08:46:39Z</time>
      </trkpt>
      <trkpt lat="45.71502" lon="6.28247">
        <ele>1167</ele>
        <time>2015-11-03T08:46:44Z</time>
      </trkpt>
      <trkpt lat="45.71501" lon="6.28232">
        <ele>1168.2</ele>
        <time>2015-11-03T08:46:50Z</time>
      </trkpt>
      <trkpt lat="45.71501" lon="6.28217">
        <ele>1169.8</ele>
        <time>2015-11-03T08:46:56Z</time>
      </trkpt>
      <trkpt lat="45.71497" lon="6.28204">
        <ele>1170.9</ele>
        <time>2015-11-03T08:47:02Z</time>
      </trkpt>
      <trkpt lat="45.71494" lon="6.2819">
        <ele>1172</ele>
        <time>2015-11-03T08:47:08Z</time>
      </trkpt>
      <trkpt lat="45.71493" lon="6.28176">
        <ele>1171.8</ele>
        <time>2015-11-03T08:47:14Z</time>
      </trkpt>
      <trkpt lat="45.71493" lon="6.28149">
        <ele>1174.3</ele>
        <time>2015-11-03T08:47:25Z</time>
      </trkpt>
      <trkpt lat="45.71492" lon="6.28134">
        <ele>1175.7</ele>
        <time>2015-11-03T08:47:31Z</time>
      </trkpt>
      <trkpt lat="45.71489" lon="6.2812">
        <ele>1176.4</ele>
        <time>2015-11-03T08:47:37Z</time>
      </trkpt>
      <trkpt lat="45.71486" lon="6.28107">
        <ele>1177.4</ele>
        <time>2015-11-03T08:47:42Z</time>
      </trkpt>
      <trkpt lat="45.71482" lon="6.28094">
        <ele>1178.1</ele>
        <time>2015-11-03T08:47:48Z</time>
      </trkpt>
      <trkpt lat="45.71478" lon="6.28079">
        <ele>1179.1</ele>
        <time>2015-11-03T08:47:54Z</time>
      </trkpt>
      <trkpt lat="45.71476" lon="6.28064">
        <ele>1180.4</ele>
        <time>2015-11-03T08:48:00Z</time>
      </trkpt>
      <trkpt lat="45.71474" lon="6.28052">
        <ele>1181.3</ele>
        <time>2015-11-03T08:48:05Z</time>
      </trkpt>
      <trkpt lat="45.71471" lon="6.28038">
        <ele>1181.8</ele>
        <time>2015-11-03T08:48:11Z</time>
      </trkpt>
      <trkpt lat="45.7147" lon="6.28025">
        <ele>1183.1</ele>
        <time>2015-11-03T08:48:17Z</time>
      </trkpt>
      <trkpt lat="45.71467" lon="6.27997">
        <ele>1185.5</ele>
        <time>2015-11-03T08:48:29Z</time>
      </trkpt>
      <trkpt lat="45.71467" lon="6.27981">
        <ele>1186.6</ele>
        <time>2015-11-03T08:48:35Z</time>
      </trkpt>
      <trkpt lat="45.71466" lon="6.27966">
        <ele>1188</ele>
        <time>2015-11-03T08:48:41Z</time>
      </trkpt>
      <trkpt lat="45.71464" lon="6.27952">
        <ele>1189.5</ele>
        <time>2015-11-03T08:48:47Z</time>
      </trkpt>
      <trkpt lat="45.7146" lon="6.27939">
        <ele>1190.6</ele>
        <time>2015-11-03T08:48:52Z</time>
      </trkpt>
      <trkpt lat="45.71458" lon="6.27926">
        <ele>1191.7</ele>
        <time>2015-11-03T08:48:57Z</time>
      </trkpt>
      <trkpt lat="45.71454" lon="6.27912">
        <ele>1192.8</ele>
        <time>2015-11-03T08:49:03Z</time>
      </trkpt>
      <trkpt lat="45.71451" lon="6.27897">
        <ele>1194.3</ele>
        <time>2015-11-03T08:49:09Z</time>
      </trkpt>
      <trkpt lat="45.71447" lon="6.27884">
        <ele>1195.3</ele>
        <time>2015-11-03T08:49:15Z</time>
      </trkpt>
      <trkpt lat="45.71444" lon="6.2787">
        <ele>1196.1</ele>
        <time>2015-11-03T08:49:21Z</time>
      </trkpt>
      <trkpt lat="45.71437" lon="6.27844">
        <ele>1197.8</ele>
        <time>2015-11-03T08:49:33Z</time>
      </trkpt>
      <trkpt lat="45.71434" lon="6.27831">
        <ele>1199.1</ele>
        <time>2015-11-03T08:49:39Z</time>
      </trkpt>
      <trkpt lat="45.71431" lon="6.27819">
        <ele>1200.1</ele>
        <time>2015-11-03T08:49:45Z</time>
      </trkpt>
      <trkpt lat="45.71429" lon="6.27804">
        <ele>1200.1</ele>
        <time>2015-11-03T08:49:51Z</time>
      </trkpt>
      <trkpt lat="45.71428" lon="6.27791">
        <ele>1201.4</ele>
        <time>2015-11-03T08:49:56Z</time>
      </trkpt>
      <trkpt lat="45.71425" lon="6.27779">
        <ele>1202.2</ele>
        <time>2015-11-03T08:50:01Z</time>
      </trkpt>
      <trkpt lat="45.71422" lon="6.27764">
        <ele>1202.5</ele>
        <time>2015-11-03T08:50:07Z</time>
      </trkpt>
      <trkpt lat="45.71418" lon="6.2775">
        <ele>1203.7</ele>
        <time>2015-11-03T08:50:13Z</time>
      </trkpt>
      <trkpt lat="45.71415" lon="6.27737">
        <ele>1204.7</ele>
        <time>2015-11-03T08:50:19Z</time>
      </trkpt>
      <trkpt lat="45.71409" lon="6.27724">
        <ele>1206</ele>
        <time>2015-11-03T08:50:25Z</time>
      </trkpt>
      <trkpt lat="45.71398" lon="6.27699">
        <ele>1208.2</ele>
        <time>2015-11-03T08:50:36Z</time>
      </trkpt>
      <trkpt lat="45.71393" lon="6.27688">
        <ele>1208.3</ele>
        <time>2015-11-03T08:50:41Z</time>
      </trkpt>
      <trkpt lat="45.7139" lon="6.27675">
        <ele>1209.9</ele>
        <time>2015-11-03T08:50:47Z</time>
      </trkpt>
      <trkpt lat="45.71386" lon="6.27662">
        <ele>1210.5</ele>
        <time>2015-11-03T08:50:53Z</time>
      </trkpt>
      <trkpt lat="45.71382" lon="6.27648">
        <ele>1212</ele>
        <time>2015-11-03T08:50:59Z</time>
      </trkpt>
      <trkpt lat="45.71378" lon="6.27634">
        <ele>1212.8</ele>
        <time>2015-11-03T08:51:05Z</time>
      </trkpt>
      <trkpt lat="45.71374" lon="6.27622">
        <ele>1214</ele>
        <time>2015-11-03T08:51:10Z</time>
      </trkpt>
      <trkpt lat="45.71369" lon="6.27608">
        <ele>1215</ele>
        <time>2015-11-03T08:51:16Z</time>
      </trkpt>
      <trkpt lat="45.71366" lon="6.27595">
        <ele>1215.4</ele>
        <time>2015-11-03T08:51:21Z</time>
      </trkpt>
      <trkpt lat="45.71361" lon="6.27582">
        <ele>1216.8</ele>
        <time>2015-11-03T08:51:27Z</time>
      </trkpt>
      <trkpt lat="45.71344" lon="6.27569">
        <ele>1218</ele>
        <time>2015-11-03T08:51:38Z</time>
      </trkpt>
      <trkpt lat="45.71339" lon="6.27556">
        <ele>1219.9</ele>
        <time>2015-11-03T08:51:45Z</time>
      </trkpt>
      <trkpt lat="45.7133" lon="6.27561">
        <ele>1220.9</ele>
        <time>2015-11-03T08:51:53Z</time>
      </trkpt>
      <trkpt lat="45.71329" lon="6.27576">
        <ele>1222.3</ele>
        <time>2015-11-03T08:52:00Z</time>
      </trkpt>
      <trkpt lat="45.71329" lon="6.27591">
        <ele>1222.9</ele>
        <time>2015-11-03T08:52:07Z</time>
      </trkpt>
      <trkpt lat="45.7133" lon="6.27606">
        <ele>1223.8</ele>
        <time>2015-11-03T08:52:13Z</time>
      </trkpt>
      <trkpt lat="45.71335" lon="6.27618">
        <ele>1224.7</ele>
        <time>2015-11-03T08:52:19Z</time>
      </trkpt>
      <trkpt lat="45.71339" lon="6.27632">
        <ele>1224.4</ele>
        <time>2015-11-03T08:52:25Z</time>
      </trkpt>
      <trkpt lat="45.7134" lon="6.27646">
        <ele>1224.9</ele>
        <time>2015-11-03T08:52:31Z</time>
      </trkpt>
      <trkpt lat="45.7134" lon="6.27674">
        <ele>1225.3</ele>
        <time>2015-11-03T08:52:43Z</time>
      </trkpt>
      <trkpt lat="45.71344" lon="6.27686">
        <ele>1225.6</ele>
        <time>2015-11-03T08:52:48Z</time>
      </trkpt>
      <trkpt lat="45.71346" lon="6.27699">
        <ele>1226.1</ele>
        <time>2015-11-03T08:52:54Z</time>
      </trkpt>
      <trkpt lat="45.71348" lon="6.27714">
        <ele>1226.6</ele>
        <time>2015-11-03T08:53:00Z</time>
      </trkpt>
      <trkpt lat="45.71351" lon="6.27728">
        <ele>1228</ele>
        <time>2015-11-03T08:53:07Z</time>
      </trkpt>
      <trkpt lat="45.71352" lon="6.27741">
        <ele>1228.1</ele>
        <time>2015-11-03T08:53:14Z</time>
      </trkpt>
      <trkpt lat="45.71353" lon="6.27754">
        <ele>1230.1</ele>
        <time>2015-11-03T08:53:21Z</time>
      </trkpt>
      <trkpt lat="45.71355" lon="6.27767">
        <ele>1231.4</ele>
        <time>2015-11-03T08:53:28Z</time>
      </trkpt>
      <trkpt lat="45.71358" lon="6.27779">
        <ele>1232.3</ele>
        <time>2015-11-03T08:53:35Z</time>
      </trkpt>
      <trkpt lat="45.71364" lon="6.27805">
        <ele>1234.7</ele>
        <time>2015-11-03T08:53:49Z</time>
      </trkpt>
      <trkpt lat="45.71365" lon="6.27819">
        <ele>1236.8</ele>
        <time>2015-11-03T08:53:56Z</time>
      </trkpt>
      <trkpt lat="45.71364" lon="6.27832">
        <ele>1238</ele>
        <time>2015-11-03T08:54:03Z</time>
      </trkpt>
      <trkpt lat="45.71359" lon="6.27845">
        <ele>1239.4</ele>
        <time>2015-11-03T08:54:10Z</time>
      </trkpt>
      <trkpt lat="45.71355" lon="6.27857">
        <ele>1241</ele>
        <time>2015-11-03T08:54:23Z</time>
      </trkpt>
      <trkpt lat="45.71346" lon="6.27854">
        <ele>1244.5</ele>
        <time>2015-11-03T08:54:40Z</time>
      </trkpt>
      <trkpt lat="45.7133" lon="6.27837">
        <ele>1246.4</ele>
        <time>2015-11-03T08:54:53Z</time>
      </trkpt>
      <trkpt lat="45.71323" lon="6.27828">
        <ele>1247.5</ele>
        <time>2015-11-03T08:55:00Z</time>
      </trkpt>
      <trkpt lat="45.71316" lon="6.27819">
        <ele>1249</ele>
        <time>2015-11-03T08:55:08Z</time>
      </trkpt>
      <trkpt lat="45.71309" lon="6.2781">
        <ele>1251.2</ele>
        <time>2015-11-03T08:55:16Z</time>
      </trkpt>
      <trkpt lat="45.71301" lon="6.27804">
        <ele>1251.8</ele>
        <time>2015-11-03T08:55:24Z</time>
      </trkpt>
      <trkpt lat="45.71293" lon="6.27796">
        <ele>1253.8</ele>
        <time>2015-11-03T08:55:32Z</time>
      </trkpt>
      <trkpt lat="45.71284" lon="6.27789">
        <ele>1255</ele>
        <time>2015-11-03T08:55:41Z</time>
      </trkpt>
      <trkpt lat="45.71263" lon="6.27772">
        <ele>1259.9</ele>
        <time>2015-11-03T08:56:04Z</time>
      </trkpt>
      <trkpt lat="45.71255" lon="6.27765">
        <ele>1261.1</ele>
        <time>2015-11-03T08:56:12Z</time>
      </trkpt>
      <trkpt lat="45.71247" lon="6.27757">
        <ele>1262.7</ele>
        <time>2015-11-03T08:56:20Z</time>
      </trkpt>
      <trkpt lat="45.71239" lon="6.2775">
        <ele>1263.4</ele>
        <time>2015-11-03T08:56:28Z</time>
      </trkpt>
      <trkpt lat="45.7123" lon="6.2775">
        <ele>1265.2</ele>
        <time>2015-11-03T08:56:38Z</time>
      </trkpt>
      <trkpt lat="45.71224" lon="6.27759">
        <ele>1268.3</ele>
        <time>2015-11-03T08:56:53Z</time>
      </trkpt>
      <trkpt lat="45.71208" lon="6.27772">
        <ele>1275.5</ele>
        <time>2015-11-03T08:57:37Z</time>
      </trkpt>
      <trkpt lat="45.71198" lon="6.27772">
        <ele>1278</ele>
        <time>2015-11-03T08:57:52Z</time>
      </trkpt>
      <trkpt lat="45.7119" lon="6.27768">
        <ele>1281.9</ele>
        <time>2015-11-03T08:58:06Z</time>
      </trkpt>
      <trkpt lat="45.71173" lon="6.27774">
        <ele>1288.4</ele>
        <time>2015-11-03T08:58:44Z</time>
      </trkpt>
      <trkpt lat="45.7117" lon="6.27787">
        <ele>1290.5</ele>
        <time>2015-11-03T08:58:53Z</time>
      </trkpt>
      <trkpt lat="45.71168" lon="6.27801">
        <ele>1290.7</ele>
        <time>2015-11-03T08:59:02Z</time>
      </trkpt>
      <trkpt lat="45.71167" lon="6.27814">
        <ele>1293</ele>
        <time>2015-11-03T08:59:11Z</time>
      </trkpt>
      <trkpt lat="45.71168" lon="6.27842">
        <ele>1298</ele>
        <time>2015-11-03T08:59:29Z</time>
      </trkpt>
      <trkpt lat="45.71171" lon="6.27855">
        <ele>1299.6</ele>
        <time>2015-11-03T08:59:38Z</time>
      </trkpt>
      <trkpt lat="45.71173" lon="6.27868">
        <ele>1301</ele>
        <time>2015-11-03T08:59:47Z</time>
      </trkpt>
      <trkpt lat="45.71176" lon="6.27881">
        <ele>1301.1</ele>
        <time>2015-11-03T08:59:55Z</time>
      </trkpt>
      <trkpt lat="45.7118" lon="6.27893">
        <ele>1302</ele>
        <time>2015-11-03T09:00:04Z</time>
      </trkpt>
      <trkpt lat="45.71185" lon="6.27905">
        <ele>1303.6</ele>
        <time>2015-11-03T09:00:13Z</time>
      </trkpt>
      <trkpt lat="45.71165" lon="6.27909">
        <ele>1305</ele>
        <time>2015-11-03T09:00:28Z</time>
      </trkpt>
      <trkpt lat="45.71156" lon="6.2791">
        <ele>1306.8</ele>
        <time>2015-11-03T09:00:35Z</time>
      </trkpt>
      <trkpt lat="45.71146" lon="6.27911">
        <ele>1307.4</ele>
        <time>2015-11-03T09:00:43Z</time>
      </trkpt>
      <trkpt lat="45.71137" lon="6.27908">
        <ele>1309.5</ele>
        <time>2015-11-03T09:00:51Z</time>
      </trkpt>
      <trkpt lat="45.71129" lon="6.27904">
        <ele>1310</ele>
        <time>2015-11-03T09:00:59Z</time>
      </trkpt>
      <trkpt lat="45.71121" lon="6.27898">
        <ele>1312</ele>
        <time>2015-11-03T09:01:08Z</time>
      </trkpt>
      <trkpt lat="45.71114" lon="6.27889">
        <ele>1313</ele>
        <time>2015-11-03T09:01:20Z</time>
      </trkpt>
      <trkpt lat="45.711" lon="6.27871">
        <ele>1314.9</ele>
        <time>2015-11-03T09:01:38Z</time>
      </trkpt>
      <trkpt lat="45.71092" lon="6.27864">
        <ele>1315.2</ele>
        <time>2015-11-03T09:01:44Z</time>
      </trkpt>
      <trkpt lat="45.71084" lon="6.27857">
        <ele>1317</ele>
        <time>2015-11-03T09:01:50Z</time>
      </trkpt>
      <trkpt lat="45.71076" lon="6.2785">
        <ele>1318.3</ele>
        <time>2015-11-03T09:01:56Z</time>
      </trkpt>
      <trkpt lat="45.71069" lon="6.2784">
        <ele>1319.7</ele>
        <time>2015-11-03T09:02:03Z</time>
      </trkpt>
      <trkpt lat="45.71067" lon="6.27827">
        <ele>1321.7</ele>
        <time>2015-11-03T09:02:15Z</time>
      </trkpt>
      <trkpt lat="45.71067" lon="6.27814">
        <ele>1321.6</ele>
        <time>2015-11-03T09:02:34Z</time>
      </trkpt>
      <trkpt lat="45.71064" lon="6.27786">
        <ele>1320.1</ele>
        <time>2015-11-03T09:02:44Z</time>
      </trkpt>
      <trkpt lat="45.71059" lon="6.27772">
        <ele>1319.9</ele>
        <time>2015-11-03T09:02:48Z</time>
      </trkpt>
      <trkpt lat="45.71054" lon="6.2776">
        <ele>1320.2</ele>
        <time>2015-11-03T09:02:51Z</time>
      </trkpt>
      <trkpt lat="45.71049" lon="6.27746">
        <ele>1320.9</ele>
        <time>2015-11-03T09:02:54Z</time>
      </trkpt>
      <trkpt lat="45.71044" lon="6.2773">
        <ele>1320.8</ele>
        <time>2015-11-03T09:02:57Z</time>
      </trkpt>
      <trkpt lat="45.7104" lon="6.27716">
        <ele>1320.3</ele>
        <time>2015-11-03T09:03:00Z</time>
      </trkpt>
      <trkpt lat="45.71036" lon="6.27703">
        <ele>1319.7</ele>
        <time>2015-11-03T09:03:03Z</time>
      </trkpt>
      <trkpt lat="45.71033" lon="6.2769">
        <ele>1320.4</ele>
        <time>2015-11-03T09:03:06Z</time>
      </trkpt>
      <trkpt lat="45.71035" lon="6.27673">
        <ele>1320</ele>
        <time>2015-11-03T09:03:09Z</time>
      </trkpt>
      <trkpt lat="45.71041" lon="6.27656">
        <ele>1319.1</ele>
        <time>2015-11-03T09:03:12Z</time>
      </trkpt>
      <trkpt lat="45.71047" lon="6.27645">
        <ele>1318.2</ele>
        <time>2015-11-03T09:03:14Z</time>
      </trkpt>
      <trkpt lat="45.71054" lon="6.27628">
        <ele>1317.9</ele>
        <time>2015-11-03T09:03:17Z</time>
      </trkpt>
      <trkpt lat="45.71055" lon="6.27614">
        <ele>1317.2</ele>
        <time>2015-11-03T09:03:19Z</time>
      </trkpt>
      <trkpt lat="45.71054" lon="6.276">
        <ele>1316.8</ele>
        <time>2015-11-03T09:03:21Z</time>
      </trkpt>
      <trkpt lat="45.71053" lon="6.27587">
        <ele>1316.6</ele>
        <time>2015-11-03T09:03:23Z</time>
      </trkpt>
      <trkpt lat="45.71051" lon="6.27573">
        <ele>1316</ele>
        <time>2015-11-03T09:03:26Z</time>
      </trkpt>
      <trkpt lat="45.71041" lon="6.27574">
        <ele>1316.8</ele>
        <time>2015-11-03T09:03:34Z</time>
      </trkpt>
      <trkpt lat="45.71037" lon="6.27587">
        <ele>1319</ele>
        <time>2015-11-03T09:03:42Z</time>
      </trkpt>
      <trkpt lat="45.71029" lon="6.27612">
        <ele>1324.2</ele>
        <time>2015-11-03T09:03:59Z</time>
      </trkpt>
      <trkpt lat="45.71022" lon="6.2762">
        <ele>1325.4</ele>
        <time>2015-11-03T09:04:07Z</time>
      </trkpt>
      <trkpt lat="45.71015" lon="6.27629">
        <ele>1326.9</ele>
        <time>2015-11-03T09:04:16Z</time>
      </trkpt>
      <trkpt lat="45.71008" lon="6.2764">
        <ele>1328.5</ele>
        <time>2015-11-03T09:04:25Z</time>
      </trkpt>
      <trkpt lat="45.71003" lon="6.27652">
        <ele>1330.4</ele>
        <time>2015-11-03T09:04:34Z</time>
      </trkpt>
      <trkpt lat="45.70998" lon="6.27664">
        <ele>1332</ele>
        <time>2015-11-03T09:04:44Z</time>
      </trkpt>
      <trkpt lat="45.70989" lon="6.27686">
        <ele>1335.6</ele>
        <time>2015-11-03T09:05:03Z</time>
      </trkpt>
      <trkpt lat="45.70985" lon="6.27699">
        <ele>1335.9</ele>
        <time>2015-11-03T09:05:10Z</time>
      </trkpt>
      <trkpt lat="45.70979" lon="6.27709">
        <ele>1336.8</ele>
        <time>2015-11-03T09:05:18Z</time>
      </trkpt>
      <trkpt lat="45.70974" lon="6.27721">
        <ele>1337.5</ele>
        <time>2015-11-03T09:05:25Z</time>
      </trkpt>
      <trkpt lat="45.70972" lon="6.27734">
        <ele>1339.2</ele>
        <time>2015-11-03T09:05:32Z</time>
      </trkpt>
      <trkpt lat="45.70967" lon="6.27746">
        <ele>1341.3</ele>
        <time>2015-11-03T09:05:40Z</time>
      </trkpt>
      <trkpt lat="45.70961" lon="6.27755">
        <ele>1342.6</ele>
        <time>2015-11-03T09:05:48Z</time>
      </trkpt>
      <trkpt lat="45.70944" lon="6.27771">
        <ele>1346</ele>
        <time>2015-11-03T09:06:04Z</time>
      </trkpt>
      <trkpt lat="45.70937" lon="6.2778">
        <ele>1346.9</ele>
        <time>2015-11-03T09:06:12Z</time>
      </trkpt>
      <trkpt lat="45.7093" lon="6.2779">
        <ele>1347.5</ele>
        <time>2015-11-03T09:06:20Z</time>
      </trkpt>
      <trkpt lat="45.70924" lon="6.27799">
        <ele>1349.3</ele>
        <time>2015-11-03T09:06:28Z</time>
      </trkpt>
      <trkpt lat="45.70916" lon="6.27808">
        <ele>1350.1</ele>
        <time>2015-11-03T09:06:36Z</time>
      </trkpt>
      <trkpt lat="45.7091" lon="6.2782">
        <ele>1351.6</ele>
        <time>2015-11-03T09:06:44Z</time>
      </trkpt>
      <trkpt lat="45.70905" lon="6.27832">
        <ele>1353.5</ele>
        <time>2015-11-03T09:06:52Z</time>
      </trkpt>
      <trkpt lat="45.70905" lon="6.27859">
        <ele>1356.7</ele>
        <time>2015-11-03T09:07:07Z</time>
      </trkpt>
      <trkpt lat="45.70903" lon="6.27872">
        <ele>1358.3</ele>
        <time>2015-11-03T09:07:14Z</time>
      </trkpt>
      <trkpt lat="45.70901" lon="6.27885">
        <ele>1359.3</ele>
        <time>2015-11-03T09:07:21Z</time>
      </trkpt>
      <trkpt lat="45.70898" lon="6.27898">
        <ele>1360.8</ele>
        <time>2015-11-03T09:07:28Z</time>
      </trkpt>
      <trkpt lat="45.70895" lon="6.27912">
        <ele>1362.2</ele>
        <time>2015-11-03T09:07:36Z</time>
      </trkpt>
      <trkpt lat="45.70891" lon="6.27924">
        <ele>1363</ele>
        <time>2015-11-03T09:07:43Z</time>
      </trkpt>
      <trkpt lat="45.70885" lon="6.27936">
        <ele>1364.8</ele>
        <time>2015-11-03T09:07:50Z</time>
      </trkpt>
      <trkpt lat="45.7088" lon="6.27948">
        <ele>1366.2</ele>
        <time>2015-11-03T09:07:58Z</time>
      </trkpt>
      <trkpt lat="45.70873" lon="6.27973">
        <ele>1369.7</ele>
        <time>2015-11-03T09:08:13Z</time>
      </trkpt>
      <trkpt lat="45.70866" lon="6.27985">
        <ele>1370.3</ele>
        <time>2015-11-03T09:08:21Z</time>
      </trkpt>
      <trkpt lat="45.7086" lon="6.27995">
        <ele>1370.8</ele>
        <time>2015-11-03T09:08:27Z</time>
      </trkpt>
      <trkpt lat="45.70852" lon="6.28005">
        <ele>1371.6</ele>
        <time>2015-11-03T09:08:33Z</time>
      </trkpt>
      <trkpt lat="45.70846" lon="6.28017">
        <ele>1372</ele>
        <time>2015-11-03T09:08:39Z</time>
      </trkpt>
      <trkpt lat="45.70838" lon="6.28024">
        <ele>1372.5</ele>
        <time>2015-11-03T09:08:44Z</time>
      </trkpt>
      <trkpt lat="45.7083" lon="6.28031">
        <ele>1373.6</ele>
        <time>2015-11-03T09:08:49Z</time>
      </trkpt>
      <trkpt lat="45.70823" lon="6.2804">
        <ele>1375.2</ele>
        <time>2015-11-03T09:08:55Z</time>
      </trkpt>
      <trkpt lat="45.70816" lon="6.2805">
        <ele>1376.6</ele>
        <time>2015-11-03T09:09:01Z</time>
      </trkpt>
      <trkpt lat="45.70802" lon="6.28071">
        <ele>1378.6</ele>
        <time>2015-11-03T09:09:13Z</time>
      </trkpt>
      <trkpt lat="45.70796" lon="6.28081">
        <ele>1379.3</ele>
        <time>2015-11-03T09:09:18Z</time>
      </trkpt>
      <trkpt lat="45.70791" lon="6.28092">
        <ele>1380.1</ele>
        <time>2015-11-03T09:09:23Z</time>
      </trkpt>
      <trkpt lat="45.70785" lon="6.28102">
        <ele>1381.4</ele>
        <time>2015-11-03T09:09:28Z</time>
      </trkpt>
      <trkpt lat="45.70779" lon="6.28114">
        <ele>1381.3</ele>
        <time>2015-11-03T09:09:33Z</time>
      </trkpt>
      <trkpt lat="45.70773" lon="6.28125">
        <ele>1381.9</ele>
        <time>2015-11-03T09:09:38Z</time>
      </trkpt>
      <trkpt lat="45.70768" lon="6.28137">
        <ele>1382.5</ele>
        <time>2015-11-03T09:09:43Z</time>
      </trkpt>
      <trkpt lat="45.70763" lon="6.2815">
        <ele>1382.7</ele>
        <time>2015-11-03T09:09:48Z</time>
      </trkpt>
      <trkpt lat="45.70761" lon="6.28163">
        <ele>1383.9</ele>
        <time>2015-11-03T09:09:53Z</time>
      </trkpt>
      <trkpt lat="45.70757" lon="6.28176">
        <ele>1384.5</ele>
        <time>2015-11-03T09:09:58Z</time>
      </trkpt>
      <trkpt lat="45.70756" lon="6.2819">
        <ele>1384.4</ele>
        <time>2015-11-03T09:10:03Z</time>
      </trkpt>
      <trkpt lat="45.70757" lon="6.28219">
        <ele>1385</ele>
        <time>2015-11-03T09:10:13Z</time>
      </trkpt>
      <trkpt lat="45.70761" lon="6.28232">
        <ele>1385.2</ele>
        <time>2015-11-03T09:10:18Z</time>
      </trkpt>
      <trkpt lat="45.70765" lon="6.28245">
        <ele>1387</ele>
        <time>2015-11-03T09:10:23Z</time>
      </trkpt>
      <trkpt lat="45.70769" lon="6.28256">
        <ele>1387.7</ele>
        <time>2015-11-03T09:10:29Z</time>
      </trkpt>
      <trkpt lat="45.70776" lon="6.28268">
        <ele>1388.5</ele>
        <time>2015-11-03T09:10:37Z</time>
      </trkpt>
      <trkpt lat="45.70783" lon="6.28277">
        <ele>1389.3</ele>
        <time>2015-11-03T09:10:42Z</time>
      </trkpt>
      <trkpt lat="45.7079" lon="6.28286">
        <ele>1390</ele>
        <time>2015-11-03T09:10:48Z</time>
      </trkpt>
      <trkpt lat="45.70797" lon="6.28296">
        <ele>1390.2</ele>
        <time>2015-11-03T09:10:54Z</time>
      </trkpt>
      <trkpt lat="45.70805" lon="6.28305">
        <ele>1390.8</ele>
        <time>2015-11-03T09:10:59Z</time>
      </trkpt>
      <trkpt lat="45.70811" lon="6.28315">
        <ele>1391.7</ele>
        <time>2015-11-03T09:11:04Z</time>
      </trkpt>
      <trkpt lat="45.70823" lon="6.28336">
        <ele>1393.6</ele>
        <time>2015-11-03T09:11:14Z</time>
      </trkpt>
      <trkpt lat="45.7083" lon="6.28347">
        <ele>1395</ele>
        <time>2015-11-03T09:11:20Z</time>
      </trkpt>
      <trkpt lat="45.70836" lon="6.28357">
        <ele>1395.2</ele>
        <time>2015-11-03T09:11:26Z</time>
      </trkpt>
      <trkpt lat="45.70841" lon="6.28368">
        <ele>1396.3</ele>
        <time>2015-11-03T09:11:32Z</time>
      </trkpt>
      <trkpt lat="45.70843" lon="6.28382">
        <ele>1397.5</ele>
        <time>2015-11-03T09:11:39Z</time>
      </trkpt>
      <trkpt lat="45.7084" lon="6.28396">
        <ele>1399.6</ele>
        <time>2015-11-03T09:11:46Z</time>
      </trkpt>
      <trkpt lat="45.70834" lon="6.28405">
        <ele>1402.2</ele>
        <time>2015-11-03T09:11:53Z</time>
      </trkpt>
      <trkpt lat="45.70826" lon="6.28412">
        <ele>1404.1</ele>
        <time>2015-11-03T09:12:00Z</time>
      </trkpt>
      <trkpt lat="45.70817" lon="6.28417">
        <ele>1406.3</ele>
        <time>2015-11-03T09:12:07Z</time>
      </trkpt>
      <trkpt lat="45.70799" lon="6.28419">
        <ele>1409.4</ele>
        <time>2015-11-03T09:12:23Z</time>
      </trkpt>
      <trkpt lat="45.7079" lon="6.28418">
        <ele>1411.8</ele>
        <time>2015-11-03T09:12:31Z</time>
      </trkpt>
      <trkpt lat="45.7078" lon="6.28417">
        <ele>1413.7</ele>
        <time>2015-11-03T09:12:39Z</time>
      </trkpt>
      <trkpt lat="45.70771" lon="6.28414">
        <ele>1415</ele>
        <time>2015-11-03T09:12:47Z</time>
      </trkpt>
      <trkpt lat="45.70761" lon="6.28411">
        <ele>1415.9</ele>
        <time>2015-11-03T09:12:55Z</time>
      </trkpt>
      <trkpt lat="45.70752" lon="6.28406">
        <ele>1417.6</ele>
        <time>2015-11-03T09:13:03Z</time>
      </trkpt>
      <trkpt lat="45.70743" lon="6.284">
        <ele>1418.6</ele>
        <time>2015-11-03T09:13:11Z</time>
      </trkpt>
      <trkpt lat="45.70726" lon="6.28385">
        <ele>1420.5</ele>
        <time>2015-11-03T09:13:24Z</time>
      </trkpt>
      <trkpt lat="45.70718" lon="6.28377">
        <ele>1419.8</ele>
        <time>2015-11-03T09:13:30Z</time>
      </trkpt>
      <trkpt lat="45.70711" lon="6.28367">
        <ele>1420.8</ele>
        <time>2015-11-03T09:13:36Z</time>
      </trkpt>
      <trkpt lat="45.70704" lon="6.28359">
        <ele>1423.2</ele>
        <time>2015-11-03T09:13:41Z</time>
      </trkpt>
      <trkpt lat="45.70697" lon="6.28349">
        <ele>1423.5</ele>
        <time>2015-11-03T09:13:47Z</time>
      </trkpt>
      <trkpt lat="45.70691" lon="6.28337">
        <ele>1424</ele>
        <time>2015-11-03T09:13:54Z</time>
      </trkpt>
      <trkpt lat="45.70686" lon="6.28325">
        <ele>1426.2</ele>
        <time>2015-11-03T09:14:02Z</time>
      </trkpt>
      <trkpt lat="45.70681" lon="6.28312">
        <ele>1427.9</ele>
        <time>2015-11-03T09:14:10Z</time>
      </trkpt>
      <trkpt lat="45.70674" lon="6.28301">
        <ele>1428.9</ele>
        <time>2015-11-03T09:14:17Z</time>
      </trkpt>
      <trkpt lat="45.70663" lon="6.28278">
        <ele>1431.3</ele>
        <time>2015-11-03T09:14:30Z</time>
      </trkpt>
      <trkpt lat="45.70661" lon="6.28264">
        <ele>1432.6</ele>
        <time>2015-11-03T09:14:37Z</time>
      </trkpt>
      <trkpt lat="45.70659" lon="6.28251">
        <ele>1433.1</ele>
        <time>2015-11-03T09:14:43Z</time>
      </trkpt>
      <trkpt lat="45.70659" lon="6.28237">
        <ele>1433.9</ele>
        <time>2015-11-03T09:14:49Z</time>
      </trkpt>
      <trkpt lat="45.70658" lon="6.28222">
        <ele>1434.4</ele>
        <time>2015-11-03T09:14:55Z</time>
      </trkpt>
      <trkpt lat="45.70656" lon="6.28208">
        <ele>1433.8</ele>
        <time>2015-11-03T09:15:01Z</time>
      </trkpt>
      <trkpt lat="45.70652" lon="6.28195">
        <ele>1433.4</ele>
        <time>2015-11-03T09:15:06Z</time>
      </trkpt>
      <trkpt lat="45.70647" lon="6.28183">
        <ele>1434.9</ele>
        <time>2015-11-03T09:15:11Z</time>
      </trkpt>
      <trkpt lat="45.70643" lon="6.28171">
        <ele>1436</ele>
        <time>2015-11-03T09:15:16Z</time>
      </trkpt>
      <trkpt lat="45.7064" lon="6.28157">
        <ele>1436.5</ele>
        <time>2015-11-03T09:15:22Z</time>
      </trkpt>
      <trkpt lat="45.70636" lon="6.28129">
        <ele>1438.6</ele>
        <time>2015-11-03T09:15:31Z</time>
      </trkpt>
      <trkpt lat="45.70636" lon="6.28116">
        <ele>1439.5</ele>
        <time>2015-11-03T09:15:36Z</time>
      </trkpt>
      <trkpt lat="45.70635" lon="6.28103">
        <ele>1439.7</ele>
        <time>2015-11-03T09:15:41Z</time>
      </trkpt>
      <trkpt lat="45.70635" lon="6.28089">
        <ele>1440.3</ele>
        <time>2015-11-03T09:15:47Z</time>
      </trkpt>
      <trkpt lat="45.70636" lon="6.28075">
        <ele>1441.8</ele>
        <time>2015-11-03T09:15:53Z</time>
      </trkpt>
      <trkpt lat="45.70637" lon="6.28061">
        <ele>1444.1</ele>
        <time>2015-11-03T09:16:00Z</time>
      </trkpt>
      <trkpt lat="45.7064" lon="6.28047">
        <ele>1445.4</ele>
        <time>2015-11-03T09:16:07Z</time>
      </trkpt>
      <trkpt lat="45.70642" lon="6.28034">
        <ele>1446.9</ele>
        <time>2015-11-03T09:16:14Z</time>
      </trkpt>
      <trkpt lat="45.70643" lon="6.28021">
        <ele>1447.9</ele>
        <time>2015-11-03T09:16:22Z</time>
      </trkpt>
      <trkpt lat="45.70646" lon="6.28008">
        <ele>1449.1</ele>
        <time>2015-11-03T09:16:30Z</time>
      </trkpt>
      <trkpt lat="45.70652" lon="6.27981">
        <ele>1453.1</ele>
        <time>2015-11-03T09:16:46Z</time>
      </trkpt>
      <trkpt lat="45.70655" lon="6.27967">
        <ele>1453.7</ele>
        <time>2015-11-03T09:16:54Z</time>
      </trkpt>
      <trkpt lat="45.7066" lon="6.27955">
        <ele>1456.5</ele>
        <time>2015-11-03T09:17:01Z</time>
      </trkpt>
      <trkpt lat="45.70663" lon="6.27942">
        <ele>1459.3</ele>
        <time>2015-11-03T09:17:09Z</time>
      </trkpt>
      <trkpt lat="45.70662" lon="6.27928">
        <ele>1462.2</ele>
        <time>2015-11-03T09:17:18Z</time>
      </trkpt>
      <trkpt lat="45.70654" lon="6.27918">
        <ele>1463.1</ele>
        <time>2015-11-03T09:17:26Z</time>
      </trkpt>
      <trkpt lat="45.70645" lon="6.27914">
        <ele>1463.9</ele>
        <time>2015-11-03T09:17:34Z</time>
      </trkpt>
      <trkpt lat="45.70626" lon="6.27918">
        <ele>1468.4</ele>
        <time>2015-11-03T09:17:51Z</time>
      </trkpt>
      <trkpt lat="45.70617" lon="6.27917">
        <ele>1470.4</ele>
        <time>2015-11-03T09:18:00Z</time>
      </trkpt>
      <trkpt lat="45.70616" lon="6.27904">
        <ele>1473.4</ele>
        <time>2015-11-03T09:18:10Z</time>
      </trkpt>
      <trkpt lat="45.70622" lon="6.27894">
        <ele>1476.2</ele>
        <time>2015-11-03T09:18:20Z</time>
      </trkpt>
      <trkpt lat="45.7063" lon="6.27886">
        <ele>1477</ele>
        <time>2015-11-03T09:18:30Z</time>
      </trkpt>
      <trkpt lat="45.70639" lon="6.2788">
        <ele>1479.9</ele>
        <time>2015-11-03T09:18:41Z</time>
      </trkpt>
      <trkpt lat="45.70655" lon="6.27866">
        <ele>1482.6</ele>
        <time>2015-11-03T09:19:00Z</time>
      </trkpt>
      <trkpt lat="45.70661" lon="6.27854">
        <ele>1483.1</ele>
        <time>2015-11-03T09:19:09Z</time>
      </trkpt>
      <trkpt lat="45.70664" lon="6.27841">
        <ele>1484.2</ele>
        <time>2015-11-03T09:19:17Z</time>
      </trkpt>
      <trkpt lat="45.70666" lon="6.27827">
        <ele>1485.4</ele>
        <time>2015-11-03T09:19:25Z</time>
      </trkpt>
      <trkpt lat="45.70668" lon="6.27814">
        <ele>1485.9</ele>
        <time>2015-11-03T09:19:33Z</time>
      </trkpt>
      <trkpt lat="45.70669" lon="6.278">
        <ele>1487.5</ele>
        <time>2015-11-03T09:19:41Z</time>
      </trkpt>
      <trkpt lat="45.70672" lon="6.27786">
        <ele>1489</ele>
        <time>2015-11-03T09:19:49Z</time>
      </trkpt>
      <trkpt lat="45.70672" lon="6.27759">
        <ele>1491.5</ele>
        <time>2015-11-03T09:20:05Z</time>
      </trkpt>
      <trkpt lat="45.70673" lon="6.27745">
        <ele>1492.7</ele>
        <time>2015-11-03T09:20:13Z</time>
      </trkpt>
      <trkpt lat="45.70674" lon="6.27731">
        <ele>1494.2</ele>
        <time>2015-11-03T09:20:20Z</time>
      </trkpt>
      <trkpt lat="45.70675" lon="6.27717">
        <ele>1495.4</ele>
        <time>2015-11-03T09:20:27Z</time>
      </trkpt>
      <trkpt lat="45.70675" lon="6.27703">
        <ele>1496.3</ele>
        <time>2015-11-03T09:20:35Z</time>
      </trkpt>
      <trkpt lat="45.70675" lon="6.2769">
        <ele>1497.7</ele>
        <time>2015-11-03T09:20:43Z</time>
      </trkpt>
      <trkpt lat="45.70674" lon="6.27675">
        <ele>1498.9</ele>
        <time>2015-11-03T09:20:51Z</time>
      </trkpt>
      <trkpt lat="45.70669" lon="6.27648">
        <ele>1501.9</ele>
        <time>2015-11-03T09:21:06Z</time>
      </trkpt>
      <trkpt lat="45.70667" lon="6.27634">
        <ele>1503.4</ele>
        <time>2015-11-03T09:21:13Z</time>
      </trkpt>
      <trkpt lat="45.70672" lon="6.27623">
        <ele>1504.6</ele>
        <time>2015-11-03T09:21:49Z</time>
      </trkpt>
      <trkpt lat="45.70668" lon="6.27609">
        <ele>1505</ele>
        <time>2015-11-03T09:21:57Z</time>
      </trkpt>
      <trkpt lat="45.7066" lon="6.27583">
        <ele>1508</ele>
        <time>2015-11-03T09:22:17Z</time>
      </trkpt>
      <trkpt lat="45.7066" lon="6.27569">
        <ele>1509.7</ele>
        <time>2015-11-03T09:22:24Z</time>
      </trkpt>
      <trkpt lat="45.7066" lon="6.27554">
        <ele>1511.2</ele>
        <time>2015-11-03T09:22:32Z</time>
      </trkpt>
      <trkpt lat="45.70658" lon="6.27541">
        <ele>1513.5</ele>
        <time>2015-11-03T09:22:41Z</time>
      </trkpt>
      <trkpt lat="45.70655" lon="6.27528">
        <ele>1515.1</ele>
        <time>2015-11-03T09:22:49Z</time>
      </trkpt>
      <trkpt lat="45.70649" lon="6.27517">
        <ele>1515.2</ele>
        <time>2015-11-03T09:22:56Z</time>
      </trkpt>
      <trkpt lat="45.70644" lon="6.27504">
        <ele>1516.9</ele>
        <time>2015-11-03T09:23:04Z</time>
      </trkpt>
      <trkpt lat="45.70634" lon="6.27481">
        <ele>1520.7</ele>
        <time>2015-11-03T09:23:19Z</time>
      </trkpt>
      <trkpt lat="45.70628" lon="6.2747">
        <ele>1522.3</ele>
        <time>2015-11-03T09:23:26Z</time>
      </trkpt>
      <trkpt lat="45.70622" lon="6.2746">
        <ele>1523.5</ele>
        <time>2015-11-03T09:23:48Z</time>
      </trkpt>
      <trkpt lat="45.70614" lon="6.27452">
        <ele>1525.2</ele>
        <time>2015-11-03T09:24:03Z</time>
      </trkpt>
      <trkpt lat="45.70605" lon="6.27446">
        <ele>1528.4</ele>
        <time>2015-11-03T09:24:17Z</time>
      </trkpt>
      <trkpt lat="45.70587" lon="6.27439">
        <ele>1534.7</ele>
        <time>2015-11-03T09:24:48Z</time>
      </trkpt>
      <trkpt lat="45.70578" lon="6.27441">
        <ele>1539.3</ele>
        <time>2015-11-03T09:25:06Z</time>
      </trkpt>
      <trkpt lat="45.70572" lon="6.27451">
        <ele>1541.3</ele>
        <time>2015-11-03T09:25:19Z</time>
      </trkpt>
      <trkpt lat="45.70562" lon="6.27474">
        <ele>1546.4</ele>
        <time>2015-11-03T09:25:44Z</time>
      </trkpt>
      <trkpt lat="45.70559" lon="6.27486">
        <ele>1548.5</ele>
        <time>2015-11-03T09:25:57Z</time>
      </trkpt>
      <trkpt lat="45.70559" lon="6.275">
        <ele>1551.5</ele>
        <time>2015-11-03T09:26:11Z</time>
      </trkpt>
      <trkpt lat="45.70558" lon="6.27513">
        <ele>1552.8</ele>
        <time>2015-11-03T09:26:25Z</time>
      </trkpt>
      <trkpt lat="45.70559" lon="6.2754">
        <ele>1558.5</ele>
        <time>2015-11-03T09:26:54Z</time>
      </trkpt>
      <trkpt lat="45.7055" lon="6.27539">
        <ele>1559.7</ele>
        <time>2015-11-03T09:27:07Z</time>
      </trkpt>
      <trkpt lat="45.70543" lon="6.2753">
        <ele>1561.3</ele>
        <time>2015-11-03T09:27:19Z</time>
      </trkpt>
      <trkpt lat="45.70534" lon="6.27524">
        <ele>1564.2</ele>
        <time>2015-11-03T09:27:34Z</time>
      </trkpt>
      <trkpt lat="45.7052" lon="6.27507">
        <ele>1569.2</ele>
        <time>2015-11-03T09:28:00Z</time>
      </trkpt>
      <trkpt lat="45.70512" lon="6.27501">
        <ele>1571.2</ele>
        <time>2015-11-03T09:28:12Z</time>
      </trkpt>
      <trkpt lat="45.70504" lon="6.27492">
        <ele>1574.3</ele>
        <time>2015-11-03T09:28:24Z</time>
      </trkpt>
      <trkpt lat="45.70497" lon="6.27484">
        <ele>1577.9</ele>
        <time>2015-11-03T09:28:36Z</time>
      </trkpt>
      <trkpt lat="45.70481" lon="6.27469">
        <ele>1581.9</ele>
        <time>2015-11-03T09:29:01Z</time>
      </trkpt>
      <trkpt lat="45.70472" lon="6.27466">
        <ele>1584.6</ele>
        <time>2015-11-03T09:29:17Z</time>
      </trkpt>
      <trkpt lat="45.70465" lon="6.27457">
        <ele>1585.3</ele>
        <time>2015-11-03T09:29:31Z</time>
      </trkpt>
      <trkpt lat="45.70458" lon="6.27447">
        <ele>1588.3</ele>
        <time>2015-11-03T09:29:39Z</time>
      </trkpt>
      <trkpt lat="45.70443" lon="6.27431">
        <ele>1591.8</ele>
        <time>2015-11-03T09:29:57Z</time>
      </trkpt>
      <trkpt lat="45.70435" lon="6.27422">
        <ele>1593.8</ele>
        <time>2015-11-03T09:30:06Z</time>
      </trkpt>
      <trkpt lat="45.70429" lon="6.27413">
        <ele>1595.7</ele>
        <time>2015-11-03T09:30:14Z</time>
      </trkpt>
      <trkpt lat="45.70422" lon="6.27403">
        <ele>1597.3</ele>
        <time>2015-11-03T09:30:22Z</time>
      </trkpt>
      <trkpt lat="45.70416" lon="6.27393">
        <ele>1598.9</ele>
        <time>2015-11-03T09:30:30Z</time>
      </trkpt>
      <trkpt lat="45.7041" lon="6.27382">
        <ele>1598.9</ele>
        <time>2015-11-03T09:30:36Z</time>
      </trkpt>
      <trkpt lat="45.70405" lon="6.27371">
        <ele>1599.3</ele>
        <time>2015-11-03T09:30:41Z</time>
      </trkpt>
      <trkpt lat="45.7039" lon="6.27353">
        <ele>1598.9</ele>
        <time>2015-11-03T09:30:52Z</time>
      </trkpt>
      <trkpt lat="45.70381" lon="6.27347">
        <ele>1599.4</ele>
        <time>2015-11-03T09:30:58Z</time>
      </trkpt>
      <trkpt lat="45.70372" lon="6.27341">
        <ele>1600.7</ele>
        <time>2015-11-03T09:31:05Z</time>
      </trkpt>
      <trkpt lat="45.70367" lon="6.2733">
        <ele>1603.1</ele>
        <time>2015-11-03T09:31:14Z</time>
      </trkpt>
      <trkpt lat="45.70363" lon="6.27318">
        <ele>1604.2</ele>
        <time>2015-11-03T09:31:23Z</time>
      </trkpt>
      <trkpt lat="45.7036" lon="6.27305">
        <ele>1605.8</ele>
        <time>2015-11-03T09:31:32Z</time>
      </trkpt>
      <trkpt lat="45.70356" lon="6.27292">
        <ele>1607.3</ele>
        <time>2015-11-03T09:31:40Z</time>
      </trkpt>
      <trkpt lat="45.70351" lon="6.2728">
        <ele>1609.4</ele>
        <time>2015-11-03T09:31:47Z</time>
      </trkpt>
      <trkpt lat="45.70339" lon="6.27257">
        <ele>1613.2</ele>
        <time>2015-11-03T09:32:04Z</time>
      </trkpt>
      <trkpt lat="45.70336" lon="6.27245">
        <ele>1613.6</ele>
        <time>2015-11-03T09:32:12Z</time>
      </trkpt>
      <trkpt lat="45.70333" lon="6.27232">
        <ele>1615.3</ele>
        <time>2015-11-03T09:32:21Z</time>
      </trkpt>
      <trkpt lat="45.70332" lon="6.27219">
        <ele>1617.2</ele>
        <time>2015-11-03T09:32:29Z</time>
      </trkpt>
      <trkpt lat="45.70322" lon="6.27216">
        <ele>1618.8</ele>
        <time>2015-11-03T09:32:38Z</time>
      </trkpt>
      <trkpt lat="45.7032" lon="6.27229">
        <ele>1621.4</ele>
        <time>2015-11-03T09:32:47Z</time>
      </trkpt>
      <trkpt lat="45.7032" lon="6.27244">
        <ele>1622.2</ele>
        <time>2015-11-03T09:32:55Z</time>
      </trkpt>
      <trkpt lat="45.70316" lon="6.27271">
        <ele>1623.8</ele>
        <time>2015-11-03T09:33:11Z</time>
      </trkpt>
      <trkpt lat="45.70314" lon="6.27284">
        <ele>1625</ele>
        <time>2015-11-03T09:33:19Z</time>
      </trkpt>
      <trkpt lat="45.70314" lon="6.27298">
        <ele>1627.3</ele>
        <time>2015-11-03T09:33:28Z</time>
      </trkpt>
      <trkpt lat="45.70315" lon="6.27312">
        <ele>1630.5</ele>
        <time>2015-11-03T09:33:37Z</time>
      </trkpt>
      <trkpt lat="45.70316" lon="6.27325">
        <ele>1632.7</ele>
        <time>2015-11-03T09:33:46Z</time>
      </trkpt>
      <trkpt lat="45.70316" lon="6.27338">
        <ele>1635.5</ele>
        <time>2015-11-03T09:33:55Z</time>
      </trkpt>
      <trkpt lat="45.70307" lon="6.27334">
        <ele>1637.1</ele>
        <time>2015-11-03T09:34:08Z</time>
      </trkpt>
      <trkpt lat="45.70305" lon="6.27306">
        <ele>1641.9</ele>
        <time>2015-11-03T09:34:31Z</time>
      </trkpt>
      <trkpt lat="45.70301" lon="6.27294">
        <ele>1643</ele>
        <time>2015-11-03T09:34:41Z</time>
      </trkpt>
      <trkpt lat="45.70295" lon="6.27284">
        <ele>1644.6</ele>
        <time>2015-11-03T09:34:49Z</time>
      </trkpt>
      <trkpt lat="45.70288" lon="6.27275">
        <ele>1645.5</ele>
        <time>2015-11-03T09:34:56Z</time>
      </trkpt>
      <trkpt lat="45.7028" lon="6.2727">
        <ele>1647.8</ele>
        <time>2015-11-03T09:35:15Z</time>
      </trkpt>
      <trkpt lat="45.70268" lon="6.27249">
        <ele>1649.8</ele>
        <time>2015-11-03T09:35:37Z</time>
      </trkpt>
      <trkpt lat="45.70261" lon="6.27239">
        <ele>1652.8</ele>
        <time>2015-11-03T09:35:50Z</time>
      </trkpt>
      <trkpt lat="45.70256" lon="6.27227">
        <ele>1656.2</ele>
        <time>2015-11-03T09:36:02Z</time>
      </trkpt>
      <trkpt lat="45.70254" lon="6.27213">
        <ele>1657.6</ele>
        <time>2015-11-03T09:36:15Z</time>
      </trkpt>
      <trkpt lat="45.70252" lon="6.272">
        <ele>1660.8</ele>
        <time>2015-11-03T09:36:28Z</time>
      </trkpt>
      <trkpt lat="45.70246" lon="6.27175">
        <ele>1665</ele>
        <time>2015-11-03T09:36:52Z</time>
      </trkpt>
      <trkpt lat="45.70243" lon="6.27162">
        <ele>1667.3</ele>
        <time>2015-11-03T09:37:03Z</time>
      </trkpt>
      <trkpt lat="45.70241" lon="6.27149">
        <ele>1669.6</ele>
        <time>2015-11-03T09:37:17Z</time>
      </trkpt>
      <trkpt lat="45.70236" lon="6.27138">
        <ele>1671.8</ele>
        <time>2015-11-03T09:37:28Z</time>
      </trkpt>
      <trkpt lat="45.70229" lon="6.27129">
        <ele>1674.2</ele>
        <time>2015-11-03T09:37:40Z</time>
      </trkpt>
      <trkpt lat="45.70219" lon="6.2715">
        <ele>1677.7</ele>
        <time>2015-11-03T09:38:04Z</time>
      </trkpt>
      <trkpt lat="45.70217" lon="6.27163">
        <ele>1680.7</ele>
        <time>2015-11-03T09:38:15Z</time>
      </trkpt>
      <trkpt lat="45.70216" lon="6.27177">
        <ele>1683.6</ele>
        <time>2015-11-03T09:38:25Z</time>
      </trkpt>
      <trkpt lat="45.70214" lon="6.27191">
        <ele>1683.8</ele>
        <time>2015-11-03T09:38:35Z</time>
      </trkpt>
      <trkpt lat="45.70213" lon="6.27204">
        <ele>1685.7</ele>
        <time>2015-11-03T09:38:45Z</time>
      </trkpt>
      <trkpt lat="45.70206" lon="6.27228">
        <ele>1689.9</ele>
        <time>2015-11-03T09:39:08Z</time>
      </trkpt>
      <trkpt lat="45.70198" lon="6.27236">
        <ele>1691.3</ele>
        <time>2015-11-03T09:39:19Z</time>
      </trkpt>
      <trkpt lat="45.70189" lon="6.27233">
        <ele>1693.6</ele>
        <time>2015-11-03T09:39:30Z</time>
      </trkpt>
      <trkpt lat="45.70188" lon="6.27219">
        <ele>1696.1</ele>
        <time>2015-11-03T09:39:47Z</time>
      </trkpt>
      <trkpt lat="45.70187" lon="6.27193">
        <ele>1700.2</ele>
        <time>2015-11-03T09:40:11Z</time>
      </trkpt>
      <trkpt lat="45.70185" lon="6.27179">
        <ele>1702.6</ele>
        <time>2015-11-03T09:40:23Z</time>
      </trkpt>
      <trkpt lat="45.70181" lon="6.27167">
        <ele>1704.9</ele>
        <time>2015-11-03T09:40:34Z</time>
      </trkpt>
      <trkpt lat="45.70176" lon="6.27156">
        <ele>1706.1</ele>
        <time>2015-11-03T09:40:44Z</time>
      </trkpt>
      <trkpt lat="45.70172" lon="6.27144">
        <ele>1709.7</ele>
        <time>2015-11-03T09:40:56Z</time>
      </trkpt>
      <trkpt lat="45.70166" lon="6.27118">
        <ele>1713.5</ele>
        <time>2015-11-03T09:41:22Z</time>
      </trkpt>
      <trkpt lat="45.70161" lon="6.27107">
        <ele>1715.9</ele>
        <time>2015-11-03T09:41:33Z</time>
      </trkpt>
      <trkpt lat="45.70157" lon="6.27094">
        <ele>1718.2</ele>
        <time>2015-11-03T09:41:43Z</time>
      </trkpt>
      <trkpt lat="45.70153" lon="6.27083">
        <ele>1719.5</ele>
        <time>2015-11-03T09:41:55Z</time>
      </trkpt>
      <trkpt lat="45.70144" lon="6.27083">
        <ele>1720.8</ele>
        <time>2015-11-03T09:42:10Z</time>
      </trkpt>
      <trkpt lat="45.70139" lon="6.27108">
        <ele>1724.9</ele>
        <time>2015-11-03T09:42:42Z</time>
      </trkpt>
      <trkpt lat="45.70139" lon="6.27121">
        <ele>1725</ele>
        <time>2015-11-03T09:42:50Z</time>
      </trkpt>
      <trkpt lat="45.70136" lon="6.27135">
        <ele>1727.5</ele>
        <time>2015-11-03T09:42:59Z</time>
      </trkpt>
      <trkpt lat="45.70133" lon="6.27149">
        <ele>1729.7</ele>
        <time>2015-11-03T09:43:07Z</time>
      </trkpt>
      <trkpt lat="45.70129" lon="6.27161">
        <ele>1730.5</ele>
        <time>2015-11-03T09:43:14Z</time>
      </trkpt>
      <trkpt lat="45.70126" lon="6.27188">
        <ele>1732.7</ele>
        <time>2015-11-03T09:43:30Z</time>
      </trkpt>
      <trkpt lat="45.70124" lon="6.27202">
        <ele>1734.9</ele>
        <time>2015-11-03T09:43:38Z</time>
      </trkpt>
      <trkpt lat="45.70119" lon="6.27214">
        <ele>1735.1</ele>
        <time>2015-11-03T09:43:45Z</time>
      </trkpt>
      <trkpt lat="45.70114" lon="6.27225">
        <ele>1735.8</ele>
        <time>2015-11-03T09:43:53Z</time>
      </trkpt>
      <trkpt lat="45.70109" lon="6.27236">
        <ele>1737.2</ele>
        <time>2015-11-03T09:44:03Z</time>
      </trkpt>
      <trkpt lat="45.70106" lon="6.2725">
        <ele>1739.3</ele>
        <time>2015-11-03T09:44:12Z</time>
      </trkpt>
      <trkpt lat="45.70101" lon="6.27262">
        <ele>1740</ele>
        <time>2015-11-03T09:44:21Z</time>
      </trkpt>
      <trkpt lat="45.70088" lon="6.27283">
        <ele>1742.6</ele>
        <time>2015-11-03T09:44:37Z</time>
      </trkpt>
      <trkpt lat="45.70083" lon="6.27294">
        <ele>1746.7</ele>
        <time>2015-11-03T09:45:13Z</time>
      </trkpt>
      <trkpt lat="45.70085" lon="6.27307">
        <ele>1749.1</ele>
        <time>2015-11-03T09:45:26Z</time>
      </trkpt>
      <trkpt lat="45.70076" lon="6.27331">
        <ele>1753.3</ele>
        <time>2015-11-03T09:45:49Z</time>
      </trkpt>
      <trkpt lat="45.70075" lon="6.27345">
        <ele>1755.9</ele>
        <time>2015-11-03T09:46:02Z</time>
      </trkpt>
      <trkpt lat="45.70078" lon="6.27357">
        <ele>1758.6</ele>
        <time>2015-11-03T09:46:14Z</time>
      </trkpt>
      <trkpt lat="45.70078" lon="6.27371">
        <ele>1760.5</ele>
        <time>2015-11-03T09:46:27Z</time>
      </trkpt>
      <trkpt lat="45.70061" lon="6.27372">
        <ele>1763.8</ele>
        <time>2015-11-03T09:46:47Z</time>
      </trkpt>
      <trkpt lat="45.70059" lon="6.27359">
        <ele>1765.5</ele>
        <time>2015-11-03T09:47:00Z</time>
      </trkpt>
      <trkpt lat="45.70055" lon="6.27346">
        <ele>1767</ele>
        <time>2015-11-03T09:47:11Z</time>
      </trkpt>
      <trkpt lat="45.70051" lon="6.27335">
        <ele>1768.7</ele>
        <time>2015-11-03T09:47:21Z</time>
      </trkpt>
      <trkpt lat="45.70046" lon="6.27323">
        <ele>1771.8</ele>
        <time>2015-11-03T09:47:35Z</time>
      </trkpt>
      <trkpt lat="45.7004" lon="6.27296">
        <ele>1773.8</ele>
        <time>2015-11-03T09:47:51Z</time>
      </trkpt>
      <trkpt lat="45.7004" lon="6.27282">
        <ele>1775.4</ele>
        <time>2015-11-03T09:48:00Z</time>
      </trkpt>
      <trkpt lat="45.70036" lon="6.27271">
        <ele>1778.7</ele>
        <time>2015-11-03T09:48:08Z</time>
      </trkpt>
      <trkpt lat="45.7003" lon="6.27259">
        <ele>1780.5</ele>
        <time>2015-11-03T09:48:17Z</time>
      </trkpt>
      <trkpt lat="45.70026" lon="6.27246">
        <ele>1782.4</ele>
        <time>2015-11-03T09:48:25Z</time>
      </trkpt>
      <trkpt lat="45.70021" lon="6.27232">
        <ele>1782.3</ele>
        <time>2015-11-03T09:48:31Z</time>
      </trkpt>
      <trkpt lat="45.70018" lon="6.27219">
        <ele>1783.1</ele>
        <time>2015-11-03T09:48:37Z</time>
      </trkpt>
      <trkpt lat="45.70011" lon="6.27193">
        <ele>1783.5</ele>
        <time>2015-11-03T09:48:51Z</time>
      </trkpt>
      <trkpt lat="45.70008" lon="6.2718">
        <ele>1785</ele>
        <time>2015-11-03T09:48:58Z</time>
      </trkpt>
      <trkpt lat="45.70008" lon="6.27167">
        <ele>1786.3</ele>
        <time>2015-11-03T09:49:07Z</time>
      </trkpt>
      <trkpt lat="45.70006" lon="6.27153">
        <ele>1788.5</ele>
        <time>2015-11-03T09:49:16Z</time>
      </trkpt>
      <trkpt lat="45.70008" lon="6.2714">
        <ele>1790.7</ele>
        <time>2015-11-03T09:49:26Z</time>
      </trkpt>
      <trkpt lat="45.69998" lon="6.27135">
        <ele>1792.7</ele>
        <time>2015-11-03T09:49:35Z</time>
      </trkpt>
      <trkpt lat="45.6999" lon="6.27144">
        <ele>1793.9</ele>
        <time>2015-11-03T09:49:44Z</time>
      </trkpt>
      <trkpt lat="45.69985" lon="6.27171">
        <ele>1798.3</ele>
        <time>2015-11-03T09:50:16Z</time>
      </trkpt>
      <trkpt lat="45.69983" lon="6.27184">
        <ele>1800.6</ele>
        <time>2015-11-03T09:50:29Z</time>
      </trkpt>
      <trkpt lat="45.69981" lon="6.27198">
        <ele>1803.5</ele>
        <time>2015-11-03T09:50:42Z</time>
      </trkpt>
      <trkpt lat="45.69979" lon="6.27211">
        <ele>1805.5</ele>
        <time>2015-11-03T09:50:55Z</time>
      </trkpt>
      <trkpt lat="45.69975" lon="6.27237">
        <ele>1810.9</ele>
        <time>2015-11-03T09:51:21Z</time>
      </trkpt>
      <trkpt lat="45.6997" lon="6.27249">
        <ele>1813.5</ele>
        <time>2015-11-03T09:51:34Z</time>
      </trkpt>
      <trkpt lat="45.69965" lon="6.27261">
        <ele>1815.7</ele>
        <time>2015-11-03T09:51:46Z</time>
      </trkpt>
      <trkpt lat="45.69959" lon="6.27272">
        <ele>1817.4</ele>
        <time>2015-11-03T09:51:57Z</time>
      </trkpt>
      <trkpt lat="45.69944" lon="6.27281">
        <ele>1822.7</ele>
        <time>2015-11-03T09:52:26Z</time>
      </trkpt>
      <trkpt lat="45.69936" lon="6.27274">
        <ele>1824</ele>
        <time>2015-11-03T09:52:40Z</time>
      </trkpt>
      <trkpt lat="45.69929" lon="6.27267">
        <ele>1826.1</ele>
        <time>2015-11-03T09:52:52Z</time>
      </trkpt>
      <trkpt lat="45.69925" lon="6.27254">
        <ele>1829.4</ele>
        <time>2015-11-03T09:53:09Z</time>
      </trkpt>
      <trkpt lat="45.6992" lon="6.27229">
        <ele>1835.1</ele>
        <time>2015-11-03T09:53:36Z</time>
      </trkpt>
      <trkpt lat="45.69917" lon="6.27216">
        <ele>1837.9</ele>
        <time>2015-11-03T09:53:49Z</time>
      </trkpt>
      <trkpt lat="45.69914" lon="6.27203">
        <ele>1839.9</ele>
        <time>2015-11-03T09:54:00Z</time>
      </trkpt>
      <trkpt lat="45.69912" lon="6.2719">
        <ele>1842</ele>
        <time>2015-11-03T09:54:14Z</time>
      </trkpt>
      <trkpt lat="45.69898" lon="6.27171">
        <ele>1846.6</ele>
        <time>2015-11-03T09:54:35Z</time>
      </trkpt>
      <trkpt lat="45.69891" lon="6.27163">
        <ele>1849.4</ele>
        <time>2015-11-03T09:54:45Z</time>
      </trkpt>
      <trkpt lat="45.69883" lon="6.27155">
        <ele>1850.4</ele>
        <time>2015-11-03T09:54:55Z</time>
      </trkpt>
      <trkpt lat="45.6988" lon="6.27142">
        <ele>1853.2</ele>
        <time>2015-11-03T09:55:07Z</time>
      </trkpt>
      <trkpt lat="45.69878" lon="6.27129">
        <ele>1855.3</ele>
        <time>2015-11-03T09:55:21Z</time>
      </trkpt>
      <trkpt lat="45.69867" lon="6.27108">
        <ele>1861.5</ele>
        <time>2015-11-03T09:55:46Z</time>
      </trkpt>
      <trkpt lat="45.6986" lon="6.27115">
        <ele>1863.3</ele>
        <time>2015-11-03T09:56:01Z</time>
      </trkpt>
      <trkpt lat="45.69855" lon="6.27127">
        <ele>1865.9</ele>
        <time>2015-11-03T09:56:16Z</time>
      </trkpt>
      <trkpt lat="45.69857" lon="6.2714">
        <ele>1868.8</ele>
        <time>2015-11-03T09:56:32Z</time>
      </trkpt>
      <trkpt lat="45.69838" lon="6.27148">
        <ele>1872.4</ele>
        <time>2015-11-03T09:56:57Z</time>
      </trkpt>
      <trkpt lat="45.69831" lon="6.27156">
        <ele>1874</ele>
        <time>2015-11-03T09:57:06Z</time>
      </trkpt>
      <trkpt lat="45.69823" lon="6.2716">
        <ele>1874.3</ele>
        <time>2015-11-03T09:57:47Z</time>
      </trkpt>
      <trkpt lat="45.69793" lon="6.27159">
        <ele>1876.1</ele>
        <time>2015-11-03T10:01:48Z</time>
      </trkpt>
      <trkpt lat="45.69782" lon="6.27157">
        <ele>1875.8</ele>
        <time>2015-11-03T10:01:51Z</time>
      </trkpt>
      <trkpt lat="45.69773" lon="6.27161">
        <ele>1875.6</ele>
        <time>2015-11-03T10:01:56Z</time>
      </trkpt>
      <trkpt lat="45.69763" lon="6.27162">
        <ele>1876.1</ele>
        <time>2015-11-03T10:02:00Z</time>
      </trkpt>
      <trkpt lat="45.69751" lon="6.27162">
        <ele>1875.4</ele>
        <time>2015-11-03T10:02:04Z</time>
      </trkpt>
      <trkpt lat="45.6974" lon="6.27166">
        <ele>1873.4</ele>
        <time>2015-11-03T10:02:08Z</time>
      </trkpt>
      <trkpt lat="45.69729" lon="6.27171">
        <ele>1871.2</ele>
        <time>2015-11-03T10:02:12Z</time>
      </trkpt>
      <trkpt lat="45.69726" lon="6.27184">
        <ele>1868.8</ele>
        <time>2015-11-03T10:02:16Z</time>
      </trkpt>
      <trkpt lat="45.69729" lon="6.27196">
        <ele>1867.3</ele>
        <time>2015-11-03T10:02:19Z</time>
      </trkpt>
      <trkpt lat="45.6973" lon="6.2721">
        <ele>1864.2</ele>
        <time>2015-11-03T10:02:23Z</time>
      </trkpt>
      <trkpt lat="45.6972" lon="6.27218">
        <ele>1861.1</ele>
        <time>2015-11-03T10:02:27Z</time>
      </trkpt>
      <trkpt lat="45.69709" lon="6.27226">
        <ele>1859.4</ele>
        <time>2015-11-03T10:02:30Z</time>
      </trkpt>
      <trkpt lat="45.69698" lon="6.27234">
        <ele>1857.8</ele>
        <time>2015-11-03T10:02:33Z</time>
      </trkpt>
      <trkpt lat="45.69689" lon="6.27239">
        <ele>1856</ele>
        <time>2015-11-03T10:02:35Z</time>
      </trkpt>
      <trkpt lat="45.6968" lon="6.27252">
        <ele>1853.6</ele>
        <time>2015-11-03T10:02:38Z</time>
      </trkpt>
      <trkpt lat="45.69677" lon="6.2728">
        <ele>1847.5</ele>
        <time>2015-11-03T10:02:47Z</time>
      </trkpt>
      <trkpt lat="45.69677" lon="6.27296">
        <ele>1845.7</ele>
        <time>2015-11-03T10:02:51Z</time>
      </trkpt>
      <trkpt lat="45.69677" lon="6.27309">
        <ele>1842.8</ele>
        <time>2015-11-03T10:02:55Z</time>
      </trkpt>
      <trkpt lat="45.69673" lon="6.27323">
        <ele>1839.5</ele>
        <time>2015-11-03T10:03:00Z</time>
      </trkpt>
      <trkpt lat="45.69667" lon="6.27333">
        <ele>1837.3</ele>
        <time>2015-11-03T10:03:04Z</time>
      </trkpt>
      <trkpt lat="45.69665" lon="6.27347">
        <ele>1835.4</ele>
        <time>2015-11-03T10:03:08Z</time>
      </trkpt>
      <trkpt lat="45.69661" lon="6.27362">
        <ele>1833</ele>
        <time>2015-11-03T10:03:13Z</time>
      </trkpt>
      <trkpt lat="45.69655" lon="6.27371">
        <ele>1831.2</ele>
        <time>2015-11-03T10:03:17Z</time>
      </trkpt>
      <trkpt lat="45.69661" lon="6.27361">
        <ele>1830.7</ele>
        <time>2015-11-03T10:03:44Z</time>
      </trkpt>
      <trkpt lat="45.69683" lon="6.27355">
        <ele>1832.9</ele>
        <time>2015-11-03T10:03:59Z</time>
      </trkpt>
      <trkpt lat="45.69692" lon="6.2736">
        <ele>1831.4</ele>
        <time>2015-11-03T10:04:02Z</time>
      </trkpt>
      <trkpt lat="45.6969" lon="6.27373">
        <ele>1828.9</ele>
        <time>2015-11-03T10:04:06Z</time>
      </trkpt>
      <trkpt lat="45.69683" lon="6.27381">
        <ele>1826.8</ele>
        <time>2015-11-03T10:04:09Z</time>
      </trkpt>
      <trkpt lat="45.69679" lon="6.27394">
        <ele>1824.8</ele>
        <time>2015-11-03T10:04:11Z</time>
      </trkpt>
      <trkpt lat="45.69678" lon="6.27411">
        <ele>1823</ele>
        <time>2015-11-03T10:04:13Z</time>
      </trkpt>
      <trkpt lat="45.69678" lon="6.27426">
        <ele>1821.2</ele>
        <time>2015-11-03T10:04:15Z</time>
      </trkpt>
      <trkpt lat="45.69676" lon="6.27441">
        <ele>1819.9</ele>
        <time>2015-11-03T10:04:17Z</time>
      </trkpt>
      <trkpt lat="45.69679" lon="6.2746">
        <ele>1816.8</ele>
        <time>2015-11-03T10:04:20Z</time>
      </trkpt>
      <trkpt lat="45.69685" lon="6.27474">
        <ele>1814.7</ele>
        <time>2015-11-03T10:04:22Z</time>
      </trkpt>
      <trkpt lat="45.6969" lon="6.27491">
        <ele>1812.9</ele>
        <time>2015-11-03T10:04:24Z</time>
      </trkpt>
      <trkpt lat="45.69695" lon="6.27507">
        <ele>1811.2</ele>
        <time>2015-11-03T10:04:26Z</time>
      </trkpt>
      <trkpt lat="45.69701" lon="6.27521">
        <ele>1809.6</ele>
        <time>2015-11-03T10:04:28Z</time>
      </trkpt>
      <trkpt lat="45.69706" lon="6.27535">
        <ele>1809.1</ele>
        <time>2015-11-03T10:04:30Z</time>
      </trkpt>
      <trkpt lat="45.6971" lon="6.27548">
        <ele>1808.1</ele>
        <time>2015-11-03T10:04:32Z</time>
      </trkpt>
      <trkpt lat="45.69716" lon="6.27564">
        <ele>1806</ele>
        <time>2015-11-03T10:04:35Z</time>
      </trkpt>
      <trkpt lat="45.69717" lon="6.27582">
        <ele>1802.5</ele>
        <time>2015-11-03T10:04:38Z</time>
      </trkpt>
      <trkpt lat="45.69713" lon="6.27599">
        <ele>1801</ele>
        <time>2015-11-03T10:04:40Z</time>
      </trkpt>
      <trkpt lat="45.69713" lon="6.27612">
        <ele>1799.3</ele>
        <time>2015-11-03T10:04:42Z</time>
      </trkpt>
      <trkpt lat="45.69704" lon="6.27617">
        <ele>1796.4</ele>
        <time>2015-11-03T10:04:47Z</time>
      </trkpt>
      <trkpt lat="45.69688" lon="6.27593">
        <ele>1791.6</ele>
        <time>2015-11-03T10:04:55Z</time>
      </trkpt>
      <trkpt lat="45.69678" lon="6.27592">
        <ele>1789.3</ele>
        <time>2015-11-03T10:04:58Z</time>
      </trkpt>
      <trkpt lat="45.69674" lon="6.27606">
        <ele>1787.5</ele>
        <time>2015-11-03T10:05:01Z</time>
      </trkpt>
      <trkpt lat="45.69673" lon="6.2762">
        <ele>1785.6</ele>
        <time>2015-11-03T10:05:04Z</time>
      </trkpt>
      <trkpt lat="45.69671" lon="6.27632">
        <ele>1783</ele>
        <time>2015-11-03T10:05:07Z</time>
      </trkpt>
      <trkpt lat="45.69672" lon="6.27648">
        <ele>1780.7</ele>
        <time>2015-11-03T10:05:10Z</time>
      </trkpt>
      <trkpt lat="45.69675" lon="6.27662">
        <ele>1778.7</ele>
        <time>2015-11-03T10:05:12Z</time>
      </trkpt>
      <trkpt lat="45.69678" lon="6.27677">
        <ele>1776.9</ele>
        <time>2015-11-03T10:05:14Z</time>
      </trkpt>
      <trkpt lat="45.69678" lon="6.27695">
        <ele>1774.7</ele>
        <time>2015-11-03T10:05:16Z</time>
      </trkpt>
      <trkpt lat="45.6968" lon="6.27712">
        <ele>1772.7</ele>
        <time>2015-11-03T10:05:18Z</time>
      </trkpt>
      <trkpt lat="45.69685" lon="6.27727">
        <ele>1771.2</ele>
        <time>2015-11-03T10:05:20Z</time>
      </trkpt>
      <trkpt lat="45.69691" lon="6.27744">
        <ele>1769.8</ele>
        <time>2015-11-03T10:05:22Z</time>
      </trkpt>
      <trkpt lat="45.69695" lon="6.27763">
        <ele>1768.7</ele>
        <time>2015-11-03T10:05:24Z</time>
      </trkpt>
      <trkpt lat="45.69694" lon="6.27782">
        <ele>1767.7</ele>
        <time>2015-11-03T10:05:26Z</time>
      </trkpt>
      <trkpt lat="45.69696" lon="6.27797">
        <ele>1766.8</ele>
        <time>2015-11-03T10:05:28Z</time>
      </trkpt>
      <trkpt lat="45.69698" lon="6.27811">
        <ele>1765.9</ele>
        <time>2015-11-03T10:05:30Z</time>
      </trkpt>
      <trkpt lat="45.69697" lon="6.27828">
        <ele>1763.5</ele>
        <time>2015-11-03T10:05:33Z</time>
      </trkpt>
      <trkpt lat="45.69695" lon="6.27841">
        <ele>1762.6</ele>
        <time>2015-11-03T10:05:36Z</time>
      </trkpt>
      <trkpt lat="45.69693" lon="6.27856">
        <ele>1762.4</ele>
        <time>2015-11-03T10:05:40Z</time>
      </trkpt>
      <trkpt lat="45.69685" lon="6.27867">
        <ele>1762.8</ele>
        <time>2015-11-03T10:05:44Z</time>
      </trkpt>
      <trkpt lat="45.69675" lon="6.27873">
        <ele>1763.1</ele>
        <time>2015-11-03T10:05:48Z</time>
      </trkpt>
      <trkpt lat="45.69665" lon="6.27878">
        <ele>1763.6</ele>
        <time>2015-11-03T10:05:52Z</time>
      </trkpt>
      <trkpt lat="45.69653" lon="6.27901">
        <ele>1762.5</ele>
        <time>2015-11-03T10:05:57Z</time>
      </trkpt>
      <trkpt lat="45.69654" lon="6.27919">
        <ele>1760.7</ele>
        <time>2015-11-03T10:06:00Z</time>
      </trkpt>
      <trkpt lat="45.69658" lon="6.27931">
        <ele>1759.5</ele>
        <time>2015-11-03T10:06:02Z</time>
      </trkpt>
      <trkpt lat="45.69665" lon="6.27943">
        <ele>1757.2</ele>
        <time>2015-11-03T10:06:05Z</time>
      </trkpt>
      <trkpt lat="45.69676" lon="6.27952">
        <ele>1754.8</ele>
        <time>2015-11-03T10:06:08Z</time>
      </trkpt>
      <trkpt lat="45.69683" lon="6.2796">
        <ele>1753.1</ele>
        <time>2015-11-03T10:06:10Z</time>
      </trkpt>
      <trkpt lat="45.69694" lon="6.27965">
        <ele>1749.3</ele>
        <time>2015-11-03T10:06:17Z</time>
      </trkpt>
      <trkpt lat="45.69704" lon="6.27967">
        <ele>1748.3</ele>
        <time>2015-11-03T10:06:20Z</time>
      </trkpt>
      <trkpt lat="45.69704" lon="6.27982">
        <ele>1743.8</ele>
        <time>2015-11-03T10:06:26Z</time>
      </trkpt>
      <trkpt lat="45.69695" lon="6.2799">
        <ele>1742.1</ele>
        <time>2015-11-03T10:06:29Z</time>
      </trkpt>
      <trkpt lat="45.69686" lon="6.27996">
        <ele>1740.1</ele>
        <time>2015-11-03T10:06:32Z</time>
      </trkpt>
      <trkpt lat="45.69675" lon="6.28003">
        <ele>1737.9</ele>
        <time>2015-11-03T10:06:37Z</time>
      </trkpt>
      <trkpt lat="45.69664" lon="6.28009">
        <ele>1736.7</ele>
        <time>2015-11-03T10:06:41Z</time>
      </trkpt>
      <trkpt lat="45.69654" lon="6.28011">
        <ele>1735.5</ele>
        <time>2015-11-03T10:06:46Z</time>
      </trkpt>
      <trkpt lat="45.69642" lon="6.28016">
        <ele>1733</ele>
        <time>2015-11-03T10:06:50Z</time>
      </trkpt>
      <trkpt lat="45.69634" lon="6.28029">
        <ele>1731.4</ele>
        <time>2015-11-03T10:06:53Z</time>
      </trkpt>
      <trkpt lat="45.69621" lon="6.28052">
        <ele>1727.9</ele>
        <time>2015-11-03T10:06:58Z</time>
      </trkpt>
      <trkpt lat="45.69612" lon="6.28065">
        <ele>1726.3</ele>
        <time>2015-11-03T10:07:00Z</time>
      </trkpt>
      <trkpt lat="45.69603" lon="6.28078">
        <ele>1724</ele>
        <time>2015-11-03T10:07:02Z</time>
      </trkpt>
      <trkpt lat="45.69594" lon="6.2809">
        <ele>1723</ele>
        <time>2015-11-03T10:07:04Z</time>
      </trkpt>
      <trkpt lat="45.69586" lon="6.28104">
        <ele>1722.5</ele>
        <time>2015-11-03T10:07:06Z</time>
      </trkpt>
      <trkpt lat="45.6958" lon="6.28118">
        <ele>1722.2</ele>
        <time>2015-11-03T10:07:08Z</time>
      </trkpt>
      <trkpt lat="45.69574" lon="6.2813">
        <ele>1722.2</ele>
        <time>2015-11-03T10:07:10Z</time>
      </trkpt>
      <trkpt lat="45.69569" lon="6.28143">
        <ele>1723.4</ele>
        <time>2015-11-03T10:07:15Z</time>
      </trkpt>
      <trkpt lat="45.69564" lon="6.28156">
        <ele>1725</ele>
        <time>2015-11-03T10:07:20Z</time>
      </trkpt>
      <trkpt lat="45.6956" lon="6.28169">
        <ele>1727.8</ele>
        <time>2015-11-03T10:07:26Z</time>
      </trkpt>
      <trkpt lat="45.69554" lon="6.28179">
        <ele>1729.6</ele>
        <time>2015-11-03T10:07:34Z</time>
      </trkpt>
      <trkpt lat="45.69546" lon="6.28187">
        <ele>1730.3</ele>
        <time>2015-11-03T10:07:42Z</time>
      </trkpt>
      <trkpt lat="45.69537" lon="6.28193">
        <ele>1732.1</ele>
        <time>2015-11-03T10:07:51Z</time>
      </trkpt>
      <trkpt lat="45.69529" lon="6.282">
        <ele>1734.3</ele>
        <time>2015-11-03T10:08:00Z</time>
      </trkpt>
      <trkpt lat="45.69514" lon="6.28215">
        <ele>1738.9</ele>
        <time>2015-11-03T10:08:44Z</time>
      </trkpt>
      <trkpt lat="45.69508" lon="6.28225">
        <ele>1740.8</ele>
        <time>2015-11-03T10:08:57Z</time>
      </trkpt>
      <trkpt lat="45.695" lon="6.28232">
        <ele>1741.8</ele>
        <time>2015-11-03T10:09:03Z</time>
      </trkpt>
      <trkpt lat="45.69482" lon="6.28243">
        <ele>1742.3</ele>
        <time>2015-11-03T10:09:13Z</time>
      </trkpt>
      <trkpt lat="45.69472" lon="6.28246">
        <ele>1743.1</ele>
        <time>2015-11-03T10:09:18Z</time>
      </trkpt>
      <trkpt lat="45.69463" lon="6.28246">
        <ele>1744.4</ele>
        <time>2015-11-03T10:09:23Z</time>
      </trkpt>
      <trkpt lat="45.69454" lon="6.28245">
        <ele>1744.8</ele>
        <time>2015-11-03T10:09:28Z</time>
      </trkpt>
      <trkpt lat="45.69445" lon="6.28244">
        <ele>1745.3</ele>
        <time>2015-11-03T10:09:33Z</time>
      </trkpt>
      <trkpt lat="45.69435" lon="6.28243">
        <ele>1746.5</ele>
        <time>2015-11-03T10:09:39Z</time>
      </trkpt>
      <trkpt lat="45.69426" lon="6.28239">
        <ele>1747.6</ele>
        <time>2015-11-03T10:09:44Z</time>
      </trkpt>
      <trkpt lat="45.69417" lon="6.28232">
        <ele>1748.3</ele>
        <time>2015-11-03T10:09:50Z</time>
      </trkpt>
      <trkpt lat="45.6941" lon="6.28225">
        <ele>1751.7</ele>
        <time>2015-11-03T10:10:01Z</time>
      </trkpt>
      <trkpt lat="45.69407" lon="6.28212">
        <ele>1752.8</ele>
        <time>2015-11-03T10:10:20Z</time>
      </trkpt>
      <trkpt lat="45.69415" lon="6.28187">
        <ele>1758</ele>
        <time>2015-11-03T10:10:40Z</time>
      </trkpt>
      <trkpt lat="45.69424" lon="6.28185">
        <ele>1760</ele>
        <time>2015-11-03T10:12:43Z</time>
      </trkpt>
      <trkpt lat="45.69414" lon="6.28192">
        <ele>1759.3</ele>
        <time>2015-11-03T10:15:14Z</time>
      </trkpt>
      <trkpt lat="45.69394" lon="6.28201">
        <ele>1754.9</ele>
        <time>2015-11-03T10:15:27Z</time>
      </trkpt>
      <trkpt lat="45.69383" lon="6.28197">
        <ele>1754.4</ele>
        <time>2015-11-03T10:15:31Z</time>
      </trkpt>
      <trkpt lat="45.69383" lon="6.28213">
        <ele>1752.9</ele>
        <time>2015-11-03T10:15:36Z</time>
      </trkpt>
      <trkpt lat="45.69387" lon="6.28229">
        <ele>1749.7</ele>
        <time>2015-11-03T10:15:43Z</time>
      </trkpt>
      <trkpt lat="45.6939" lon="6.28244">
        <ele>1747.9</ele>
        <time>2015-11-03T10:15:46Z</time>
      </trkpt>
      <trkpt lat="45.69393" lon="6.28259">
        <ele>1745.2</ele>
        <time>2015-11-03T10:15:49Z</time>
      </trkpt>
      <trkpt lat="45.69397" lon="6.28273">
        <ele>1742.6</ele>
        <time>2015-11-03T10:15:52Z</time>
      </trkpt>
      <trkpt lat="45.69401" lon="6.28287">
        <ele>1739.7</ele>
        <time>2015-11-03T10:15:55Z</time>
      </trkpt>
      <trkpt lat="45.69392" lon="6.28295">
        <ele>1735.8</ele>
        <time>2015-11-03T10:16:01Z</time>
      </trkpt>
      <trkpt lat="45.69382" lon="6.28294">
        <ele>1734.5</ele>
        <time>2015-11-03T10:16:03Z</time>
      </trkpt>
      <trkpt lat="45.69372" lon="6.28293">
        <ele>1733.4</ele>
        <time>2015-11-03T10:16:05Z</time>
      </trkpt>
      <trkpt lat="45.6936" lon="6.28288">
        <ele>1730.7</ele>
        <time>2015-11-03T10:16:08Z</time>
      </trkpt>
      <trkpt lat="45.69352" lon="6.28276">
        <ele>1727.7</ele>
        <time>2015-11-03T10:16:11Z</time>
      </trkpt>
      <trkpt lat="45.69348" lon="6.28257">
        <ele>1725.2</ele>
        <time>2015-11-03T10:16:14Z</time>
      </trkpt>
      <trkpt lat="45.69344" lon="6.28242">
        <ele>1723.4</ele>
        <time>2015-11-03T10:16:17Z</time>
      </trkpt>
      <trkpt lat="45.69336" lon="6.28217">
        <ele>1719.3</ele>
        <time>2015-11-03T10:16:22Z</time>
      </trkpt>
      <trkpt lat="45.69333" lon="6.28201">
        <ele>1717</ele>
        <time>2015-11-03T10:16:25Z</time>
      </trkpt>
      <trkpt lat="45.69328" lon="6.2819">
        <ele>1714</ele>
        <time>2015-11-03T10:16:39Z</time>
      </trkpt>
      <trkpt lat="45.69324" lon="6.28175">
        <ele>1712.2</ele>
        <time>2015-11-03T10:16:43Z</time>
      </trkpt>
      <trkpt lat="45.69321" lon="6.2816">
        <ele>1710.6</ele>
        <time>2015-11-03T10:16:49Z</time>
      </trkpt>
      <trkpt lat="45.69317" lon="6.28144">
        <ele>1709.5</ele>
        <time>2015-11-03T10:16:53Z</time>
      </trkpt>
      <trkpt lat="45.69313" lon="6.2813">
        <ele>1709.2</ele>
        <time>2015-11-03T10:16:56Z</time>
      </trkpt>
      <trkpt lat="45.69311" lon="6.28113">
        <ele>1709.2</ele>
        <time>2015-11-03T10:17:00Z</time>
      </trkpt>
      <trkpt lat="45.69308" lon="6.281">
        <ele>1709.9</ele>
        <time>2015-11-03T10:17:03Z</time>
      </trkpt>
      <trkpt lat="45.69306" lon="6.28086">
        <ele>1708.8</ele>
        <time>2015-11-03T10:17:06Z</time>
      </trkpt>
      <trkpt lat="45.69304" lon="6.28069">
        <ele>1708.5</ele>
        <time>2015-11-03T10:17:09Z</time>
      </trkpt>
      <trkpt lat="45.69302" lon="6.28053">
        <ele>1707.3</ele>
        <time>2015-11-03T10:17:12Z</time>
      </trkpt>
      <trkpt lat="45.69299" lon="6.28036">
        <ele>1706.4</ele>
        <time>2015-11-03T10:17:15Z</time>
      </trkpt>
      <trkpt lat="45.69299" lon="6.28019">
        <ele>1703.8</ele>
        <time>2015-11-03T10:17:18Z</time>
      </trkpt>
      <trkpt lat="45.69289" lon="6.27987">
        <ele>1701.7</ele>
        <time>2015-11-03T10:17:24Z</time>
      </trkpt>
      <trkpt lat="45.69287" lon="6.27972">
        <ele>1700.8</ele>
        <time>2015-11-03T10:17:27Z</time>
      </trkpt>
      <trkpt lat="45.69281" lon="6.27958">
        <ele>1700.8</ele>
        <time>2015-11-03T10:17:31Z</time>
      </trkpt>
      <trkpt lat="45.69275" lon="6.27944">
        <ele>1700.1</ele>
        <time>2015-11-03T10:17:34Z</time>
      </trkpt>
      <trkpt lat="45.69268" lon="6.27931">
        <ele>1700.1</ele>
        <time>2015-11-03T10:17:37Z</time>
      </trkpt>
      <trkpt lat="45.69261" lon="6.27919">
        <ele>1700.3</ele>
        <time>2015-11-03T10:17:40Z</time>
      </trkpt>
      <trkpt lat="45.69253" lon="6.27909">
        <ele>1699.8</ele>
        <time>2015-11-03T10:17:43Z</time>
      </trkpt>
      <trkpt lat="45.69245" lon="6.27899">
        <ele>1699.7</ele>
        <time>2015-11-03T10:17:46Z</time>
      </trkpt>
      <trkpt lat="45.69238" lon="6.27888">
        <ele>1699.3</ele>
        <time>2015-11-03T10:17:49Z</time>
      </trkpt>
      <trkpt lat="45.69229" lon="6.27877">
        <ele>1698.9</ele>
        <time>2015-11-03T10:17:53Z</time>
      </trkpt>
      <trkpt lat="45.69221" lon="6.2787">
        <ele>1699</ele>
        <time>2015-11-03T10:17:56Z</time>
      </trkpt>
      <trkpt lat="45.69215" lon="6.27858">
        <ele>1698.9</ele>
        <time>2015-11-03T10:17:59Z</time>
      </trkpt>
      <trkpt lat="45.69212" lon="6.27846">
        <ele>1700.2</ele>
        <time>2015-11-03T10:18:07Z</time>
      </trkpt>
      <trkpt lat="45.69202" lon="6.27848">
        <ele>1701.1</ele>
        <time>2015-11-03T10:18:17Z</time>
      </trkpt>
      <trkpt lat="45.6919" lon="6.27844">
        <ele>1699.5</ele>
        <time>2015-11-03T10:18:21Z</time>
      </trkpt>
      <trkpt lat="45.69167" lon="6.27834">
        <ele>1696.8</ele>
        <time>2015-11-03T10:18:27Z</time>
      </trkpt>
      <trkpt lat="45.69158" lon="6.2783">
        <ele>1696.7</ele>
        <time>2015-11-03T10:18:30Z</time>
      </trkpt>
      <trkpt lat="45.69148" lon="6.27824">
        <ele>1696.6</ele>
        <time>2015-11-03T10:18:35Z</time>
      </trkpt>
      <trkpt lat="45.69139" lon="6.27817">
        <ele>1697.1</ele>
        <time>2015-11-03T10:18:40Z</time>
      </trkpt>
      <trkpt lat="45.6913" lon="6.2781">
        <ele>1696.8</ele>
        <time>2015-11-03T10:18:44Z</time>
      </trkpt>
      <trkpt lat="45.69123" lon="6.278">
        <ele>1696.3</ele>
        <time>2015-11-03T10:18:48Z</time>
      </trkpt>
      <trkpt lat="45.69114" lon="6.27791">
        <ele>1696.4</ele>
        <time>2015-11-03T10:18:53Z</time>
      </trkpt>
      <trkpt lat="45.69104" lon="6.27784">
        <ele>1696</ele>
        <time>2015-11-03T10:18:58Z</time>
      </trkpt>
      <trkpt lat="45.69096" lon="6.27775">
        <ele>1696.4</ele>
        <time>2015-11-03T10:19:02Z</time>
      </trkpt>
      <trkpt lat="45.69091" lon="6.27763">
        <ele>1696.6</ele>
        <time>2015-11-03T10:19:06Z</time>
      </trkpt>
      <trkpt lat="45.69093" lon="6.2775">
        <ele>1697.5</ele>
        <time>2015-11-03T10:19:11Z</time>
      </trkpt>
      <trkpt lat="45.69085" lon="6.27741">
        <ele>1698.2</ele>
        <time>2015-11-03T10:19:20Z</time>
      </trkpt>
      <trkpt lat="45.69079" lon="6.27731">
        <ele>1697.8</ele>
        <time>2015-11-03T10:19:24Z</time>
      </trkpt>
      <trkpt lat="45.6906" lon="6.27719">
        <ele>1699</ele>
        <time>2015-11-03T10:19:33Z</time>
      </trkpt>
      <trkpt lat="45.69051" lon="6.2771">
        <ele>1700.6</ele>
        <time>2015-11-03T10:19:38Z</time>
      </trkpt>
      <trkpt lat="45.69045" lon="6.27701">
        <ele>1701.9</ele>
        <time>2015-11-03T10:19:47Z</time>
      </trkpt>
      <trkpt lat="45.69036" lon="6.27698">
        <ele>1703.7</ele>
        <time>2015-11-03T10:20:04Z</time>
      </trkpt>
      <trkpt lat="45.69027" lon="6.2769">
        <ele>1703.2</ele>
        <time>2015-11-03T10:20:15Z</time>
      </trkpt>
      <trkpt lat="45.69019" lon="6.27683">
        <ele>1704.2</ele>
        <time>2015-11-03T10:20:24Z</time>
      </trkpt>
      <trkpt lat="45.69012" lon="6.27676">
        <ele>1704.8</ele>
        <time>2015-11-03T10:20:32Z</time>
      </trkpt>
      <trkpt lat="45.68994" lon="6.27665">
        <ele>1709.4</ele>
        <time>2015-11-03T10:20:55Z</time>
      </trkpt>
      <trkpt lat="45.68985" lon="6.27662">
        <ele>1709.4</ele>
        <time>2015-11-03T10:21:04Z</time>
      </trkpt>
      <trkpt lat="45.68977" lon="6.27654">
        <ele>1710.4</ele>
        <time>2015-11-03T10:21:15Z</time>
      </trkpt>
      <trkpt lat="45.68969" lon="6.27647">
        <ele>1708.5</ele>
        <time>2015-11-03T10:21:21Z</time>
      </trkpt>
      <trkpt lat="45.68961" lon="6.27655">
        <ele>1708</ele>
        <time>2015-11-03T10:21:27Z</time>
      </trkpt>
      <trkpt lat="45.68952" lon="6.27655">
        <ele>1707.8</ele>
        <time>2015-11-03T10:21:31Z</time>
      </trkpt>
      <trkpt lat="45.68942" lon="6.27649">
        <ele>1707.7</ele>
        <time>2015-11-03T10:21:37Z</time>
      </trkpt>
      <trkpt lat="45.68925" lon="6.27648">
        <ele>1705.8</ele>
        <time>2015-11-03T10:21:46Z</time>
      </trkpt>
      <trkpt lat="45.68917" lon="6.27653">
        <ele>1705.5</ele>
        <time>2015-11-03T10:21:52Z</time>
      </trkpt>
      <trkpt lat="45.68908" lon="6.27656">
        <ele>1704.4</ele>
        <time>2015-11-03T10:21:57Z</time>
      </trkpt>
      <trkpt lat="45.68898" lon="6.27652">
        <ele>1705.4</ele>
        <time>2015-11-03T10:22:06Z</time>
      </trkpt>
      <trkpt lat="45.68889" lon="6.27654">
        <ele>1703.9</ele>
        <time>2015-11-03T10:22:20Z</time>
      </trkpt>
      <trkpt lat="45.68879" lon="6.27655">
        <ele>1702.2</ele>
        <time>2015-11-03T10:22:37Z</time>
      </trkpt>
      <trkpt lat="45.68868" lon="6.27662">
        <ele>1701.6</ele>
        <time>2015-11-03T10:22:41Z</time>
      </trkpt>
      <trkpt lat="45.68846" lon="6.27664">
        <ele>1699.8</ele>
        <time>2015-11-03T10:22:47Z</time>
      </trkpt>
      <trkpt lat="45.68837" lon="6.27673">
        <ele>1699</ele>
        <time>2015-11-03T10:22:52Z</time>
      </trkpt>
      <trkpt lat="45.68827" lon="6.27674">
        <ele>1697.6</ele>
        <time>2015-11-03T10:22:56Z</time>
      </trkpt>
      <trkpt lat="45.68818" lon="6.27672">
        <ele>1695.2</ele>
        <time>2015-11-03T10:23:00Z</time>
      </trkpt>
      <trkpt lat="45.68809" lon="6.27676">
        <ele>1688.7</ele>
        <time>2015-11-03T10:23:15Z</time>
      </trkpt>
      <trkpt lat="45.68799" lon="6.27674">
        <ele>1686.1</ele>
        <time>2015-11-03T10:23:22Z</time>
      </trkpt>
      <trkpt lat="45.68802" lon="6.27689">
        <ele>1683</ele>
        <time>2015-11-03T10:23:34Z</time>
      </trkpt>
      <trkpt lat="45.68795" lon="6.27698">
        <ele>1675.9</ele>
        <time>2015-11-03T10:24:01Z</time>
      </trkpt>
      <trkpt lat="45.68807" lon="6.27719">
        <ele>1671.5</ele>
        <time>2015-11-03T10:24:18Z</time>
      </trkpt>
      <trkpt lat="45.68811" lon="6.27731">
        <ele>1665.9</ele>
        <time>2015-11-03T10:24:34Z</time>
      </trkpt>
      <trkpt lat="45.68802" lon="6.27737">
        <ele>1664.6</ele>
        <time>2015-11-03T10:24:48Z</time>
      </trkpt>
      <trkpt lat="45.68793" lon="6.27733">
        <ele>1662.7</ele>
        <time>2015-11-03T10:24:51Z</time>
      </trkpt>
      <trkpt lat="45.68783" lon="6.27729">
        <ele>1661.5</ele>
        <time>2015-11-03T10:24:56Z</time>
      </trkpt>
      <trkpt lat="45.68774" lon="6.27725">
        <ele>1660.3</ele>
        <time>2015-11-03T10:25:00Z</time>
      </trkpt>
      <trkpt lat="45.68763" lon="6.2772">
        <ele>1657.2</ele>
        <time>2015-11-03T10:25:05Z</time>
      </trkpt>
      <trkpt lat="45.68744" lon="6.2771">
        <ele>1652.1</ele>
        <time>2015-11-03T10:25:17Z</time>
      </trkpt>
      <trkpt lat="45.68735" lon="6.27706">
        <ele>1651.6</ele>
        <time>2015-11-03T10:25:20Z</time>
      </trkpt>
      <trkpt lat="45.68726" lon="6.27703">
        <ele>1650.1</ele>
        <time>2015-11-03T10:25:23Z</time>
      </trkpt>
      <trkpt lat="45.68717" lon="6.27697">
        <ele>1648.1</ele>
        <time>2015-11-03T10:25:27Z</time>
      </trkpt>
      <trkpt lat="45.68708" lon="6.2769">
        <ele>1645.6</ele>
        <time>2015-11-03T10:25:44Z</time>
      </trkpt>
      <trkpt lat="45.68704" lon="6.27678">
        <ele>1643.7</ele>
        <time>2015-11-03T10:25:53Z</time>
      </trkpt>
      <trkpt lat="45.68699" lon="6.27665">
        <ele>1642.4</ele>
        <time>2015-11-03T10:25:56Z</time>
      </trkpt>
      <trkpt lat="45.68696" lon="6.27651">
        <ele>1639.6</ele>
        <time>2015-11-03T10:26:01Z</time>
      </trkpt>
      <trkpt lat="45.68687" lon="6.27657">
        <ele>1635.9</ele>
        <time>2015-11-03T10:26:14Z</time>
      </trkpt>
      <trkpt lat="45.68688" lon="6.27684">
        <ele>1629.7</ele>
        <time>2015-11-03T10:26:29Z</time>
      </trkpt>
      <trkpt lat="45.68695" lon="6.27695">
        <ele>1627.5</ele>
        <time>2015-11-03T10:26:33Z</time>
      </trkpt>
      <trkpt lat="45.68701" lon="6.27706">
        <ele>1624</ele>
        <time>2015-11-03T10:26:37Z</time>
      </trkpt>
      <trkpt lat="45.68706" lon="6.27719">
        <ele>1620.5</ele>
        <time>2015-11-03T10:26:43Z</time>
      </trkpt>
      <trkpt lat="45.68712" lon="6.27732">
        <ele>1618</ele>
        <time>2015-11-03T10:26:48Z</time>
      </trkpt>
      <trkpt lat="45.6872" lon="6.27742">
        <ele>1616</ele>
        <time>2015-11-03T10:26:51Z</time>
      </trkpt>
      <trkpt lat="45.68727" lon="6.27756">
        <ele>1613.8</ele>
        <time>2015-11-03T10:26:54Z</time>
      </trkpt>
      <trkpt lat="45.68733" lon="6.27768">
        <ele>1612.2</ele>
        <time>2015-11-03T10:26:58Z</time>
      </trkpt>
      <trkpt lat="45.6874" lon="6.27778">
        <ele>1610.6</ele>
        <time>2015-11-03T10:27:03Z</time>
      </trkpt>
      <trkpt lat="45.68745" lon="6.27789">
        <ele>1610.4</ele>
        <time>2015-11-03T10:27:07Z</time>
      </trkpt>
      <trkpt lat="45.68753" lon="6.27798">
        <ele>1609.1</ele>
        <time>2015-11-03T10:27:12Z</time>
      </trkpt>
      <trkpt lat="45.6876" lon="6.27807">
        <ele>1606.7</ele>
        <time>2015-11-03T10:27:18Z</time>
      </trkpt>
      <trkpt lat="45.68755" lon="6.2784">
        <ele>1602.7</ele>
        <time>2015-11-03T10:27:29Z</time>
      </trkpt>
      <trkpt lat="45.68753" lon="6.27854">
        <ele>1601.8</ele>
        <time>2015-11-03T10:27:31Z</time>
      </trkpt>
      <trkpt lat="45.68752" lon="6.27868">
        <ele>1599.8</ele>
        <time>2015-11-03T10:27:34Z</time>
      </trkpt>
      <trkpt lat="45.68757" lon="6.27882">
        <ele>1598.5</ele>
        <time>2015-11-03T10:27:38Z</time>
      </trkpt>
      <trkpt lat="45.68766" lon="6.27892">
        <ele>1596.6</ele>
        <time>2015-11-03T10:27:42Z</time>
      </trkpt>
      <trkpt lat="45.68774" lon="6.279">
        <ele>1594.6</ele>
        <time>2015-11-03T10:27:46Z</time>
      </trkpt>
      <trkpt lat="45.68782" lon="6.2791">
        <ele>1592.4</ele>
        <time>2015-11-03T10:27:49Z</time>
      </trkpt>
      <trkpt lat="45.68791" lon="6.27915">
        <ele>1589.9</ele>
        <time>2015-11-03T10:27:54Z</time>
      </trkpt>
      <trkpt lat="45.68799" lon="6.27923">
        <ele>1588.5</ele>
        <time>2015-11-03T10:27:59Z</time>
      </trkpt>
      <trkpt lat="45.6881" lon="6.27926">
        <ele>1586.9</ele>
        <time>2015-11-03T10:28:03Z</time>
      </trkpt>
      <trkpt lat="45.6882" lon="6.27925">
        <ele>1584.8</ele>
        <time>2015-11-03T10:28:07Z</time>
      </trkpt>
      <trkpt lat="45.68831" lon="6.27931">
        <ele>1583.5</ele>
        <time>2015-11-03T10:28:15Z</time>
      </trkpt>
      <trkpt lat="45.68841" lon="6.27935">
        <ele>1582.5</ele>
        <time>2015-11-03T10:28:19Z</time>
      </trkpt>
      <trkpt lat="45.68861" lon="6.2794">
        <ele>1577.4</ele>
        <time>2015-11-03T10:28:27Z</time>
      </trkpt>
      <trkpt lat="45.6887" lon="6.27933">
        <ele>1575.4</ele>
        <time>2015-11-03T10:28:33Z</time>
      </trkpt>
      <trkpt lat="45.6888" lon="6.2793">
        <ele>1573.3</ele>
        <time>2015-11-03T10:28:42Z</time>
      </trkpt>
      <trkpt lat="45.68887" lon="6.27938">
        <ele>1572.3</ele>
        <time>2015-11-03T10:29:02Z</time>
      </trkpt>
      <trkpt lat="45.68894" lon="6.27952">
        <ele>1571.5</ele>
        <time>2015-11-03T10:29:09Z</time>
      </trkpt>
      <trkpt lat="45.68897" lon="6.27965">
        <ele>1569.9</ele>
        <time>2015-11-03T10:29:14Z</time>
      </trkpt>
      <trkpt lat="45.68894" lon="6.27977">
        <ele>1563.3</ele>
        <time>2015-11-03T10:29:38Z</time>
      </trkpt>
      <trkpt lat="45.68877" lon="6.27984">
        <ele>1553.5</ele>
        <time>2015-11-03T10:30:15Z</time>
      </trkpt>
      <trkpt lat="45.6887" lon="6.27992">
        <ele>1552.5</ele>
        <time>2015-11-03T10:30:24Z</time>
      </trkpt>
      <trkpt lat="45.68862" lon="6.28001">
        <ele>1551.1</ele>
        <time>2015-11-03T10:30:36Z</time>
      </trkpt>
      <trkpt lat="45.68855" lon="6.28012">
        <ele>1548.7</ele>
        <time>2015-11-03T10:30:40Z</time>
      </trkpt>
      <trkpt lat="45.6884" lon="6.28033">
        <ele>1542.6</ele>
        <time>2015-11-03T10:30:49Z</time>
      </trkpt>
      <trkpt lat="45.68831" lon="6.28038">
        <ele>1540.2</ele>
        <time>2015-11-03T10:30:54Z</time>
      </trkpt>
      <trkpt lat="45.68821" lon="6.28043">
        <ele>1538.7</ele>
        <time>2015-11-03T10:30:58Z</time>
      </trkpt>
      <trkpt lat="45.68811" lon="6.28046">
        <ele>1537.5</ele>
        <time>2015-11-03T10:31:02Z</time>
      </trkpt>
      <trkpt lat="45.68801" lon="6.28047">
        <ele>1535.6</ele>
        <time>2015-11-03T10:31:05Z</time>
      </trkpt>
      <trkpt lat="45.6879" lon="6.28046">
        <ele>1533.4</ele>
        <time>2015-11-03T10:31:09Z</time>
      </trkpt>
      <trkpt lat="45.6878" lon="6.28049">
        <ele>1531.3</ele>
        <time>2015-11-03T10:31:14Z</time>
      </trkpt>
      <trkpt lat="45.68771" lon="6.28047">
        <ele>1530.3</ele>
        <time>2015-11-03T10:31:17Z</time>
      </trkpt>
      <trkpt lat="45.68762" lon="6.28044">
        <ele>1529.2</ele>
        <time>2015-11-03T10:31:20Z</time>
      </trkpt>
      <trkpt lat="45.68752" lon="6.28038">
        <ele>1527.5</ele>
        <time>2015-11-03T10:31:23Z</time>
      </trkpt>
      <trkpt lat="45.68742" lon="6.28032">
        <ele>1526.2</ele>
        <time>2015-11-03T10:31:29Z</time>
      </trkpt>
      <trkpt lat="45.68732" lon="6.28026">
        <ele>1524</ele>
        <time>2015-11-03T10:31:37Z</time>
      </trkpt>
      <trkpt lat="45.68723" lon="6.28016">
        <ele>1523</ele>
        <time>2015-11-03T10:31:41Z</time>
      </trkpt>
      <trkpt lat="45.68708" lon="6.27999">
        <ele>1520.5</ele>
        <time>2015-11-03T10:31:48Z</time>
      </trkpt>
      <trkpt lat="45.687" lon="6.27994">
        <ele>1518.3</ele>
        <time>2015-11-03T10:31:51Z</time>
      </trkpt>
      <trkpt lat="45.6869" lon="6.27989">
        <ele>1516.8</ele>
        <time>2015-11-03T10:31:54Z</time>
      </trkpt>
      <trkpt lat="45.6868" lon="6.27982">
        <ele>1514.4</ele>
        <time>2015-11-03T10:31:58Z</time>
      </trkpt>
      <trkpt lat="45.68672" lon="6.27971">
        <ele>1511.6</ele>
        <time>2015-11-03T10:32:02Z</time>
      </trkpt>
      <trkpt lat="45.68667" lon="6.27956">
        <ele>1509.5</ele>
        <time>2015-11-03T10:32:06Z</time>
      </trkpt>
      <trkpt lat="45.68664" lon="6.27944">
        <ele>1508.5</ele>
        <time>2015-11-03T10:32:15Z</time>
      </trkpt>
      <trkpt lat="45.68657" lon="6.27935">
        <ele>1509.6</ele>
        <time>2015-11-03T10:32:27Z</time>
      </trkpt>
      <trkpt lat="45.68648" lon="6.27931">
        <ele>1510.1</ele>
        <time>2015-11-03T10:32:42Z</time>
      </trkpt>
      <trkpt lat="45.6863" lon="6.27926">
        <ele>1509.5</ele>
        <time>2015-11-03T10:33:03Z</time>
      </trkpt>
      <trkpt lat="45.68621" lon="6.2792">
        <ele>1507.6</ele>
        <time>2015-11-03T10:33:15Z</time>
      </trkpt>
      <trkpt lat="45.68612" lon="6.27912">
        <ele>1504.5</ele>
        <time>2015-11-03T10:33:22Z</time>
      </trkpt>
      <trkpt lat="45.68604" lon="6.27906">
        <ele>1502.7</ele>
        <time>2015-11-03T10:33:27Z</time>
      </trkpt>
      <trkpt lat="45.68595" lon="6.27896">
        <ele>1500.8</ele>
        <time>2015-11-03T10:33:32Z</time>
      </trkpt>
      <trkpt lat="45.68585" lon="6.2789">
        <ele>1499.3</ele>
        <time>2015-11-03T10:33:36Z</time>
      </trkpt>
      <trkpt lat="45.68577" lon="6.27882">
        <ele>1496.8</ele>
        <time>2015-11-03T10:33:40Z</time>
      </trkpt>
      <trkpt lat="45.68568" lon="6.27871">
        <ele>1496.1</ele>
        <time>2015-11-03T10:33:44Z</time>
      </trkpt>
      <trkpt lat="45.68551" lon="6.27853">
        <ele>1492</ele>
        <time>2015-11-03T10:33:51Z</time>
      </trkpt>
      <trkpt lat="45.68543" lon="6.27842">
        <ele>1489.6</ele>
        <time>2015-11-03T10:33:55Z</time>
      </trkpt>
      <trkpt lat="45.68536" lon="6.27832">
        <ele>1486.4</ele>
        <time>2015-11-03T10:34:00Z</time>
      </trkpt>
      <trkpt lat="45.68529" lon="6.2782">
        <ele>1485.1</ele>
        <time>2015-11-03T10:34:03Z</time>
      </trkpt>
      <trkpt lat="45.68521" lon="6.27811">
        <ele>1483.6</ele>
        <time>2015-11-03T10:34:06Z</time>
      </trkpt>
      <trkpt lat="45.68512" lon="6.27804">
        <ele>1481.4</ele>
        <time>2015-11-03T10:34:10Z</time>
      </trkpt>
      <trkpt lat="45.68504" lon="6.27792">
        <ele>1479.8</ele>
        <time>2015-11-03T10:34:14Z</time>
      </trkpt>
      <trkpt lat="45.68494" lon="6.27784">
        <ele>1478.1</ele>
        <time>2015-11-03T10:34:18Z</time>
      </trkpt>
      <trkpt lat="45.68486" lon="6.27772">
        <ele>1476.3</ele>
        <time>2015-11-03T10:34:21Z</time>
      </trkpt>
      <trkpt lat="45.68478" lon="6.27765">
        <ele>1474.6</ele>
        <time>2015-11-03T10:34:27Z</time>
      </trkpt>
      <trkpt lat="45.68469" lon="6.27762">
        <ele>1473.9</ele>
        <time>2015-11-03T10:34:32Z</time>
      </trkpt>
      <trkpt lat="45.68459" lon="6.27755">
        <ele>1472</ele>
        <time>2015-11-03T10:34:37Z</time>
      </trkpt>
      <trkpt lat="45.6845" lon="6.27749">
        <ele>1470.4</ele>
        <time>2015-11-03T10:34:41Z</time>
      </trkpt>
      <trkpt lat="45.68443" lon="6.27741">
        <ele>1467.2</ele>
        <time>2015-11-03T10:35:02Z</time>
      </trkpt>
      <trkpt lat="45.68439" lon="6.27735">
        <ele>1467.7</ele>
        <time>2015-11-03T10:36:17Z</time>
      </trkpt>
      <trkpt lat="45.68427" lon="6.27704">
        <ele>1475.7</ele>
        <time>2015-11-03T10:38:02Z</time>
      </trkpt>
      <trkpt lat="45.68418" lon="6.277">
        <ele>1476.8</ele>
        <time>2015-11-03T10:38:22Z</time>
      </trkpt>
      <trkpt lat="45.68416" lon="6.27687">
        <ele>1478.5</ele>
        <time>2015-11-03T10:38:35Z</time>
      </trkpt>
      <trkpt lat="45.68413" lon="6.27661">
        <ele>1483.9</ele>
        <time>2015-11-03T10:39:12Z</time>
      </trkpt>
      <trkpt lat="45.68408" lon="6.2765">
        <ele>1485.6</ele>
        <time>2015-11-03T10:39:29Z</time>
      </trkpt>
      <trkpt lat="45.68401" lon="6.27658">
        <ele>1487.2</ele>
        <time>2015-11-03T10:40:00Z</time>
      </trkpt>
      <trkpt lat="45.68389" lon="6.27678">
        <ele>1494.4</ele>
        <time>2015-11-03T10:40:41Z</time>
      </trkpt>
      <trkpt lat="45.6838" lon="6.27682">
        <ele>1496.5</ele>
        <time>2015-11-03T10:40:54Z</time>
      </trkpt>
      <trkpt lat="45.68371" lon="6.27681">
        <ele>1499</ele>
        <time>2015-11-03T10:41:08Z</time>
      </trkpt>
      <trkpt lat="45.68354" lon="6.27671">
        <ele>1503.8</ele>
        <time>2015-11-03T10:41:32Z</time>
      </trkpt>
      <trkpt lat="45.68345" lon="6.27665">
        <ele>1507.6</ele>
        <time>2015-11-03T10:41:49Z</time>
      </trkpt>
      <trkpt lat="45.68336" lon="6.27662">
        <ele>1509.3</ele>
        <time>2015-11-03T10:42:03Z</time>
      </trkpt>
      <trkpt lat="45.68327" lon="6.27658">
        <ele>1512.2</ele>
        <time>2015-11-03T10:42:19Z</time>
      </trkpt>
      <trkpt lat="45.68309" lon="6.27648">
        <ele>1516.3</ele>
        <time>2015-11-03T10:42:43Z</time>
      </trkpt>
      <trkpt lat="45.683" lon="6.2765">
        <ele>1517.9</ele>
        <time>2015-11-03T10:42:58Z</time>
      </trkpt>
      <trkpt lat="45.6829" lon="6.27653">
        <ele>1521.9</ele>
        <time>2015-11-03T10:43:20Z</time>
      </trkpt>
      <trkpt lat="45.6828" lon="6.2764">
        <ele>1529.8</ele>
        <time>2015-11-03T10:44:08Z</time>
      </trkpt>
      <trkpt lat="45.68283" lon="6.27627">
        <ele>1530.6</ele>
        <time>2015-11-03T10:44:27Z</time>
      </trkpt>
      <trkpt lat="45.68297" lon="6.27611">
        <ele>1532</ele>
        <time>2015-11-03T10:44:53Z</time>
      </trkpt>
      <trkpt lat="45.68306" lon="6.27603">
        <ele>1532.8</ele>
        <time>2015-11-03T10:45:01Z</time>
      </trkpt>
      <trkpt lat="45.68314" lon="6.27597">
        <ele>1534.5</ele>
        <time>2015-11-03T10:45:09Z</time>
      </trkpt>
      <trkpt lat="45.68321" lon="6.27587">
        <ele>1536</ele>
        <time>2015-11-03T10:45:16Z</time>
      </trkpt>
      <trkpt lat="45.68311" lon="6.27583">
        <ele>1540.6</ele>
        <time>2015-11-03T10:45:41Z</time>
      </trkpt>
      <trkpt lat="45.68292" lon="6.27587">
        <ele>1543.4</ele>
        <time>2015-11-03T10:46:00Z</time>
      </trkpt>
      <trkpt lat="45.68283" lon="6.27587">
        <ele>1545.5</ele>
        <time>2015-11-03T10:46:10Z</time>
      </trkpt>
      <trkpt lat="45.68273" lon="6.27587">
        <ele>1545.7</ele>
        <time>2015-11-03T10:46:16Z</time>
      </trkpt>
      <trkpt lat="45.68264" lon="6.27593">
        <ele>1546.8</ele>
        <time>2015-11-03T10:46:22Z</time>
      </trkpt>
      <trkpt lat="45.68254" lon="6.27596">
        <ele>1547.4</ele>
        <time>2015-11-03T10:46:29Z</time>
      </trkpt>
      <trkpt lat="45.68245" lon="6.27595">
        <ele>1550</ele>
        <time>2015-11-03T10:46:37Z</time>
      </trkpt>
      <trkpt lat="45.68235" lon="6.27595">
        <ele>1550.1</ele>
        <time>2015-11-03T10:46:42Z</time>
      </trkpt>
      <trkpt lat="45.68218" lon="6.27604">
        <ele>1553.7</ele>
        <time>2015-11-03T10:47:17Z</time>
      </trkpt>
      <trkpt lat="45.68209" lon="6.27607">
        <ele>1554.6</ele>
        <time>2015-11-03T10:47:25Z</time>
      </trkpt>
      <trkpt lat="45.68199" lon="6.2761">
        <ele>1555.5</ele>
        <time>2015-11-03T10:47:32Z</time>
      </trkpt>
      <trkpt lat="45.6819" lon="6.27612">
        <ele>1557.1</ele>
        <time>2015-11-03T10:47:40Z</time>
      </trkpt>
      <trkpt lat="45.6818" lon="6.27613">
        <ele>1559.2</ele>
        <time>2015-11-03T10:47:49Z</time>
      </trkpt>
      <trkpt lat="45.68161" lon="6.27609">
        <ele>1561.1</ele>
        <time>2015-11-03T10:48:03Z</time>
      </trkpt>
      <trkpt lat="45.68152" lon="6.27602">
        <ele>1562.8</ele>
        <time>2015-11-03T10:48:11Z</time>
      </trkpt>
      <trkpt lat="45.68143" lon="6.27595">
        <ele>1563.8</ele>
        <time>2015-11-03T10:48:19Z</time>
      </trkpt>
      <trkpt lat="45.68135" lon="6.27587">
        <ele>1564.6</ele>
        <time>2015-11-03T10:48:25Z</time>
      </trkpt>
      <trkpt lat="45.68126" lon="6.27591">
        <ele>1565.9</ele>
        <time>2015-11-03T10:48:36Z</time>
      </trkpt>
      <trkpt lat="45.6813" lon="6.27605">
        <ele>1567.9</ele>
        <time>2015-11-03T10:48:56Z</time>
      </trkpt>
      <trkpt lat="45.68122" lon="6.27628">
        <ele>1566.5</ele>
        <time>2015-11-03T10:49:15Z</time>
      </trkpt>
      <trkpt lat="45.68126" lon="6.27644">
        <ele>1566.4</ele>
        <time>2015-11-03T10:49:22Z</time>
      </trkpt>
      <trkpt lat="45.68133" lon="6.27653">
        <ele>1566.5</ele>
        <time>2015-11-03T10:49:27Z</time>
      </trkpt>
      <trkpt lat="45.68139" lon="6.27663">
        <ele>1568</ele>
        <time>2015-11-03T10:49:33Z</time>
      </trkpt>
      <trkpt lat="45.68142" lon="6.27676">
        <ele>1569</ele>
        <time>2015-11-03T10:49:40Z</time>
      </trkpt>
      <trkpt lat="45.68135" lon="6.27684">
        <ele>1570.7</ele>
        <time>2015-11-03T10:50:01Z</time>
      </trkpt>
      <trkpt lat="45.68119" lon="6.27697">
        <ele>1577.1</ele>
        <time>2015-11-03T10:50:40Z</time>
      </trkpt>
      <trkpt lat="45.68113" lon="6.27708">
        <ele>1579.2</ele>
        <time>2015-11-03T10:51:00Z</time>
      </trkpt>
      <trkpt lat="45.6811" lon="6.2772">
        <ele>1577.6</ele>
        <time>2015-11-03T10:51:05Z</time>
      </trkpt>
      <trkpt lat="45.68128" lon="6.27728">
        <ele>1578.7</ele>
        <time>2015-11-03T10:51:42Z</time>
      </trkpt>
      <trkpt lat="45.68136" lon="6.27738">
        <ele>1579.8</ele>
        <time>2015-11-03T10:51:50Z</time>
      </trkpt>
      <trkpt lat="45.68141" lon="6.27751">
        <ele>1579.8</ele>
        <time>2015-11-03T10:51:56Z</time>
      </trkpt>
      <trkpt lat="45.68146" lon="6.27762">
        <ele>1579.6</ele>
        <time>2015-11-03T10:52:01Z</time>
      </trkpt>
      <trkpt lat="45.68154" lon="6.27775">
        <ele>1579.1</ele>
        <time>2015-11-03T10:52:05Z</time>
      </trkpt>
      <trkpt lat="45.6816" lon="6.27785">
        <ele>1578.8</ele>
        <time>2015-11-03T10:52:09Z</time>
      </trkpt>
      <trkpt lat="45.68172" lon="6.27807">
        <ele>1579.1</ele>
        <time>2015-11-03T10:52:20Z</time>
      </trkpt>
      <trkpt lat="45.68176" lon="6.27818">
        <ele>1581.1</ele>
        <time>2015-11-03T10:52:42Z</time>
      </trkpt>
      <trkpt lat="45.68178" lon="6.27831">
        <ele>1582.7</ele>
        <time>2015-11-03T10:53:02Z</time>
      </trkpt>
      <trkpt lat="45.68174" lon="6.27844">
        <ele>1583.9</ele>
        <time>2015-11-03T10:53:12Z</time>
      </trkpt>
      <trkpt lat="45.68162" lon="6.27863">
        <ele>1587.8</ele>
        <time>2015-11-03T10:53:47Z</time>
      </trkpt>
      <trkpt lat="45.68153" lon="6.27864">
        <ele>1589.6</ele>
        <time>2015-11-03T10:53:59Z</time>
      </trkpt>
      <trkpt lat="45.68147" lon="6.27874">
        <ele>1590.3</ele>
        <time>2015-11-03T10:54:09Z</time>
      </trkpt>
      <trkpt lat="45.68139" lon="6.27881">
        <ele>1592.8</ele>
        <time>2015-11-03T10:54:22Z</time>
      </trkpt>
      <trkpt lat="45.68123" lon="6.27883">
        <ele>1597.7</ele>
        <time>2015-11-03T10:54:52Z</time>
      </trkpt>
      <trkpt lat="45.68118" lon="6.27871">
        <ele>1600.1</ele>
        <time>2015-11-03T10:55:18Z</time>
      </trkpt>
      <trkpt lat="45.6811" lon="6.27866">
        <ele>1603</ele>
        <time>2015-11-03T10:55:37Z</time>
      </trkpt>
      <trkpt lat="45.68094" lon="6.27854">
        <ele>1609.3</ele>
        <time>2015-11-03T10:56:23Z</time>
      </trkpt>
      <trkpt lat="45.6809" lon="6.27866">
        <ele>1613.3</ele>
        <time>2015-11-03T10:56:46Z</time>
      </trkpt>
      <trkpt lat="45.68082" lon="6.27888">
        <ele>1618.6</ele>
        <time>2015-11-03T10:57:22Z</time>
      </trkpt>
      <trkpt lat="45.68074" lon="6.27893">
        <ele>1625</ele>
        <time>2015-11-03T10:58:17Z</time>
      </trkpt>
      <trkpt lat="45.68066" lon="6.27906">
        <ele>1632.7</ele>
        <time>2015-11-03T10:59:13Z</time>
      </trkpt>
      <trkpt lat="45.68058" lon="6.27899">
        <ele>1635.4</ele>
        <time>2015-11-03T10:59:26Z</time>
      </trkpt>
      <trkpt lat="45.68052" lon="6.27907">
        <ele>1640.8</ele>
        <time>2015-11-03T11:00:45Z</time>
      </trkpt>
      <trkpt lat="45.68065" lon="6.27927">
        <ele>1639.5</ele>
        <time>2015-11-03T11:00:56Z</time>
      </trkpt>
      <trkpt lat="45.68072" lon="6.27938">
        <ele>1639.2</ele>
        <time>2015-11-03T11:01:01Z</time>
      </trkpt>
      <trkpt lat="45.68074" lon="6.27954">
        <ele>1638.9</ele>
        <time>2015-11-03T11:03:26Z</time>
      </trkpt>
      <trkpt lat="45.6808" lon="6.27982">
        <ele>1638.2</ele>
        <time>2015-11-03T11:03:33Z</time>
      </trkpt>
      <trkpt lat="45.68087" lon="6.27995">
        <ele>1638.1</ele>
        <time>2015-11-03T11:03:37Z</time>
      </trkpt>
      <trkpt lat="45.68095" lon="6.28007">
        <ele>1638</ele>
        <time>2015-11-03T11:03:40Z</time>
      </trkpt>
      <trkpt lat="45.68104" lon="6.28018">
        <ele>1637.2</ele>
        <time>2015-11-03T11:03:43Z</time>
      </trkpt>
      <trkpt lat="45.68112" lon="6.2803">
        <ele>1637</ele>
        <time>2015-11-03T11:03:46Z</time>
      </trkpt>
      <trkpt lat="45.68119" lon="6.28041">
        <ele>1637.1</ele>
        <time>2015-11-03T11:03:50Z</time>
      </trkpt>
      <trkpt lat="45.68125" lon="6.28053">
        <ele>1636.4</ele>
        <time>2015-11-03T11:04:16Z</time>
      </trkpt>
      <trkpt lat="45.68128" lon="6.28066">
        <ele>1636.9</ele>
        <time>2015-11-03T11:04:20Z</time>
      </trkpt>
      <trkpt lat="45.68131" lon="6.28079">
        <ele>1637</ele>
        <time>2015-11-03T11:04:23Z</time>
      </trkpt>
      <trkpt lat="45.68131" lon="6.28093">
        <ele>1636.9</ele>
        <time>2015-11-03T11:04:26Z</time>
      </trkpt>
      <trkpt lat="45.68131" lon="6.2811">
        <ele>1637.5</ele>
        <time>2015-11-03T11:04:30Z</time>
      </trkpt>
      <trkpt lat="45.68138" lon="6.28139">
        <ele>1637.8</ele>
        <time>2015-11-03T11:04:36Z</time>
      </trkpt>
      <trkpt lat="45.68142" lon="6.28155">
        <ele>1637.2</ele>
        <time>2015-11-03T11:04:39Z</time>
      </trkpt>
      <trkpt lat="45.68147" lon="6.28169">
        <ele>1637.6</ele>
        <time>2015-11-03T11:04:42Z</time>
      </trkpt>
      <trkpt lat="45.68152" lon="6.28183">
        <ele>1637.3</ele>
        <time>2015-11-03T11:04:45Z</time>
      </trkpt>
      <trkpt lat="45.68156" lon="6.28195">
        <ele>1636.9</ele>
        <time>2015-11-03T11:04:48Z</time>
      </trkpt>
      <trkpt lat="45.68161" lon="6.28207">
        <ele>1636.6</ele>
        <time>2015-11-03T11:04:51Z</time>
      </trkpt>
      <trkpt lat="45.68166" lon="6.2822">
        <ele>1636.5</ele>
        <time>2015-11-03T11:04:54Z</time>
      </trkpt>
      <trkpt lat="45.68172" lon="6.28232">
        <ele>1636.9</ele>
        <time>2015-11-03T11:04:57Z</time>
      </trkpt>
      <trkpt lat="45.68177" lon="6.28243">
        <ele>1637.6</ele>
        <time>2015-11-03T11:05:00Z</time>
      </trkpt>
      <trkpt lat="45.68184" lon="6.28254">
        <ele>1638.2</ele>
        <time>2015-11-03T11:05:03Z</time>
      </trkpt>
      <trkpt lat="45.6819" lon="6.28266">
        <ele>1638.3</ele>
        <time>2015-11-03T11:05:06Z</time>
      </trkpt>
      <trkpt lat="45.68194" lon="6.28278">
        <ele>1638</ele>
        <time>2015-11-03T11:05:09Z</time>
      </trkpt>
      <trkpt lat="45.68196" lon="6.28292">
        <ele>1639.3</ele>
        <time>2015-11-03T11:05:13Z</time>
      </trkpt>
      <trkpt lat="45.68199" lon="6.28306">
        <ele>1640.3</ele>
        <time>2015-11-03T11:05:18Z</time>
      </trkpt>
      <trkpt lat="45.68201" lon="6.28321">
        <ele>1640.3</ele>
        <time>2015-11-03T11:05:24Z</time>
      </trkpt>
      <trkpt lat="45.68195" lon="6.28333">
        <ele>1638.5</ele>
        <time>2015-11-03T11:05:30Z</time>
      </trkpt>
      <trkpt lat="45.6819" lon="6.28345">
        <ele>1637.6</ele>
        <time>2015-11-03T11:05:33Z</time>
      </trkpt>
      <trkpt lat="45.68208" lon="6.28359">
        <ele>1633.4</ele>
        <time>2015-11-03T11:05:40Z</time>
      </trkpt>
      <trkpt lat="45.68219" lon="6.28353">
        <ele>1630.6</ele>
        <time>2015-11-03T11:05:43Z</time>
      </trkpt>
      <trkpt lat="45.68228" lon="6.28354">
        <ele>1627.8</ele>
        <time>2015-11-03T11:05:46Z</time>
      </trkpt>
      <trkpt lat="45.68233" lon="6.28365">
        <ele>1622.8</ele>
        <time>2015-11-03T11:05:56Z</time>
      </trkpt>
      <trkpt lat="45.68236" lon="6.28379">
        <ele>1620.7</ele>
        <time>2015-11-03T11:06:00Z</time>
      </trkpt>
      <trkpt lat="45.68243" lon="6.28393">
        <ele>1619.2</ele>
        <time>2015-11-03T11:06:03Z</time>
      </trkpt>
      <trkpt lat="45.68245" lon="6.28406">
        <ele>1616.5</ele>
        <time>2015-11-03T11:06:06Z</time>
      </trkpt>
      <trkpt lat="45.68249" lon="6.28418">
        <ele>1614.5</ele>
        <time>2015-11-03T11:06:09Z</time>
      </trkpt>
      <trkpt lat="45.68257" lon="6.28434">
        <ele>1612</ele>
        <time>2015-11-03T11:06:12Z</time>
      </trkpt>
      <trkpt lat="45.68266" lon="6.2844">
        <ele>1609.5</ele>
        <time>2015-11-03T11:06:15Z</time>
      </trkpt>
      <trkpt lat="45.68278" lon="6.28436">
        <ele>1607</ele>
        <time>2015-11-03T11:06:18Z</time>
      </trkpt>
      <trkpt lat="45.6829" lon="6.28438">
        <ele>1604.1</ele>
        <time>2015-11-03T11:06:21Z</time>
      </trkpt>
      <trkpt lat="45.68297" lon="6.28449">
        <ele>1602</ele>
        <time>2015-11-03T11:06:24Z</time>
      </trkpt>
      <trkpt lat="45.68305" lon="6.28457">
        <ele>1596.7</ele>
        <time>2015-11-03T11:06:45Z</time>
      </trkpt>
      <trkpt lat="45.68324" lon="6.28462">
        <ele>1588.7</ele>
        <time>2015-11-03T11:06:57Z</time>
      </trkpt>
      <trkpt lat="45.6833" lon="6.28471">
        <ele>1584.7</ele>
        <time>2015-11-03T11:07:02Z</time>
      </trkpt>
      <trkpt lat="45.68333" lon="6.28484">
        <ele>1582.6</ele>
        <time>2015-11-03T11:07:05Z</time>
      </trkpt>
      <trkpt lat="45.68337" lon="6.28497">
        <ele>1579.3</ele>
        <time>2015-11-03T11:07:09Z</time>
      </trkpt>
      <trkpt lat="45.68343" lon="6.28511">
        <ele>1577.1</ele>
        <time>2015-11-03T11:07:12Z</time>
      </trkpt>
      <trkpt lat="45.68347" lon="6.28523">
        <ele>1574.9</ele>
        <time>2015-11-03T11:07:14Z</time>
      </trkpt>
      <trkpt lat="45.6835" lon="6.28536">
        <ele>1571.3</ele>
        <time>2015-11-03T11:07:18Z</time>
      </trkpt>
      <trkpt lat="45.68344" lon="6.28551">
        <ele>1567.1</ele>
        <time>2015-11-03T11:07:24Z</time>
      </trkpt>
      <trkpt lat="45.68338" lon="6.28562">
        <ele>1564.6</ele>
        <time>2015-11-03T11:07:27Z</time>
      </trkpt>
      <trkpt lat="45.6833" lon="6.28572">
        <ele>1562</ele>
        <time>2015-11-03T11:07:30Z</time>
      </trkpt>
      <trkpt lat="45.68321" lon="6.28579">
        <ele>1560.5</ele>
        <time>2015-11-03T11:07:33Z</time>
      </trkpt>
      <trkpt lat="45.68312" lon="6.28582">
        <ele>1559.2</ele>
        <time>2015-11-03T11:07:36Z</time>
      </trkpt>
      <trkpt lat="45.68301" lon="6.28583">
        <ele>1556.4</ele>
        <time>2015-11-03T11:07:40Z</time>
      </trkpt>
      <trkpt lat="45.68291" lon="6.28588">
        <ele>1553.1</ele>
        <time>2015-11-03T11:07:44Z</time>
      </trkpt>
      <trkpt lat="45.68292" lon="6.28603">
        <ele>1549.2</ele>
        <time>2015-11-03T11:07:52Z</time>
      </trkpt>
      <trkpt lat="45.68306" lon="6.28621">
        <ele>1543.4</ele>
        <time>2015-11-03T11:07:58Z</time>
      </trkpt>
      <trkpt lat="45.68316" lon="6.28628">
        <ele>1541.2</ele>
        <time>2015-11-03T11:08:01Z</time>
      </trkpt>
      <trkpt lat="45.68324" lon="6.28635">
        <ele>1536.9</ele>
        <time>2015-11-03T11:08:05Z</time>
      </trkpt>
      <trkpt lat="45.68335" lon="6.28643">
        <ele>1532.4</ele>
        <time>2015-11-03T11:08:09Z</time>
      </trkpt>
      <trkpt lat="45.68346" lon="6.28647">
        <ele>1530.4</ele>
        <time>2015-11-03T11:08:12Z</time>
      </trkpt>
      <trkpt lat="45.68355" lon="6.28651">
        <ele>1528.9</ele>
        <time>2015-11-03T11:08:14Z</time>
      </trkpt>
      <trkpt lat="45.68364" lon="6.28653">
        <ele>1525.3</ele>
        <time>2015-11-03T11:08:17Z</time>
      </trkpt>
      <trkpt lat="45.68374" lon="6.28654">
        <ele>1522.3</ele>
        <time>2015-11-03T11:08:20Z</time>
      </trkpt>
      <trkpt lat="45.68385" lon="6.28657">
        <ele>1520</ele>
        <time>2015-11-03T11:08:23Z</time>
      </trkpt>
      <trkpt lat="45.68394" lon="6.28659">
        <ele>1517.5</ele>
        <time>2015-11-03T11:08:26Z</time>
      </trkpt>
      <trkpt lat="45.68404" lon="6.28661">
        <ele>1513.9</ele>
        <time>2015-11-03T11:08:29Z</time>
      </trkpt>
      <trkpt lat="45.68413" lon="6.28659">
        <ele>1512.1</ele>
        <time>2015-11-03T11:08:31Z</time>
      </trkpt>
      <trkpt lat="45.68426" lon="6.28656">
        <ele>1508.5</ele>
        <time>2015-11-03T11:08:34Z</time>
      </trkpt>
      <trkpt lat="45.68435" lon="6.28653">
        <ele>1504.1</ele>
        <time>2015-11-03T11:08:38Z</time>
      </trkpt>
      <trkpt lat="45.68447" lon="6.28648">
        <ele>1499.4</ele>
        <time>2015-11-03T11:08:50Z</time>
      </trkpt>
      <trkpt lat="45.68456" lon="6.28643">
        <ele>1498.6</ele>
        <time>2015-11-03T11:08:53Z</time>
      </trkpt>
      <trkpt lat="45.68473" lon="6.28625">
        <ele>1492.8</ele>
        <time>2015-11-03T11:08:59Z</time>
      </trkpt>
      <trkpt lat="45.68481" lon="6.28616">
        <ele>1488.9</ele>
        <time>2015-11-03T11:09:02Z</time>
      </trkpt>
      <trkpt lat="45.68488" lon="6.28606">
        <ele>1486.3</ele>
        <time>2015-11-03T11:09:05Z</time>
      </trkpt>
      <trkpt lat="45.68494" lon="6.28595">
        <ele>1484.1</ele>
        <time>2015-11-03T11:09:08Z</time>
      </trkpt>
      <trkpt lat="45.685" lon="6.28585">
        <ele>1481.8</ele>
        <time>2015-11-03T11:09:11Z</time>
      </trkpt>
      <trkpt lat="45.68507" lon="6.28576">
        <ele>1477.7</ele>
        <time>2015-11-03T11:09:19Z</time>
      </trkpt>
      <trkpt lat="45.68515" lon="6.28564">
        <ele>1475.5</ele>
        <time>2015-11-03T11:09:27Z</time>
      </trkpt>
      <trkpt lat="45.6852" lon="6.28552">
        <ele>1473.8</ele>
        <time>2015-11-03T11:09:31Z</time>
      </trkpt>
      <trkpt lat="45.68528" lon="6.2856">
        <ele>1468.6</ele>
        <time>2015-11-03T11:09:44Z</time>
      </trkpt>
      <trkpt lat="45.68529" lon="6.28574">
        <ele>1465.6</ele>
        <time>2015-11-03T11:09:49Z</time>
      </trkpt>
      <trkpt lat="45.68538" lon="6.28566">
        <ele>1460.9</ele>
        <time>2015-11-03T11:09:59Z</time>
      </trkpt>
      <trkpt lat="45.68551" lon="6.28568">
        <ele>1448.5</ele>
        <time>2015-11-03T11:10:20Z</time>
      </trkpt>
      <trkpt lat="45.68549" lon="6.28581">
        <ele>1446.8</ele>
        <time>2015-11-03T11:10:23Z</time>
      </trkpt>
      <trkpt lat="45.68549" lon="6.28594">
        <ele>1445.2</ele>
        <time>2015-11-03T11:10:27Z</time>
      </trkpt>
      <trkpt lat="45.68558" lon="6.28588">
        <ele>1441.3</ele>
        <time>2015-11-03T11:10:48Z</time>
      </trkpt>
      <trkpt lat="45.68561" lon="6.28572">
        <ele>1439.2</ele>
        <time>2015-11-03T11:10:53Z</time>
      </trkpt>
      <trkpt lat="45.68566" lon="6.28557">
        <ele>1436.7</ele>
        <time>2015-11-03T11:10:57Z</time>
      </trkpt>
      <trkpt lat="45.68572" lon="6.28567">
        <ele>1430.6</ele>
        <time>2015-11-03T11:11:09Z</time>
      </trkpt>
      <trkpt lat="45.68568" lon="6.28598">
        <ele>1426.3</ele>
        <time>2015-11-03T11:11:17Z</time>
      </trkpt>
      <trkpt lat="45.68569" lon="6.28614">
        <ele>1424.5</ele>
        <time>2015-11-03T11:11:20Z</time>
      </trkpt>
      <trkpt lat="45.68567" lon="6.2863">
        <ele>1422.6</ele>
        <time>2015-11-03T11:11:23Z</time>
      </trkpt>
      <trkpt lat="45.68566" lon="6.28643">
        <ele>1420.6</ele>
        <time>2015-11-03T11:11:26Z</time>
      </trkpt>
      <trkpt lat="45.68566" lon="6.28657">
        <ele>1417.2</ele>
        <time>2015-11-03T11:11:36Z</time>
      </trkpt>
      <trkpt lat="45.68566" lon="6.28672">
        <ele>1416.7</ele>
        <time>2015-11-03T11:11:45Z</time>
      </trkpt>
      <trkpt lat="45.68563" lon="6.28688">
        <ele>1415.1</ele>
        <time>2015-11-03T11:11:48Z</time>
      </trkpt>
      <trkpt lat="45.68564" lon="6.28705">
        <ele>1412.9</ele>
        <time>2015-11-03T11:11:53Z</time>
      </trkpt>
      <trkpt lat="45.68564" lon="6.28723">
        <ele>1411.2</ele>
        <time>2015-11-03T11:11:56Z</time>
      </trkpt>
      <trkpt lat="45.68563" lon="6.28737">
        <ele>1410</ele>
        <time>2015-11-03T11:11:59Z</time>
      </trkpt>
      <trkpt lat="45.68563" lon="6.28751">
        <ele>1408.6</ele>
        <time>2015-11-03T11:12:03Z</time>
      </trkpt>
      <trkpt lat="45.68559" lon="6.28767">
        <ele>1406.9</ele>
        <time>2015-11-03T11:12:07Z</time>
      </trkpt>
      <trkpt lat="45.68552" lon="6.28777">
        <ele>1404.9</ele>
        <time>2015-11-03T11:12:10Z</time>
      </trkpt>
      <trkpt lat="45.68534" lon="6.28785">
        <ele>1401.5</ele>
        <time>2015-11-03T11:12:16Z</time>
      </trkpt>
      <trkpt lat="45.68522" lon="6.28793">
        <ele>1399.9</ele>
        <time>2015-11-03T11:12:19Z</time>
      </trkpt>
      <trkpt lat="45.68513" lon="6.28805">
        <ele>1398.1</ele>
        <time>2015-11-03T11:12:22Z</time>
      </trkpt>
      <trkpt lat="45.68505" lon="6.28813">
        <ele>1396.5</ele>
        <time>2015-11-03T11:12:24Z</time>
      </trkpt>
      <trkpt lat="45.68497" lon="6.28824">
        <ele>1394.5</ele>
        <time>2015-11-03T11:12:27Z</time>
      </trkpt>
      <trkpt lat="45.68488" lon="6.28834">
        <ele>1392.6</ele>
        <time>2015-11-03T11:12:30Z</time>
      </trkpt>
      <trkpt lat="45.68481" lon="6.28844">
        <ele>1392</ele>
        <time>2015-11-03T11:12:33Z</time>
      </trkpt>
      <trkpt lat="45.68473" lon="6.28853">
        <ele>1390</ele>
        <time>2015-11-03T11:12:36Z</time>
      </trkpt>
      <trkpt lat="45.68464" lon="6.28863">
        <ele>1387.9</ele>
        <time>2015-11-03T11:12:39Z</time>
      </trkpt>
      <trkpt lat="45.68453" lon="6.28873">
        <ele>1386.4</ele>
        <time>2015-11-03T11:12:42Z</time>
      </trkpt>
      <trkpt lat="45.68447" lon="6.28884">
        <ele>1385.7</ele>
        <time>2015-11-03T11:12:45Z</time>
      </trkpt>
      <trkpt lat="45.68443" lon="6.28898">
        <ele>1383.6</ele>
        <time>2015-11-03T11:12:48Z</time>
      </trkpt>
      <trkpt lat="45.68441" lon="6.28911">
        <ele>1382</ele>
        <time>2015-11-03T11:12:50Z</time>
      </trkpt>
      <trkpt lat="45.68439" lon="6.28926">
        <ele>1379.9</ele>
        <time>2015-11-03T11:12:53Z</time>
      </trkpt>
      <trkpt lat="45.6844" lon="6.28939">
        <ele>1377.2</ele>
        <time>2015-11-03T11:12:56Z</time>
      </trkpt>
      <trkpt lat="45.68437" lon="6.28953">
        <ele>1375.5</ele>
        <time>2015-11-03T11:13:03Z</time>
      </trkpt>
      <trkpt lat="45.68444" lon="6.28943">
        <ele>1372.3</ele>
        <time>2015-11-03T11:13:20Z</time>
      </trkpt>
      <trkpt lat="45.68459" lon="6.28923">
        <ele>1368.5</ele>
        <time>2015-11-03T11:13:29Z</time>
      </trkpt>
      <trkpt lat="45.68469" lon="6.28919">
        <ele>1366.4</ele>
        <time>2015-11-03T11:13:33Z</time>
      </trkpt>
      <trkpt lat="45.68477" lon="6.28912">
        <ele>1362.9</ele>
        <time>2015-11-03T11:13:41Z</time>
      </trkpt>
      <trkpt lat="45.68484" lon="6.28902">
        <ele>1362.9</ele>
        <time>2015-11-03T11:13:51Z</time>
      </trkpt>
      <trkpt lat="45.68495" lon="6.289">
        <ele>1360.7</ele>
        <time>2015-11-03T11:13:55Z</time>
      </trkpt>
      <trkpt lat="45.68509" lon="6.28897">
        <ele>1358.4</ele>
        <time>2015-11-03T11:13:58Z</time>
      </trkpt>
      <trkpt lat="45.68518" lon="6.28896">
        <ele>1356.5</ele>
        <time>2015-11-03T11:14:00Z</time>
      </trkpt>
      <trkpt lat="45.6853" lon="6.28897">
        <ele>1355.2</ele>
        <time>2015-11-03T11:14:03Z</time>
      </trkpt>
      <trkpt lat="45.6854" lon="6.28897">
        <ele>1352.5</ele>
        <time>2015-11-03T11:14:06Z</time>
      </trkpt>
      <trkpt lat="45.68549" lon="6.28894">
        <ele>1351</ele>
        <time>2015-11-03T11:14:09Z</time>
      </trkpt>
      <trkpt lat="45.68559" lon="6.28891">
        <ele>1350.2</ele>
        <time>2015-11-03T11:14:12Z</time>
      </trkpt>
      <trkpt lat="45.68568" lon="6.28889">
        <ele>1348.7</ele>
        <time>2015-11-03T11:14:15Z</time>
      </trkpt>
      <trkpt lat="45.68578" lon="6.2888">
        <ele>1347</ele>
        <time>2015-11-03T11:14:19Z</time>
      </trkpt>
      <trkpt lat="45.68587" lon="6.28874">
        <ele>1345.7</ele>
        <time>2015-11-03T11:14:22Z</time>
      </trkpt>
      <trkpt lat="45.68603" lon="6.28849">
        <ele>1341.5</ele>
        <time>2015-11-03T11:14:29Z</time>
      </trkpt>
      <trkpt lat="45.68611" lon="6.28836">
        <ele>1338.9</ele>
        <time>2015-11-03T11:14:32Z</time>
      </trkpt>
      <trkpt lat="45.68617" lon="6.28826">
        <ele>1337.7</ele>
        <time>2015-11-03T11:14:34Z</time>
      </trkpt>
      <trkpt lat="45.68622" lon="6.28813">
        <ele>1335.9</ele>
        <time>2015-11-03T11:14:36Z</time>
      </trkpt>
      <trkpt lat="45.68629" lon="6.288">
        <ele>1334.4</ele>
        <time>2015-11-03T11:14:38Z</time>
      </trkpt>
      <trkpt lat="45.68637" lon="6.28788">
        <ele>1332.9</ele>
        <time>2015-11-03T11:14:41Z</time>
      </trkpt>
      <trkpt lat="45.68646" lon="6.28783">
        <ele>1330</ele>
        <time>2015-11-03T11:14:46Z</time>
      </trkpt>
      <trkpt lat="45.68651" lon="6.28795">
        <ele>1327.4</ele>
        <time>2015-11-03T11:14:54Z</time>
      </trkpt>
      <trkpt lat="45.68652" lon="6.28812">
        <ele>1324.3</ele>
        <time>2015-11-03T11:15:00Z</time>
      </trkpt>
      <trkpt lat="45.68655" lon="6.28827">
        <ele>1322.3</ele>
        <time>2015-11-03T11:15:07Z</time>
      </trkpt>
      <trkpt lat="45.68652" lon="6.28843">
        <ele>1320.4</ele>
        <time>2015-11-03T11:15:11Z</time>
      </trkpt>
      <trkpt lat="45.68649" lon="6.28856">
        <ele>1318.4</ele>
        <time>2015-11-03T11:15:15Z</time>
      </trkpt>
      <trkpt lat="45.68646" lon="6.2887">
        <ele>1315.6</ele>
        <time>2015-11-03T11:15:21Z</time>
      </trkpt>
      <trkpt lat="45.68641" lon="6.28881">
        <ele>1314.1</ele>
        <time>2015-11-03T11:15:25Z</time>
      </trkpt>
      <trkpt lat="45.68627" lon="6.28903">
        <ele>1311.7</ele>
        <time>2015-11-03T11:15:31Z</time>
      </trkpt>
      <trkpt lat="45.68619" lon="6.28911">
        <ele>1309.3</ele>
        <time>2015-11-03T11:15:35Z</time>
      </trkpt>
      <trkpt lat="45.68611" lon="6.28917">
        <ele>1307.8</ele>
        <time>2015-11-03T11:15:39Z</time>
      </trkpt>
      <trkpt lat="45.68603" lon="6.28926">
        <ele>1305.4</ele>
        <time>2015-11-03T11:15:46Z</time>
      </trkpt>
      <trkpt lat="45.68593" lon="6.28931">
        <ele>1304.9</ele>
        <time>2015-11-03T11:15:51Z</time>
      </trkpt>
      <trkpt lat="45.68583" lon="6.28936">
        <ele>1303.7</ele>
        <time>2015-11-03T11:15:54Z</time>
      </trkpt>
      <trkpt lat="45.68575" lon="6.28951">
        <ele>1302.4</ele>
        <time>2015-11-03T11:15:58Z</time>
      </trkpt>
      <trkpt lat="45.68568" lon="6.28963">
        <ele>1301.5</ele>
        <time>2015-11-03T11:16:00Z</time>
      </trkpt>
      <trkpt lat="45.68563" lon="6.28977">
        <ele>1300.1</ele>
        <time>2015-11-03T11:16:04Z</time>
      </trkpt>
      <trkpt lat="45.68559" lon="6.28989">
        <ele>1297.9</ele>
        <time>2015-11-03T11:16:10Z</time>
      </trkpt>
      <trkpt lat="45.68569" lon="6.28991">
        <ele>1295.2</ele>
        <time>2015-11-03T11:16:14Z</time>
      </trkpt>
      <trkpt lat="45.68569" lon="6.29006">
        <ele>1290.3</ele>
        <time>2015-11-03T11:16:32Z</time>
      </trkpt>
      <trkpt lat="45.68569" lon="6.29024">
        <ele>1285</ele>
        <time>2015-11-03T11:16:46Z</time>
      </trkpt>
      <trkpt lat="45.6858" lon="6.29021">
        <ele>1281.6</ele>
        <time>2015-11-03T11:16:52Z</time>
      </trkpt>
      <trkpt lat="45.68587" lon="6.29014">
        <ele>1279.9</ele>
        <time>2015-11-03T11:16:56Z</time>
      </trkpt>
      <trkpt lat="45.68587" lon="6.29028">
        <ele>1275</ele>
        <time>2015-11-03T11:17:08Z</time>
      </trkpt>
      <trkpt lat="45.68581" lon="6.2904">
        <ele>1272.3</ele>
        <time>2015-11-03T11:17:12Z</time>
      </trkpt>
      <trkpt lat="45.68575" lon="6.29052">
        <ele>1269.6</ele>
        <time>2015-11-03T11:17:16Z</time>
      </trkpt>
      <trkpt lat="45.68573" lon="6.29065">
        <ele>1266.1</ele>
        <time>2015-11-03T11:17:26Z</time>
      </trkpt>
      <trkpt lat="45.68583" lon="6.2906">
        <ele>1264.4</ele>
        <time>2015-11-03T11:17:32Z</time>
      </trkpt>
      <trkpt lat="45.68594" lon="6.29056">
        <ele>1262.9</ele>
        <time>2015-11-03T11:17:35Z</time>
      </trkpt>
      <trkpt lat="45.68614" lon="6.2906">
        <ele>1257.3</ele>
        <time>2015-11-03T11:17:42Z</time>
      </trkpt>
      <trkpt lat="45.68625" lon="6.29055">
        <ele>1252.1</ele>
        <time>2015-11-03T11:17:47Z</time>
      </trkpt>
      <trkpt lat="45.68633" lon="6.29064">
        <ele>1246.1</ele>
        <time>2015-11-03T11:17:53Z</time>
      </trkpt>
      <trkpt lat="45.68638" lon="6.29075">
        <ele>1238.8</ele>
        <time>2015-11-03T11:18:02Z</time>
      </trkpt>
      <trkpt lat="45.6863" lon="6.29084">
        <ele>1235.8</ele>
        <time>2015-11-03T11:18:07Z</time>
      </trkpt>
      <trkpt lat="45.68621" lon="6.29088">
        <ele>1235.8</ele>
        <time>2015-11-03T11:18:14Z</time>
      </trkpt>
      <trkpt lat="45.68612" lon="6.2909">
        <ele>1237.3</ele>
        <time>2015-11-03T11:18:21Z</time>
      </trkpt>
      <trkpt lat="45.68605" lon="6.29099">
        <ele>1238.7</ele>
        <time>2015-11-03T11:18:38Z</time>
      </trkpt>
      <trkpt lat="45.68595" lon="6.29114">
        <ele>1239.1</ele>
        <time>2015-11-03T11:19:25Z</time>
      </trkpt>
      <trkpt lat="45.68597" lon="6.29127">
        <ele>1240.4</ele>
        <time>2015-11-03T11:19:31Z</time>
      </trkpt>
      <trkpt lat="45.68599" lon="6.2914">
        <ele>1241.9</ele>
        <time>2015-11-03T11:19:40Z</time>
      </trkpt>
      <trkpt lat="45.68606" lon="6.29165">
        <ele>1242.4</ele>
        <time>2015-11-03T11:20:37Z</time>
      </trkpt>
      <trkpt lat="45.68601" lon="6.29177">
        <ele>1245.4</ele>
        <time>2015-11-03T11:20:46Z</time>
      </trkpt>
      <trkpt lat="45.68591" lon="6.29199">
        <ele>1250.6</ele>
        <time>2015-11-03T11:21:06Z</time>
      </trkpt>
      <trkpt lat="45.68588" lon="6.29212">
        <ele>1253</ele>
        <time>2015-11-03T11:21:17Z</time>
      </trkpt>
      <trkpt lat="45.68585" lon="6.29225">
        <ele>1256.2</ele>
        <time>2015-11-03T11:21:30Z</time>
      </trkpt>
      <trkpt lat="45.68586" lon="6.29238">
        <ele>1257.6</ele>
        <time>2015-11-03T11:21:40Z</time>
      </trkpt>
      <trkpt lat="45.68589" lon="6.2925">
        <ele>1260.4</ele>
        <time>2015-11-03T11:21:49Z</time>
      </trkpt>
      <trkpt lat="45.68591" lon="6.29275">
        <ele>1265.7</ele>
        <time>2015-11-03T11:22:08Z</time>
      </trkpt>
      <trkpt lat="45.68584" lon="6.29282">
        <ele>1266.7</ele>
        <time>2015-11-03T11:22:18Z</time>
      </trkpt>
      <trkpt lat="45.6858" lon="6.29294">
        <ele>1268.6</ele>
        <time>2015-11-03T11:22:29Z</time>
      </trkpt>
      <trkpt lat="45.68579" lon="6.29307">
        <ele>1270.8</ele>
        <time>2015-11-03T11:22:39Z</time>
      </trkpt>
      <trkpt lat="45.68576" lon="6.2932">
        <ele>1273.1</ele>
        <time>2015-11-03T11:22:48Z</time>
      </trkpt>
      <trkpt lat="45.68573" lon="6.29333">
        <ele>1274.9</ele>
        <time>2015-11-03T11:22:58Z</time>
      </trkpt>
      <trkpt lat="45.68568" lon="6.29358">
        <ele>1279</ele>
        <time>2015-11-03T11:23:18Z</time>
      </trkpt>
      <trkpt lat="45.68564" lon="6.2937">
        <ele>1282.9</ele>
        <time>2015-11-03T11:23:30Z</time>
      </trkpt>
      <trkpt lat="45.6856" lon="6.29383">
        <ele>1285</ele>
        <time>2015-11-03T11:23:41Z</time>
      </trkpt>
      <trkpt lat="45.68556" lon="6.29394">
        <ele>1286.9</ele>
        <time>2015-11-03T11:23:50Z</time>
      </trkpt>
      <trkpt lat="45.68554" lon="6.29408">
        <ele>1288.5</ele>
        <time>2015-11-03T11:24:00Z</time>
      </trkpt>
      <trkpt lat="45.68557" lon="6.29435">
        <ele>1292.6</ele>
        <time>2015-11-03T11:24:19Z</time>
      </trkpt>
      <trkpt lat="45.68561" lon="6.29448">
        <ele>1294.6</ele>
        <time>2015-11-03T11:24:29Z</time>
      </trkpt>
      <trkpt lat="45.68566" lon="6.29459">
        <ele>1296.4</ele>
        <time>2015-11-03T11:24:38Z</time>
      </trkpt>
      <trkpt lat="45.68572" lon="6.2947">
        <ele>1298.4</ele>
        <time>2015-11-03T11:24:47Z</time>
      </trkpt>
      <trkpt lat="45.68578" lon="6.2948">
        <ele>1300.7</ele>
        <time>2015-11-03T11:24:56Z</time>
      </trkpt>
      <trkpt lat="45.68579" lon="6.29494">
        <ele>1303.4</ele>
        <time>2015-11-03T11:25:07Z</time>
      </trkpt>
      <trkpt lat="45.68569" lon="6.29516">
        <ele>1306.7</ele>
        <time>2015-11-03T11:25:26Z</time>
      </trkpt>
      <trkpt lat="45.68566" lon="6.29528">
        <ele>1308.4</ele>
        <time>2015-11-03T11:25:36Z</time>
      </trkpt>
      <trkpt lat="45.68564" lon="6.29541">
        <ele>1310.4</ele>
        <time>2015-11-03T11:25:45Z</time>
      </trkpt>
      <trkpt lat="45.68558" lon="6.29551">
        <ele>1311.9</ele>
        <time>2015-11-03T11:25:54Z</time>
      </trkpt>
      <trkpt lat="45.68554" lon="6.29564">
        <ele>1314.4</ele>
        <time>2015-11-03T11:26:03Z</time>
      </trkpt>
      <trkpt lat="45.68549" lon="6.29576">
        <ele>1315.4</ele>
        <time>2015-11-03T11:26:52Z</time>
      </trkpt>
      <trkpt lat="45.68538" lon="6.29597">
        <ele>1319.8</ele>
        <time>2015-11-03T11:27:21Z</time>
      </trkpt>
      <trkpt lat="45.6853" lon="6.29606">
        <ele>1321.7</ele>
        <time>2015-11-03T11:27:30Z</time>
      </trkpt>
      <trkpt lat="45.68523" lon="6.29614">
        <ele>1323.2</ele>
        <time>2015-11-03T11:27:38Z</time>
      </trkpt>
      <trkpt lat="45.68513" lon="6.29613">
        <ele>1324.6</ele>
        <time>2015-11-03T11:28:06Z</time>
      </trkpt>
      <trkpt lat="45.68513" lon="6.29615">
        <ele>1323.8</ele>
        <time>2015-11-03T11:28:57Z</time>
      </trkpt>
      <trkpt lat="45.68518" lon="6.29625">
        <ele>1323.2</ele>
        <time>2015-11-03T11:29:46Z</time>
      </trkpt>
      <trkpt lat="45.6853" lon="6.29643">
        <ele>1315.7</ele>
        <time>2015-11-03T11:32:15Z</time>
      </trkpt>
      <trkpt lat="45.68539" lon="6.29636">
        <ele>1312.3</ele>
        <time>2015-11-03T11:32:20Z</time>
      </trkpt>
      <trkpt lat="45.68541" lon="6.29652">
        <ele>1307.6</ele>
        <time>2015-11-03T11:32:29Z</time>
      </trkpt>
      <trkpt lat="45.68536" lon="6.29665">
        <ele>1305.4</ele>
        <time>2015-11-03T11:32:33Z</time>
      </trkpt>
      <trkpt lat="45.68529" lon="6.29676">
        <ele>1302</ele>
        <time>2015-11-03T11:32:36Z</time>
      </trkpt>
      <trkpt lat="45.68539" lon="6.2968">
        <ele>1293.4</ele>
        <time>2015-11-03T11:32:46Z</time>
      </trkpt>
      <trkpt lat="45.68534" lon="6.29694">
        <ele>1289.7</ele>
        <time>2015-11-03T11:32:54Z</time>
      </trkpt>
      <trkpt lat="45.68527" lon="6.29705">
        <ele>1286.7</ele>
        <time>2015-11-03T11:33:00Z</time>
      </trkpt>
      <trkpt lat="45.68533" lon="6.29714">
        <ele>1281.5</ele>
        <time>2015-11-03T11:33:09Z</time>
      </trkpt>
      <trkpt lat="45.68555" lon="6.29718">
        <ele>1273.8</ele>
        <time>2015-11-03T11:33:18Z</time>
      </trkpt>
      <trkpt lat="45.68565" lon="6.29723">
        <ele>1271.8</ele>
        <time>2015-11-03T11:33:22Z</time>
      </trkpt>
      <trkpt lat="45.68574" lon="6.29724">
        <ele>1269.3</ele>
        <time>2015-11-03T11:33:25Z</time>
      </trkpt>
      <trkpt lat="45.68576" lon="6.29737">
        <ele>1262.9</ele>
        <time>2015-11-03T11:33:32Z</time>
      </trkpt>
      <trkpt lat="45.68572" lon="6.29749">
        <ele>1260.5</ele>
        <time>2015-11-03T11:33:35Z</time>
      </trkpt>
      <trkpt lat="45.68565" lon="6.29759">
        <ele>1257.4</ele>
        <time>2015-11-03T11:33:38Z</time>
      </trkpt>
      <trkpt lat="45.68572" lon="6.29768">
        <ele>1250.7</ele>
        <time>2015-11-03T11:33:47Z</time>
      </trkpt>
      <trkpt lat="45.68583" lon="6.29769">
        <ele>1248.2</ele>
        <time>2015-11-03T11:33:50Z</time>
      </trkpt>
      <trkpt lat="45.68592" lon="6.29767">
        <ele>1246</ele>
        <time>2015-11-03T11:33:53Z</time>
      </trkpt>
      <trkpt lat="45.68604" lon="6.29767">
        <ele>1244.3</ele>
        <time>2015-11-03T11:33:56Z</time>
      </trkpt>
      <trkpt lat="45.68614" lon="6.29765">
        <ele>1242.1</ele>
        <time>2015-11-03T11:33:59Z</time>
      </trkpt>
      <trkpt lat="45.68617" lon="6.29777">
        <ele>1236.2</ele>
        <time>2015-11-03T11:34:08Z</time>
      </trkpt>
      <trkpt lat="45.68628" lon="6.29775">
        <ele>1233.3</ele>
        <time>2015-11-03T11:34:13Z</time>
      </trkpt>
      <trkpt lat="45.68642" lon="6.29779">
        <ele>1227.3</ele>
        <time>2015-11-03T11:34:23Z</time>
      </trkpt>
      <trkpt lat="45.68637" lon="6.2979">
        <ele>1223.2</ele>
        <time>2015-11-03T11:34:28Z</time>
      </trkpt>
      <trkpt lat="45.6864" lon="6.29802">
        <ele>1215.9</ele>
        <time>2015-11-03T11:34:43Z</time>
      </trkpt>
      <trkpt lat="45.68651" lon="6.29803">
        <ele>1213.1</ele>
        <time>2015-11-03T11:34:49Z</time>
      </trkpt>
      <trkpt lat="45.6866" lon="6.29798">
        <ele>1210.6</ele>
        <time>2015-11-03T11:34:52Z</time>
      </trkpt>
      <trkpt lat="45.6867" lon="6.29791">
        <ele>1209.2</ele>
        <time>2015-11-03T11:34:55Z</time>
      </trkpt>
      <trkpt lat="45.68674" lon="6.29777">
        <ele>1207.4</ele>
        <time>2015-11-03T11:34:59Z</time>
      </trkpt>
      <trkpt lat="45.6868" lon="6.29766">
        <ele>1204.1</ele>
        <time>2015-11-03T11:35:03Z</time>
      </trkpt>
      <trkpt lat="45.68687" lon="6.29775">
        <ele>1200.6</ele>
        <time>2015-11-03T11:35:10Z</time>
      </trkpt>
      <trkpt lat="45.68693" lon="6.29784">
        <ele>1197.5</ele>
        <time>2015-11-03T11:35:14Z</time>
      </trkpt>
      <trkpt lat="45.68699" lon="6.29797">
        <ele>1193.9</ele>
        <time>2015-11-03T11:35:18Z</time>
      </trkpt>
      <trkpt lat="45.68697" lon="6.29824">
        <ele>1185.2</ele>
        <time>2015-11-03T11:35:27Z</time>
      </trkpt>
      <trkpt lat="45.68702" lon="6.29837">
        <ele>1178.5</ele>
        <time>2015-11-03T11:35:38Z</time>
      </trkpt>
      <trkpt lat="45.68714" lon="6.29834">
        <ele>1173.5</ele>
        <time>2015-11-03T11:35:43Z</time>
      </trkpt>
      <trkpt lat="45.68723" lon="6.29833">
        <ele>1171</ele>
        <time>2015-11-03T11:35:45Z</time>
      </trkpt>
      <trkpt lat="45.68734" lon="6.2983">
        <ele>1167.9</ele>
        <time>2015-11-03T11:35:48Z</time>
      </trkpt>
      <trkpt lat="45.68743" lon="6.29823">
        <ele>1164.6</ele>
        <time>2015-11-03T11:35:51Z</time>
      </trkpt>
      <trkpt lat="45.68752" lon="6.29817">
        <ele>1160</ele>
        <time>2015-11-03T11:35:58Z</time>
      </trkpt>
      <trkpt lat="45.6876" lon="6.29827">
        <ele>1158.1</ele>
        <time>2015-11-03T11:36:02Z</time>
      </trkpt>
      <trkpt lat="45.68761" lon="6.29842">
        <ele>1155.8</ele>
        <time>2015-11-03T11:36:05Z</time>
      </trkpt>
      <trkpt lat="45.68768" lon="6.2985">
        <ele>1149.2</ele>
        <time>2015-11-03T11:36:15Z</time>
      </trkpt>
      <trkpt lat="45.68777" lon="6.29843">
        <ele>1147.7</ele>
        <time>2015-11-03T11:36:18Z</time>
      </trkpt>
      <trkpt lat="45.68786" lon="6.29848">
        <ele>1143.3</ele>
        <time>2015-11-03T11:36:28Z</time>
      </trkpt>
      <trkpt lat="45.68789" lon="6.29868">
        <ele>1133.6</ele>
        <time>2015-11-03T11:36:46Z</time>
      </trkpt>
      <trkpt lat="45.68798" lon="6.29861">
        <ele>1131.6</ele>
        <time>2015-11-03T11:36:49Z</time>
      </trkpt>
      <trkpt lat="45.688" lon="6.29875">
        <ele>1126.6</ele>
        <time>2015-11-03T11:37:07Z</time>
      </trkpt>
      <trkpt lat="45.68793" lon="6.29885">
        <ele>1124.2</ele>
        <time>2015-11-03T11:37:13Z</time>
      </trkpt>
      <trkpt lat="45.68801" lon="6.29876">
        <ele>1119.1</ele>
        <time>2015-11-03T11:37:24Z</time>
      </trkpt>
      <trkpt lat="45.68809" lon="6.29868">
        <ele>1117.3</ele>
        <time>2015-11-03T11:37:28Z</time>
      </trkpt>
      <trkpt lat="45.68815" lon="6.2988">
        <ele>1114.7</ele>
        <time>2015-11-03T11:37:34Z</time>
      </trkpt>
      <trkpt lat="45.68833" lon="6.29881">
        <ele>1107.7</ele>
        <time>2015-11-03T11:37:53Z</time>
      </trkpt>
      <trkpt lat="45.68842" lon="6.29887">
        <ele>1106.7</ele>
        <time>2015-11-03T11:38:05Z</time>
      </trkpt>
      <trkpt lat="45.6884" lon="6.29901">
        <ele>1104.7</ele>
        <time>2015-11-03T11:38:13Z</time>
      </trkpt>
      <trkpt lat="45.68846" lon="6.29889">
        <ele>1099.1</ele>
        <time>2015-11-03T11:38:26Z</time>
      </trkpt>
      <trkpt lat="45.68852" lon="6.299">
        <ele>1093.8</ele>
        <time>2015-11-03T11:38:36Z</time>
      </trkpt>
      <trkpt lat="45.68849" lon="6.2993">
        <ele>1089.7</ele>
        <time>2015-11-03T11:38:46Z</time>
      </trkpt>
      <trkpt lat="45.68845" lon="6.29944">
        <ele>1089.1</ele>
        <time>2015-11-03T11:38:49Z</time>
      </trkpt>
      <trkpt lat="45.68852" lon="6.29933">
        <ele>1083</ele>
        <time>2015-11-03T11:39:14Z</time>
      </trkpt>
      <trkpt lat="45.68861" lon="6.29921">
        <ele>1082.5</ele>
        <time>2015-11-03T11:39:17Z</time>
      </trkpt>
      <trkpt lat="45.68863" lon="6.29934">
        <ele>1078.9</ele>
        <time>2015-11-03T11:39:26Z</time>
      </trkpt>
      <trkpt lat="45.68873" lon="6.29932">
        <ele>1074.2</ele>
        <time>2015-11-03T11:39:38Z</time>
      </trkpt>
      <trkpt lat="45.68877" lon="6.29959">
        <ele>1068.6</ele>
        <time>2015-11-03T11:39:48Z</time>
      </trkpt>
      <trkpt lat="45.68885" lon="6.29953">
        <ele>1061.5</ele>
        <time>2015-11-03T11:40:00Z</time>
      </trkpt>
      <trkpt lat="45.68888" lon="6.29941">
        <ele>1058.4</ele>
        <time>2015-11-03T11:40:05Z</time>
      </trkpt>
      <trkpt lat="45.68892" lon="6.29954">
        <ele>1054.3</ele>
        <time>2015-11-03T11:40:22Z</time>
      </trkpt>
      <trkpt lat="45.68895" lon="6.29968">
        <ele>1051.9</ele>
        <time>2015-11-03T11:40:26Z</time>
      </trkpt>
      <trkpt lat="45.68896" lon="6.29985">
        <ele>1050.5</ele>
        <time>2015-11-03T11:40:29Z</time>
      </trkpt>
      <trkpt lat="45.68902" lon="6.29995">
        <ele>1043.5</ele>
        <time>2015-11-03T11:40:40Z</time>
      </trkpt>
      <trkpt lat="45.68907" lon="6.30018">
        <ele>1038.1</ele>
        <time>2015-11-03T11:40:53Z</time>
      </trkpt>
      <trkpt lat="45.68903" lon="6.30031">
        <ele>1035.5</ele>
        <time>2015-11-03T11:40:57Z</time>
      </trkpt>
      <trkpt lat="45.68913" lon="6.30032">
        <ele>1029.9</ele>
        <time>2015-11-03T11:41:06Z</time>
      </trkpt>
      <trkpt lat="45.68912" lon="6.30047">
        <ele>1026</ele>
        <time>2015-11-03T11:41:24Z</time>
      </trkpt>
      <trkpt lat="45.68905" lon="6.30061">
        <ele>1023</ele>
        <time>2015-11-03T11:41:27Z</time>
      </trkpt>
      <trkpt lat="45.68898" lon="6.30071">
        <ele>1019.8</ele>
        <time>2015-11-03T11:41:30Z</time>
      </trkpt>
      <trkpt lat="45.68894" lon="6.30085">
        <ele>1014.7</ele>
        <time>2015-11-03T11:41:34Z</time>
      </trkpt>
      <trkpt lat="45.68889" lon="6.301">
        <ele>1011.4</ele>
        <time>2015-11-03T11:41:37Z</time>
      </trkpt>
      <trkpt lat="45.68884" lon="6.30113">
        <ele>1007.6</ele>
        <time>2015-11-03T11:41:40Z</time>
      </trkpt>
      <trkpt lat="45.68876" lon="6.30122">
        <ele>1003.8</ele>
        <time>2015-11-03T11:41:47Z</time>
      </trkpt>
      <trkpt lat="45.68877" lon="6.30153">
        <ele>1000.2</ele>
        <time>2015-11-03T11:41:56Z</time>
      </trkpt>
      <trkpt lat="45.68872" lon="6.30165">
        <ele>996.8</ele>
        <time>2015-11-03T11:42:00Z</time>
      </trkpt>
      <trkpt lat="45.68865" lon="6.30176">
        <ele>993.3</ele>
        <time>2015-11-03T11:42:04Z</time>
      </trkpt>
      <trkpt lat="45.68855" lon="6.30186">
        <ele>991</ele>
        <time>2015-11-03T11:42:07Z</time>
      </trkpt>
      <trkpt lat="45.68847" lon="6.30193">
        <ele>989</ele>
        <time>2015-11-03T11:42:09Z</time>
      </trkpt>
      <trkpt lat="45.68835" lon="6.30202">
        <ele>985.5</ele>
        <time>2015-11-03T11:42:12Z</time>
      </trkpt>
      <trkpt lat="45.68823" lon="6.30206">
        <ele>983.3</ele>
        <time>2015-11-03T11:42:14Z</time>
      </trkpt>
      <trkpt lat="45.68815" lon="6.30212">
        <ele>981.3</ele>
        <time>2015-11-03T11:42:16Z</time>
      </trkpt>
      <trkpt lat="45.68806" lon="6.30223">
        <ele>979.1</ele>
        <time>2015-11-03T11:42:20Z</time>
      </trkpt>
      <trkpt lat="45.688" lon="6.30233">
        <ele>978.6</ele>
        <time>2015-11-03T11:42:23Z</time>
      </trkpt>
      <trkpt lat="45.68793" lon="6.30245">
        <ele>978.3</ele>
        <time>2015-11-03T11:42:25Z</time>
      </trkpt>
      <trkpt lat="45.68784" lon="6.30259">
        <ele>977.5</ele>
        <time>2015-11-03T11:42:27Z</time>
      </trkpt>
      <trkpt lat="45.68777" lon="6.30272">
        <ele>977.1</ele>
        <time>2015-11-03T11:42:29Z</time>
      </trkpt>
      <trkpt lat="45.68771" lon="6.30282">
        <ele>976</ele>
        <time>2015-11-03T11:42:31Z</time>
      </trkpt>
      <trkpt lat="45.68763" lon="6.30299">
        <ele>975.4</ele>
        <time>2015-11-03T11:42:34Z</time>
      </trkpt>
      <trkpt lat="45.68756" lon="6.30307">
        <ele>973.9</ele>
        <time>2015-11-03T11:42:36Z</time>
      </trkpt>
      <trkpt lat="45.68748" lon="6.30319">
        <ele>972.8</ele>
        <time>2015-11-03T11:42:38Z</time>
      </trkpt>
      <trkpt lat="45.6874" lon="6.3033">
        <ele>971.6</ele>
        <time>2015-11-03T11:42:40Z</time>
      </trkpt>
      <trkpt lat="45.68733" lon="6.30338">
        <ele>969.1</ele>
        <time>2015-11-03T11:42:43Z</time>
      </trkpt>
      <trkpt lat="45.68745" lon="6.30341">
        <ele>966.7</ele>
        <time>2015-11-03T11:42:48Z</time>
      </trkpt>
      <trkpt lat="45.68757" lon="6.30334">
        <ele>966.1</ele>
        <time>2015-11-03T11:42:51Z</time>
      </trkpt>
      <trkpt lat="45.68781" lon="6.30322">
        <ele>963.5</ele>
        <time>2015-11-03T11:42:55Z</time>
      </trkpt>
      <trkpt lat="45.68795" lon="6.30314">
        <ele>962.3</ele>
        <time>2015-11-03T11:42:57Z</time>
      </trkpt>
      <trkpt lat="45.68811" lon="6.30306">
        <ele>961.3</ele>
        <time>2015-11-03T11:42:59Z</time>
      </trkpt>
      <trkpt lat="45.68827" lon="6.30297">
        <ele>959.7</ele>
        <time>2015-11-03T11:43:01Z</time>
      </trkpt>
      <trkpt lat="45.68844" lon="6.30289">
        <ele>958.3</ele>
        <time>2015-11-03T11:43:03Z</time>
      </trkpt>
      <trkpt lat="45.68852" lon="6.30285">
        <ele>957.6</ele>
        <time>2015-11-03T11:43:04Z</time>
      </trkpt>
      <trkpt lat="45.68861" lon="6.30281">
        <ele>957.1</ele>
        <time>2015-11-03T11:43:05Z</time>
      </trkpt>
      <trkpt lat="45.68869" lon="6.30278">
        <ele>956.8</ele>
        <time>2015-11-03T11:43:06Z</time>
      </trkpt>
      <trkpt lat="45.68886" lon="6.30269">
        <ele>956.1</ele>
        <time>2015-11-03T11:43:08Z</time>
      </trkpt>
      <trkpt lat="45.68903" lon="6.30261">
        <ele>955.4</ele>
        <time>2015-11-03T11:43:10Z</time>
      </trkpt>
      <trkpt lat="45.68917" lon="6.30254">
        <ele>954.4</ele>
        <time>2015-11-03T11:43:12Z</time>
      </trkpt>
      <trkpt lat="45.68925" lon="6.30264">
        <ele>956.2</ele>
        <time>2015-11-03T11:43:24Z</time>
      </trkpt>
      <trkpt lat="45.68936" lon="6.30264">
        <ele>955.4</ele>
        <time>2015-11-03T11:43:28Z</time>
      </trkpt>
      <trkpt lat="45.68947" lon="6.30265">
        <ele>954.7</ele>
        <time>2015-11-03T11:43:31Z</time>
      </trkpt>
      <trkpt lat="45.68958" lon="6.30274">
        <ele>953.9</ele>
        <time>2015-11-03T11:43:34Z</time>
      </trkpt>
      <trkpt lat="45.68969" lon="6.30285">
        <ele>953.1</ele>
        <time>2015-11-03T11:43:37Z</time>
      </trkpt>
      <trkpt lat="45.68978" lon="6.30292">
        <ele>952.6</ele>
        <time>2015-11-03T11:43:39Z</time>
      </trkpt>
      <trkpt lat="45.68987" lon="6.30304">
        <ele>950.6</ele>
        <time>2015-11-03T11:43:42Z</time>
      </trkpt>
      <trkpt lat="45.68989" lon="6.30318">
        <ele>949.1</ele>
        <time>2015-11-03T11:43:45Z</time>
      </trkpt>
      <trkpt lat="45.68994" lon="6.30334">
        <ele>947.6</ele>
        <time>2015-11-03T11:43:48Z</time>
      </trkpt>
      <trkpt lat="45.69" lon="6.30349">
        <ele>944.6</ele>
        <time>2015-11-03T11:43:51Z</time>
      </trkpt>
      <trkpt lat="45.69009" lon="6.30358">
        <ele>941.7</ele>
        <time>2015-11-03T11:43:54Z</time>
      </trkpt>
      <trkpt lat="45.69026" lon="6.30374">
        <ele>937.9</ele>
        <time>2015-11-03T11:44:00Z</time>
      </trkpt>
      <trkpt lat="45.69039" lon="6.30381">
        <ele>935.3</ele>
        <time>2015-11-03T11:44:03Z</time>
      </trkpt>
      <trkpt lat="45.69051" lon="6.30384">
        <ele>933.5</ele>
        <time>2015-11-03T11:44:05Z</time>
      </trkpt>
      <trkpt lat="45.69063" lon="6.30388">
        <ele>932.3</ele>
        <time>2015-11-03T11:44:07Z</time>
      </trkpt>
      <trkpt lat="45.69075" lon="6.30392">
        <ele>930</ele>
        <time>2015-11-03T11:44:09Z</time>
      </trkpt>
      <trkpt lat="45.69086" lon="6.30396">
        <ele>928.7</ele>
        <time>2015-11-03T11:44:11Z</time>
      </trkpt>
      <trkpt lat="45.69099" lon="6.30399">
        <ele>926.9</ele>
        <time>2015-11-03T11:44:13Z</time>
      </trkpt>
      <trkpt lat="45.69111" lon="6.30401">
        <ele>925.6</ele>
        <time>2015-11-03T11:44:15Z</time>
      </trkpt>
      <trkpt lat="45.69122" lon="6.30403">
        <ele>924.3</ele>
        <time>2015-11-03T11:44:17Z</time>
      </trkpt>
      <trkpt lat="45.69135" lon="6.30407">
        <ele>922.6</ele>
        <time>2015-11-03T11:44:19Z</time>
      </trkpt>
      <trkpt lat="45.69146" lon="6.30413">
        <ele>921</ele>
        <time>2015-11-03T11:44:21Z</time>
      </trkpt>
      <trkpt lat="45.69154" lon="6.30421">
        <ele>919.2</ele>
        <time>2015-11-03T11:44:23Z</time>
      </trkpt>
      <trkpt lat="45.69163" lon="6.3043">
        <ele>917.7</ele>
        <time>2015-11-03T11:44:25Z</time>
      </trkpt>
      <trkpt lat="45.6917" lon="6.30438">
        <ele>916.6</ele>
        <time>2015-11-03T11:44:27Z</time>
      </trkpt>
      <trkpt lat="45.69178" lon="6.30447">
        <ele>915.1</ele>
        <time>2015-11-03T11:44:29Z</time>
      </trkpt>
      <trkpt lat="45.69184" lon="6.30458">
        <ele>913.5</ele>
        <time>2015-11-03T11:44:31Z</time>
      </trkpt>
      <trkpt lat="45.69189" lon="6.3047">
        <ele>912.5</ele>
        <time>2015-11-03T11:44:33Z</time>
      </trkpt>
      <trkpt lat="45.69195" lon="6.30483">
        <ele>910.6</ele>
        <time>2015-11-03T11:44:35Z</time>
      </trkpt>
      <trkpt lat="45.69201" lon="6.30495">
        <ele>909.6</ele>
        <time>2015-11-03T11:44:37Z</time>
      </trkpt>
      <trkpt lat="45.6921" lon="6.30504">
        <ele>908.5</ele>
        <time>2015-11-03T11:44:39Z</time>
      </trkpt>
      <trkpt lat="45.69221" lon="6.30514">
        <ele>907.1</ele>
        <time>2015-11-03T11:44:41Z</time>
      </trkpt>
      <trkpt lat="45.69232" lon="6.30524">
        <ele>905.8</ele>
        <time>2015-11-03T11:44:43Z</time>
      </trkpt>
      <trkpt lat="45.6924" lon="6.30534">
        <ele>905</ele>
        <time>2015-11-03T11:44:45Z</time>
      </trkpt>
      <trkpt lat="45.69249" lon="6.30546">
        <ele>903.9</ele>
        <time>2015-11-03T11:44:47Z</time>
      </trkpt>
      <trkpt lat="45.69258" lon="6.3056">
        <ele>901.7</ele>
        <time>2015-11-03T11:44:49Z</time>
      </trkpt>
      <trkpt lat="45.69265" lon="6.30572">
        <ele>900.9</ele>
        <time>2015-11-03T11:44:51Z</time>
      </trkpt>
      <trkpt lat="45.69272" lon="6.30581">
        <ele>899.3</ele>
        <time>2015-11-03T11:44:54Z</time>
      </trkpt>
      <trkpt lat="45.69281" lon="6.30577">
        <ele>898.5</ele>
        <time>2015-11-03T11:44:57Z</time>
      </trkpt>
      <trkpt lat="45.69295" lon="6.30556">
        <ele>898</ele>
        <time>2015-11-03T11:45:04Z</time>
      </trkpt>
      <trkpt lat="45.69302" lon="6.30543">
        <ele>898.6</ele>
        <time>2015-11-03T11:45:08Z</time>
      </trkpt>
      <trkpt lat="45.69306" lon="6.30529">
        <ele>899.1</ele>
        <time>2015-11-03T11:45:12Z</time>
      </trkpt>
      <trkpt lat="45.69309" lon="6.30517">
        <ele>899.8</ele>
        <time>2015-11-03T11:45:24Z</time>
      </trkpt>
      <trkpt lat="45.6931" lon="6.30503">
        <ele>897.9</ele>
        <time>2015-11-03T11:45:33Z</time>
      </trkpt>
      <trkpt lat="45.69315" lon="6.30491">
        <ele>898.1</ele>
        <time>2015-11-03T11:45:45Z</time>
      </trkpt>
      <trkpt lat="45.69319" lon="6.3048">
        <ele>899.7</ele>
        <time>2015-11-03T11:45:54Z</time>
      </trkpt>
      <trkpt lat="45.69324" lon="6.30469">
        <ele>899.6</ele>
        <time>2015-11-03T11:46:07Z</time>
      </trkpt>
      <trkpt lat="45.69338" lon="6.30452">
        <ele>899.9</ele>
        <time>2015-11-03T11:46:33Z</time>
      </trkpt>
      <trkpt lat="45.69349" lon="6.30451">
        <ele>899.2</ele>
        <time>2015-11-03T11:46:37Z</time>
      </trkpt>
      <trkpt lat="45.69361" lon="6.30451">
        <ele>898.6</ele>
        <time>2015-11-03T11:46:40Z</time>
      </trkpt>
      <trkpt lat="45.69373" lon="6.30452">
        <ele>897.7</ele>
        <time>2015-11-03T11:46:43Z</time>
      </trkpt>
      <trkpt lat="45.69386" lon="6.30454">
        <ele>896.6</ele>
        <time>2015-11-03T11:46:46Z</time>
      </trkpt>
      <trkpt lat="45.69396" lon="6.30454">
        <ele>896.1</ele>
        <time>2015-11-03T11:46:48Z</time>
      </trkpt>
      <trkpt lat="45.69406" lon="6.30454">
        <ele>894.9</ele>
        <time>2015-11-03T11:46:50Z</time>
      </trkpt>
      <trkpt lat="45.69416" lon="6.30454">
        <ele>894.7</ele>
        <time>2015-11-03T11:46:52Z</time>
      </trkpt>
      <trkpt lat="45.69426" lon="6.30452">
        <ele>892.5</ele>
        <time>2015-11-03T11:46:58Z</time>
      </trkpt>
      <trkpt lat="45.69435" lon="6.3045">
        <ele>891.8</ele>
        <time>2015-11-03T11:47:05Z</time>
      </trkpt>
      <trkpt lat="45.69446" lon="6.30451">
        <ele>891.5</ele>
        <time>2015-11-03T11:47:09Z</time>
      </trkpt>
      <trkpt lat="45.69471" lon="6.30455">
        <ele>890.6</ele>
        <time>2015-11-03T11:47:15Z</time>
      </trkpt>
      <trkpt lat="45.69483" lon="6.30459">
        <ele>889.6</ele>
        <time>2015-11-03T11:47:18Z</time>
      </trkpt>
      <trkpt lat="45.69492" lon="6.30457">
        <ele>888.4</ele>
        <time>2015-11-03T11:47:21Z</time>
      </trkpt>
      <trkpt lat="45.69504" lon="6.30461">
        <ele>887.4</ele>
        <time>2015-11-03T11:47:25Z</time>
      </trkpt>
      <trkpt lat="45.69512" lon="6.30467">
        <ele>887.1</ele>
        <time>2015-11-03T11:47:28Z</time>
      </trkpt>
      <trkpt lat="45.69524" lon="6.30469">
        <ele>885.6</ele>
        <time>2015-11-03T11:47:30Z</time>
      </trkpt>
      <trkpt lat="45.69537" lon="6.30469">
        <ele>884.5</ele>
        <time>2015-11-03T11:47:32Z</time>
      </trkpt>
      <trkpt lat="45.69548" lon="6.30469">
        <ele>883.5</ele>
        <time>2015-11-03T11:47:34Z</time>
      </trkpt>
      <trkpt lat="45.6956" lon="6.3047">
        <ele>882.7</ele>
        <time>2015-11-03T11:47:36Z</time>
      </trkpt>
      <trkpt lat="45.69569" lon="6.30474">
        <ele>882</ele>
        <time>2015-11-03T11:47:38Z</time>
      </trkpt>
      <trkpt lat="45.69582" lon="6.30479">
        <ele>881.4</ele>
        <time>2015-11-03T11:47:40Z</time>
      </trkpt>
      <trkpt lat="45.69594" lon="6.30481">
        <ele>880.6</ele>
        <time>2015-11-03T11:47:42Z</time>
      </trkpt>
      <trkpt lat="45.69605" lon="6.30485">
        <ele>880</ele>
        <time>2015-11-03T11:47:44Z</time>
      </trkpt>
      <trkpt lat="45.69619" lon="6.30491">
        <ele>879.2</ele>
        <time>2015-11-03T11:47:46Z</time>
      </trkpt>
      <trkpt lat="45.69631" lon="6.30497">
        <ele>878.2</ele>
        <time>2015-11-03T11:47:48Z</time>
      </trkpt>
      <trkpt lat="45.69643" lon="6.30503">
        <ele>877.5</ele>
        <time>2015-11-03T11:47:50Z</time>
      </trkpt>
      <trkpt lat="45.69657" lon="6.30507">
        <ele>877.2</ele>
        <time>2015-11-03T11:47:52Z</time>
      </trkpt>
      <trkpt lat="45.6967" lon="6.30511">
        <ele>876.5</ele>
        <time>2015-11-03T11:47:54Z</time>
      </trkpt>
      <trkpt lat="45.69682" lon="6.30517">
        <ele>876.1</ele>
        <time>2015-11-03T11:47:56Z</time>
      </trkpt>
      <trkpt lat="45.69693" lon="6.30524">
        <ele>875.2</ele>
        <time>2015-11-03T11:47:58Z</time>
      </trkpt>
      <trkpt lat="45.69704" lon="6.30532">
        <ele>874.2</ele>
        <time>2015-11-03T11:48:00Z</time>
      </trkpt>
      <trkpt lat="45.69715" lon="6.30537">
        <ele>873.8</ele>
        <time>2015-11-03T11:48:02Z</time>
      </trkpt>
      <trkpt lat="45.69729" lon="6.30538">
        <ele>873.3</ele>
        <time>2015-11-03T11:48:04Z</time>
      </trkpt>
      <trkpt lat="45.69742" lon="6.30541">
        <ele>872.8</ele>
        <time>2015-11-03T11:48:06Z</time>
      </trkpt>
      <trkpt lat="45.69752" lon="6.30546">
        <ele>871.9</ele>
        <time>2015-11-03T11:48:08Z</time>
      </trkpt>
      <trkpt lat="45.69762" lon="6.30549">
        <ele>871.2</ele>
        <time>2015-11-03T11:48:10Z</time>
      </trkpt>
      <trkpt lat="45.69783" lon="6.30559">
        <ele>870.3</ele>
        <time>2015-11-03T11:48:14Z</time>
      </trkpt>
      <trkpt lat="45.69792" lon="6.30565">
        <ele>870.2</ele>
        <time>2015-11-03T11:48:16Z</time>
      </trkpt>
      <trkpt lat="45.69801" lon="6.30569">
        <ele>869.4</ele>
        <time>2015-11-03T11:48:18Z</time>
      </trkpt>
      <trkpt lat="45.69811" lon="6.30575">
        <ele>868.9</ele>
        <time>2015-11-03T11:48:20Z</time>
      </trkpt>
      <trkpt lat="45.69822" lon="6.30582">
        <ele>868</ele>
        <time>2015-11-03T11:48:22Z</time>
      </trkpt>
      <trkpt lat="45.69835" lon="6.30586">
        <ele>867</ele>
        <time>2015-11-03T11:48:24Z</time>
      </trkpt>
      <trkpt lat="45.69848" lon="6.30591">
        <ele>865.8</ele>
        <time>2015-11-03T11:48:26Z</time>
      </trkpt>
      <trkpt lat="45.69858" lon="6.30595">
        <ele>864.9</ele>
        <time>2015-11-03T11:48:28Z</time>
      </trkpt>
      <trkpt lat="45.69869" lon="6.30603">
        <ele>864.9</ele>
        <time>2015-11-03T11:48:30Z</time>
      </trkpt>
      <trkpt lat="45.69878" lon="6.30608">
        <ele>864</ele>
        <time>2015-11-03T11:48:32Z</time>
      </trkpt>
      <trkpt lat="45.69888" lon="6.30609">
        <ele>863.3</ele>
        <time>2015-11-03T11:48:34Z</time>
      </trkpt>
      <trkpt lat="45.69898" lon="6.30608">
        <ele>863.1</ele>
        <time>2015-11-03T11:48:37Z</time>
      </trkpt>
      <trkpt lat="45.6991" lon="6.30615">
        <ele>863.3</ele>
        <time>2015-11-03T11:48:40Z</time>
      </trkpt>
      <trkpt lat="45.69921" lon="6.30619">
        <ele>863.3</ele>
        <time>2015-11-03T11:48:42Z</time>
      </trkpt>
      <trkpt lat="45.69932" lon="6.30621">
        <ele>862.6</ele>
        <time>2015-11-03T11:48:45Z</time>
      </trkpt>
      <trkpt lat="45.69945" lon="6.30622">
        <ele>861.5</ele>
        <time>2015-11-03T11:48:48Z</time>
      </trkpt>
      <trkpt lat="45.69954" lon="6.30626">
        <ele>860.4</ele>
        <time>2015-11-03T11:48:50Z</time>
      </trkpt>
      <trkpt lat="45.69963" lon="6.3063">
        <ele>860</ele>
        <time>2015-11-03T11:48:53Z</time>
      </trkpt>
      <trkpt lat="45.69973" lon="6.30636">
        <ele>859.5</ele>
        <time>2015-11-03T11:48:56Z</time>
      </trkpt>
      <trkpt lat="45.69983" lon="6.30643">
        <ele>858.9</ele>
        <time>2015-11-03T11:48:59Z</time>
      </trkpt>
      <trkpt lat="45.69992" lon="6.30644">
        <ele>858.2</ele>
        <time>2015-11-03T11:49:03Z</time>
      </trkpt>
      <trkpt lat="45.70002" lon="6.30644">
        <ele>858.1</ele>
        <time>2015-11-03T11:49:08Z</time>
      </trkpt>
      <trkpt lat="45.70011" lon="6.30649">
        <ele>857.4</ele>
        <time>2015-11-03T11:49:15Z</time>
      </trkpt>
      <trkpt lat="45.70027" lon="6.30661">
        <ele>857</ele>
        <time>2015-11-03T11:49:34Z</time>
      </trkpt>
      <trkpt lat="45.70036" lon="6.30662">
        <ele>857.1</ele>
        <time>2015-11-03T11:49:43Z</time>
      </trkpt>
      <trkpt lat="45.70045" lon="6.30669">
        <ele>857.9</ele>
        <time>2015-11-03T11:49:49Z</time>
      </trkpt>
      <trkpt lat="45.70053" lon="6.30681">
        <ele>858.4</ele>
        <time>2015-11-03T11:49:53Z</time>
      </trkpt>
      <trkpt lat="45.70062" lon="6.30691">
        <ele>857.1</ele>
        <time>2015-11-03T11:49:56Z</time>
      </trkpt>
      <trkpt lat="45.70072" lon="6.30695">
        <ele>856.6</ele>
        <time>2015-11-03T11:49:59Z</time>
      </trkpt>
      <trkpt lat="45.70084" lon="6.30698">
        <ele>856.2</ele>
        <time>2015-11-03T11:50:02Z</time>
      </trkpt>
      <trkpt lat="45.70097" lon="6.30699">
        <ele>855.9</ele>
        <time>2015-11-03T11:50:05Z</time>
      </trkpt>
      <trkpt lat="45.70109" lon="6.30698">
        <ele>855.2</ele>
        <time>2015-11-03T11:50:08Z</time>
      </trkpt>
      <trkpt lat="45.7012" lon="6.30701">
        <ele>854.4</ele>
        <time>2015-11-03T11:50:11Z</time>
      </trkpt>
      <trkpt lat="45.7013" lon="6.3071">
        <ele>853.1</ele>
        <time>2015-11-03T11:50:14Z</time>
      </trkpt>
      <trkpt lat="45.70139" lon="6.30716">
        <ele>852.6</ele>
        <time>2015-11-03T11:50:16Z</time>
      </trkpt>
      <trkpt lat="45.70158" lon="6.30733">
        <ele>850.2</ele>
        <time>2015-11-03T11:50:22Z</time>
      </trkpt>
      <trkpt lat="45.70171" lon="6.30738">
        <ele>849.9</ele>
        <time>2015-11-03T11:50:25Z</time>
      </trkpt>
      <trkpt lat="45.70182" lon="6.3074">
        <ele>849.7</ele>
        <time>2015-11-03T11:50:28Z</time>
      </trkpt>
      <trkpt lat="45.70192" lon="6.30741">
        <ele>849.8</ele>
        <time>2015-11-03T11:50:31Z</time>
      </trkpt>
      <trkpt lat="45.70205" lon="6.30743">
        <ele>849.4</ele>
        <time>2015-11-03T11:50:34Z</time>
      </trkpt>
      <trkpt lat="45.70217" lon="6.30739">
        <ele>848.9</ele>
        <time>2015-11-03T11:50:36Z</time>
      </trkpt>
      <trkpt lat="45.70229" lon="6.30731">
        <ele>847.4</ele>
        <time>2015-11-03T11:50:38Z</time>
      </trkpt>
      <trkpt lat="45.70242" lon="6.30723">
        <ele>846.8</ele>
        <time>2015-11-03T11:50:40Z</time>
      </trkpt>
      <trkpt lat="45.70255" lon="6.30716">
        <ele>846</ele>
        <time>2015-11-03T11:50:42Z</time>
      </trkpt>
      <trkpt lat="45.70268" lon="6.3071">
        <ele>845</ele>
        <time>2015-11-03T11:50:44Z</time>
      </trkpt>
      <trkpt lat="45.70279" lon="6.30706">
        <ele>843.9</ele>
        <time>2015-11-03T11:50:46Z</time>
      </trkpt>
      <trkpt lat="45.70291" lon="6.30705">
        <ele>842.9</ele>
        <time>2015-11-03T11:50:48Z</time>
      </trkpt>
      <trkpt lat="45.70302" lon="6.30705">
        <ele>842.5</ele>
        <time>2015-11-03T11:50:50Z</time>
      </trkpt>
      <trkpt lat="45.70316" lon="6.30708">
        <ele>841.9</ele>
        <time>2015-11-03T11:50:53Z</time>
      </trkpt>
      <trkpt lat="45.70326" lon="6.30711">
        <ele>841.8</ele>
        <time>2015-11-03T11:50:55Z</time>
      </trkpt>
      <trkpt lat="45.70335" lon="6.30713">
        <ele>841.7</ele>
        <time>2015-11-03T11:50:57Z</time>
      </trkpt>
      <trkpt lat="45.70344" lon="6.30714">
        <ele>841.5</ele>
        <time>2015-11-03T11:50:59Z</time>
      </trkpt>
      <trkpt lat="45.70356" lon="6.30715">
        <ele>841.1</ele>
        <time>2015-11-03T11:51:01Z</time>
      </trkpt>
      <trkpt lat="45.70367" lon="6.30716">
        <ele>840.4</ele>
        <time>2015-11-03T11:51:03Z</time>
      </trkpt>
      <trkpt lat="45.70379" lon="6.30716">
        <ele>839.4</ele>
        <time>2015-11-03T11:51:05Z</time>
      </trkpt>
      <trkpt lat="45.70391" lon="6.30717">
        <ele>838.7</ele>
        <time>2015-11-03T11:51:07Z</time>
      </trkpt>
      <trkpt lat="45.70403" lon="6.30718">
        <ele>838.8</ele>
        <time>2015-11-03T11:51:09Z</time>
      </trkpt>
      <trkpt lat="45.70414" lon="6.30719">
        <ele>838.6</ele>
        <time>2015-11-03T11:51:11Z</time>
      </trkpt>
      <trkpt lat="45.70425" lon="6.30719">
        <ele>838.2</ele>
        <time>2015-11-03T11:51:13Z</time>
      </trkpt>
      <trkpt lat="45.70435" lon="6.30717">
        <ele>838</ele>
        <time>2015-11-03T11:51:15Z</time>
      </trkpt>
      <trkpt lat="45.70445" lon="6.30714">
        <ele>837.8</ele>
        <time>2015-11-03T11:51:17Z</time>
      </trkpt>
      <trkpt lat="45.70463" lon="6.30705">
        <ele>837</ele>
        <time>2015-11-03T11:51:21Z</time>
      </trkpt>
      <trkpt lat="45.70472" lon="6.30698">
        <ele>837</ele>
        <time>2015-11-03T11:51:23Z</time>
      </trkpt>
      <trkpt lat="45.7048" lon="6.3069">
        <ele>836.6</ele>
        <time>2015-11-03T11:51:25Z</time>
      </trkpt>
      <trkpt lat="45.70487" lon="6.3068">
        <ele>836.2</ele>
        <time>2015-11-03T11:51:27Z</time>
      </trkpt>
      <trkpt lat="45.70493" lon="6.30671">
        <ele>836</ele>
        <time>2015-11-03T11:51:29Z</time>
      </trkpt>
      <trkpt lat="45.705" lon="6.30662">
        <ele>835.6</ele>
        <time>2015-11-03T11:51:31Z</time>
      </trkpt>
      <trkpt lat="45.7051" lon="6.30648">
        <ele>835.2</ele>
        <time>2015-11-03T11:51:34Z</time>
      </trkpt>
      <trkpt lat="45.70515" lon="6.30637">
        <ele>835</ele>
        <time>2015-11-03T11:51:36Z</time>
      </trkpt>
      <trkpt lat="45.7052" lon="6.30623">
        <ele>834.6</ele>
        <time>2015-11-03T11:51:39Z</time>
      </trkpt>
      <trkpt lat="45.70527" lon="6.30612">
        <ele>834.7</ele>
        <time>2015-11-03T11:51:42Z</time>
      </trkpt>
      <trkpt lat="45.70535" lon="6.30605">
        <ele>834.7</ele>
        <time>2015-11-03T11:51:45Z</time>
      </trkpt>
      <trkpt lat="45.70543" lon="6.306">
        <ele>835.1</ele>
        <time>2015-11-03T11:51:49Z</time>
      </trkpt>
      <trkpt lat="45.70553" lon="6.30595">
        <ele>836</ele>
        <time>2015-11-03T11:53:45Z</time>
      </trkpt>
      <trkpt lat="45.70571" lon="6.30584">
        <ele>836.8</ele>
        <time>2015-11-03T11:53:57Z</time>
      </trkpt>
      <trkpt lat="45.70581" lon="6.30581">
        <ele>837.2</ele>
        <time>2015-11-03T11:54:05Z</time>
      </trkpt>
      <trkpt lat="45.7059" lon="6.30578">
        <ele>838.6</ele>
        <time>2015-11-03T11:54:12Z</time>
      </trkpt>
      <trkpt lat="45.70599" lon="6.30576">
        <ele>839.1</ele>
        <time>2015-11-03T11:54:19Z</time>
      </trkpt>
      <trkpt lat="45.70609" lon="6.30572">
        <ele>839.7</ele>
        <time>2015-11-03T11:54:26Z</time>
      </trkpt>
      <trkpt lat="45.70618" lon="6.30565">
        <ele>840.9</ele>
        <time>2015-11-03T11:54:33Z</time>
      </trkpt>
      <trkpt lat="45.70628" lon="6.30564">
        <ele>842.6</ele>
        <time>2015-11-03T11:59:44Z</time>
      </trkpt>
      <trkpt lat="45.70646" lon="6.30556">
        <ele>844.6</ele>
        <time>2015-11-03T11:59:56Z</time>
      </trkpt>
      <trkpt lat="45.70655" lon="6.30552">
        <ele>845.7</ele>
        <time>2015-11-03T12:00:02Z</time>
      </trkpt>
      <trkpt lat="45.70664" lon="6.30549">
        <ele>846.3</ele>
        <time>2015-11-03T12:00:08Z</time>
      </trkpt>
      <trkpt lat="45.70675" lon="6.30545">
        <ele>847.6</ele>
        <time>2015-11-03T12:00:14Z</time>
      </trkpt>
      <trkpt lat="45.70685" lon="6.30542">
        <ele>848.2</ele>
        <time>2015-11-03T12:00:20Z</time>
      </trkpt>
      <trkpt lat="45.70695" lon="6.30538">
        <ele>849.4</ele>
        <time>2015-11-03T12:00:25Z</time>
      </trkpt>
      <trkpt lat="45.70703" lon="6.30533">
        <ele>850.3</ele>
        <time>2015-11-03T12:00:31Z</time>
      </trkpt>
      <trkpt lat="45.70712" lon="6.30528">
        <ele>851.6</ele>
        <time>2015-11-03T12:00:35Z</time>
      </trkpt>
      <trkpt lat="45.70721" lon="6.30522">
        <ele>853</ele>
        <time>2015-11-03T12:00:39Z</time>
      </trkpt>
      <trkpt lat="45.70731" lon="6.30516">
        <ele>853.2</ele>
        <time>2015-11-03T12:00:43Z</time>
      </trkpt>
      <trkpt lat="45.70739" lon="6.3051">
        <ele>854.2</ele>
        <time>2015-11-03T12:00:48Z</time>
      </trkpt>
      <trkpt lat="45.70757" lon="6.30496">
        <ele>853.7</ele>
        <time>2015-11-03T12:00:57Z</time>
      </trkpt>
      <trkpt lat="45.70765" lon="6.30491">
        <ele>854.4</ele>
        <time>2015-11-03T12:01:00Z</time>
      </trkpt>
      <trkpt lat="45.70774" lon="6.30483">
        <ele>855.1</ele>
        <time>2015-11-03T12:01:03Z</time>
      </trkpt>
      <trkpt lat="45.70785" lon="6.30476">
        <ele>855.3</ele>
        <time>2015-11-03T12:01:06Z</time>
      </trkpt>
      <trkpt lat="45.70797" lon="6.30469">
        <ele>855.2</ele>
        <time>2015-11-03T12:01:09Z</time>
      </trkpt>
      <trkpt lat="45.70808" lon="6.30463">
        <ele>855</ele>
        <time>2015-11-03T12:01:12Z</time>
      </trkpt>
      <trkpt lat="45.7082" lon="6.30458">
        <ele>854.4</ele>
        <time>2015-11-03T12:01:15Z</time>
      </trkpt>
      <trkpt lat="45.70831" lon="6.30454">
        <ele>854.1</ele>
        <time>2015-11-03T12:01:18Z</time>
      </trkpt>
      <trkpt lat="45.70843" lon="6.30449">
        <ele>853.9</ele>
        <time>2015-11-03T12:01:21Z</time>
      </trkpt>
      <trkpt lat="45.70854" lon="6.30444">
        <ele>854</ele>
        <time>2015-11-03T12:01:24Z</time>
      </trkpt>
      <trkpt lat="45.70865" lon="6.3044">
        <ele>854.2</ele>
        <time>2015-11-03T12:01:27Z</time>
      </trkpt>
      <trkpt lat="45.70875" lon="6.30435">
        <ele>854.9</ele>
        <time>2015-11-03T12:01:30Z</time>
      </trkpt>
      <trkpt lat="45.70885" lon="6.3043">
        <ele>854.9</ele>
        <time>2015-11-03T12:01:33Z</time>
      </trkpt>
      <trkpt lat="45.70896" lon="6.30425">
        <ele>855.2</ele>
        <time>2015-11-03T12:01:36Z</time>
      </trkpt>
      <trkpt lat="45.70907" lon="6.30421">
        <ele>855</ele>
        <time>2015-11-03T12:01:39Z</time>
      </trkpt>
      <trkpt lat="45.70918" lon="6.30416">
        <ele>854.9</ele>
        <time>2015-11-03T12:01:42Z</time>
      </trkpt>
      <trkpt lat="45.70929" lon="6.30413">
        <ele>854.5</ele>
        <time>2015-11-03T12:01:45Z</time>
      </trkpt>
      <trkpt lat="45.70939" lon="6.3041">
        <ele>854.5</ele>
        <time>2015-11-03T12:01:48Z</time>
      </trkpt>
      <trkpt lat="45.70948" lon="6.30407">
        <ele>854.2</ele>
        <time>2015-11-03T12:01:51Z</time>
      </trkpt>
      <trkpt lat="45.70968" lon="6.30401">
        <ele>855</ele>
        <time>2015-11-03T12:01:57Z</time>
      </trkpt>
      <trkpt lat="45.70978" lon="6.30398">
        <ele>854.2</ele>
        <time>2015-11-03T12:02:00Z</time>
      </trkpt>
      <trkpt lat="45.7099" lon="6.30395">
        <ele>854.1</ele>
        <time>2015-11-03T12:02:03Z</time>
      </trkpt>
      <trkpt lat="45.71001" lon="6.30393">
        <ele>854.9</ele>
        <time>2015-11-03T12:02:06Z</time>
      </trkpt>
      <trkpt lat="45.71013" lon="6.30393">
        <ele>854.9</ele>
        <time>2015-11-03T12:02:09Z</time>
      </trkpt>
      <trkpt lat="45.71026" lon="6.30396">
        <ele>854.9</ele>
        <time>2015-11-03T12:02:12Z</time>
      </trkpt>
      <trkpt lat="45.71037" lon="6.30395">
        <ele>854.5</ele>
        <time>2015-11-03T12:02:14Z</time>
      </trkpt>
      <trkpt lat="45.71049" lon="6.30392">
        <ele>853.6</ele>
        <time>2015-11-03T12:02:16Z</time>
      </trkpt>
      <trkpt lat="45.71062" lon="6.30387">
        <ele>853.1</ele>
        <time>2015-11-03T12:02:18Z</time>
      </trkpt>
      <trkpt lat="45.71076" lon="6.30383">
        <ele>852.5</ele>
        <time>2015-11-03T12:02:20Z</time>
      </trkpt>
      <trkpt lat="45.71089" lon="6.30379">
        <ele>851.9</ele>
        <time>2015-11-03T12:02:22Z</time>
      </trkpt>
      <trkpt lat="45.71103" lon="6.30374">
        <ele>851.2</ele>
        <time>2015-11-03T12:02:24Z</time>
      </trkpt>
      <trkpt lat="45.71116" lon="6.30368">
        <ele>850.6</ele>
        <time>2015-11-03T12:02:26Z</time>
      </trkpt>
      <trkpt lat="45.71129" lon="6.30361">
        <ele>850.3</ele>
        <time>2015-11-03T12:02:28Z</time>
      </trkpt>
      <trkpt lat="45.71141" lon="6.30349">
        <ele>849.8</ele>
        <time>2015-11-03T12:02:30Z</time>
      </trkpt>
      <trkpt lat="45.71153" lon="6.30337">
        <ele>848.4</ele>
        <time>2015-11-03T12:02:32Z</time>
      </trkpt>
      <trkpt lat="45.71167" lon="6.3033">
        <ele>847.7</ele>
        <time>2015-11-03T12:02:34Z</time>
      </trkpt>
      <trkpt lat="45.7118" lon="6.30326">
        <ele>847.1</ele>
        <time>2015-11-03T12:02:36Z</time>
      </trkpt>
      <trkpt lat="45.71191" lon="6.30323">
        <ele>847</ele>
        <time>2015-11-03T12:02:38Z</time>
      </trkpt>
      <trkpt lat="45.71202" lon="6.30322">
        <ele>847.2</ele>
        <time>2015-11-03T12:02:40Z</time>
      </trkpt>
      <trkpt lat="45.71211" lon="6.30321">
        <ele>847.5</ele>
        <time>2015-11-03T12:02:42Z</time>
      </trkpt>
      <trkpt lat="45.71223" lon="6.30318">
        <ele>848</ele>
        <time>2015-11-03T12:02:45Z</time>
      </trkpt>
      <trkpt lat="45.71234" lon="6.30316">
        <ele>848.4</ele>
        <time>2015-11-03T12:02:48Z</time>
      </trkpt>
      <trkpt lat="45.71244" lon="6.30314">
        <ele>849</ele>
        <time>2015-11-03T12:02:51Z</time>
      </trkpt>
      <trkpt lat="45.71255" lon="6.30313">
        <ele>849.8</ele>
        <time>2015-11-03T12:02:54Z</time>
      </trkpt>
      <trkpt lat="45.71276" lon="6.30307">
        <ele>851</ele>
        <time>2015-11-03T12:03:00Z</time>
      </trkpt>
      <trkpt lat="45.71287" lon="6.30304">
        <ele>851.9</ele>
        <time>2015-11-03T12:03:03Z</time>
      </trkpt>
      <trkpt lat="45.71298" lon="6.30302">
        <ele>852.5</ele>
        <time>2015-11-03T12:03:06Z</time>
      </trkpt>
      <trkpt lat="45.71309" lon="6.30303">
        <ele>852.9</ele>
        <time>2015-11-03T12:03:09Z</time>
      </trkpt>
      <trkpt lat="45.71321" lon="6.30305">
        <ele>853.4</ele>
        <time>2015-11-03T12:03:12Z</time>
      </trkpt>
      <trkpt lat="45.71333" lon="6.30305">
        <ele>854.1</ele>
        <time>2015-11-03T12:03:15Z</time>
      </trkpt>
      <trkpt lat="45.71345" lon="6.30305">
        <ele>855.5</ele>
        <time>2015-11-03T12:03:18Z</time>
      </trkpt>
      <trkpt lat="45.71356" lon="6.30303">
        <ele>856.1</ele>
        <time>2015-11-03T12:03:21Z</time>
      </trkpt>
      <trkpt lat="45.71366" lon="6.30301">
        <ele>856.9</ele>
        <time>2015-11-03T12:03:24Z</time>
      </trkpt>
      <trkpt lat="45.71377" lon="6.30299">
        <ele>857.2</ele>
        <time>2015-11-03T12:03:27Z</time>
      </trkpt>
      <trkpt lat="45.71388" lon="6.30296">
        <ele>857.7</ele>
        <time>2015-11-03T12:03:30Z</time>
      </trkpt>
      <trkpt lat="45.71399" lon="6.30292">
        <ele>858</ele>
        <time>2015-11-03T12:03:33Z</time>
      </trkpt>
      <trkpt lat="45.71411" lon="6.30283">
        <ele>857.8</ele>
        <time>2015-11-03T12:03:36Z</time>
      </trkpt>
      <trkpt lat="45.7142" lon="6.30276">
        <ele>858</ele>
        <time>2015-11-03T12:03:38Z</time>
      </trkpt>
      <trkpt lat="45.7143" lon="6.30267">
        <ele>857.7</ele>
        <time>2015-11-03T12:03:40Z</time>
      </trkpt>
      <trkpt lat="45.71441" lon="6.30258">
        <ele>856.8</ele>
        <time>2015-11-03T12:03:42Z</time>
      </trkpt>
      <trkpt lat="45.71453" lon="6.3025">
        <ele>856.1</ele>
        <time>2015-11-03T12:03:44Z</time>
      </trkpt>
      <trkpt lat="45.71466" lon="6.3024">
        <ele>856</ele>
        <time>2015-11-03T12:03:46Z</time>
      </trkpt>
      <trkpt lat="45.71478" lon="6.30228">
        <ele>855</ele>
        <time>2015-11-03T12:03:48Z</time>
      </trkpt>
      <trkpt lat="45.71489" lon="6.30216">
        <ele>854.6</ele>
        <time>2015-11-03T12:03:50Z</time>
      </trkpt>
      <trkpt lat="45.71498" lon="6.30204">
        <ele>854.2</ele>
        <time>2015-11-03T12:03:52Z</time>
      </trkpt>
      <trkpt lat="45.71505" lon="6.3019">
        <ele>854.3</ele>
        <time>2015-11-03T12:03:54Z</time>
      </trkpt>
      <trkpt lat="45.71511" lon="6.30176">
        <ele>854.7</ele>
        <time>2015-11-03T12:03:56Z</time>
      </trkpt>
      <trkpt lat="45.71521" lon="6.30149">
        <ele>854</ele>
        <time>2015-11-03T12:04:00Z</time>
      </trkpt>
      <trkpt lat="45.71529" lon="6.3014">
        <ele>853.5</ele>
        <time>2015-11-03T12:04:02Z</time>
      </trkpt>
      <trkpt lat="45.71539" lon="6.30135">
        <ele>853</ele>
        <time>2015-11-03T12:04:05Z</time>
      </trkpt>
      <trkpt lat="45.71548" lon="6.3014">
        <ele>854.4</ele>
        <time>2015-11-03T12:04:09Z</time>
      </trkpt>
      <trkpt lat="45.71559" lon="6.30142">
        <ele>854.4</ele>
        <time>2015-11-03T12:04:17Z</time>
      </trkpt>
      <trkpt lat="45.7157" lon="6.30146">
        <ele>854.7</ele>
        <time>2015-11-03T12:04:21Z</time>
      </trkpt>
      <trkpt lat="45.71579" lon="6.30149">
        <ele>855</ele>
        <time>2015-11-03T12:04:23Z</time>
      </trkpt>
      <trkpt lat="45.71589" lon="6.30154">
        <ele>854.9</ele>
        <time>2015-11-03T12:04:25Z</time>
      </trkpt>
      <trkpt lat="45.716" lon="6.30158">
        <ele>855.1</ele>
        <time>2015-11-03T12:04:27Z</time>
      </trkpt>
      <trkpt lat="45.71609" lon="6.30163">
        <ele>855.6</ele>
        <time>2015-11-03T12:04:29Z</time>
      </trkpt>
      <trkpt lat="45.71619" lon="6.30166">
        <ele>855.2</ele>
        <time>2015-11-03T12:04:31Z</time>
      </trkpt>
      <trkpt lat="45.71628" lon="6.30167">
        <ele>855.5</ele>
        <time>2015-11-03T12:04:33Z</time>
      </trkpt>
      <trkpt lat="45.71638" lon="6.30167">
        <ele>856.3</ele>
        <time>2015-11-03T12:04:35Z</time>
      </trkpt>
      <trkpt lat="45.71649" lon="6.30167">
        <ele>856.6</ele>
        <time>2015-11-03T12:04:37Z</time>
      </trkpt>
      <trkpt lat="45.7166" lon="6.30164">
        <ele>856.4</ele>
        <time>2015-11-03T12:04:39Z</time>
      </trkpt>
      <trkpt lat="45.71672" lon="6.30162">
        <ele>856.1</ele>
        <time>2015-11-03T12:04:41Z</time>
      </trkpt>
      <trkpt lat="45.71686" lon="6.30161">
        <ele>855.4</ele>
        <time>2015-11-03T12:04:43Z</time>
      </trkpt>
      <trkpt lat="45.71701" lon="6.30159">
        <ele>854.2</ele>
        <time>2015-11-03T12:04:45Z</time>
      </trkpt>
      <trkpt lat="45.71716" lon="6.30158">
        <ele>853.3</ele>
        <time>2015-11-03T12:04:47Z</time>
      </trkpt>
      <trkpt lat="45.71731" lon="6.30156">
        <ele>852.9</ele>
        <time>2015-11-03T12:04:49Z</time>
      </trkpt>
      <trkpt lat="45.71745" lon="6.30148">
        <ele>852.5</ele>
        <time>2015-11-03T12:04:51Z</time>
      </trkpt>
      <trkpt lat="45.71756" lon="6.3013">
        <ele>851.7</ele>
        <time>2015-11-03T12:04:53Z</time>
      </trkpt>
      <trkpt lat="45.71764" lon="6.30107">
        <ele>851.1</ele>
        <time>2015-11-03T12:04:55Z</time>
      </trkpt>
      <trkpt lat="45.71768" lon="6.30094">
        <ele>850.1</ele>
        <time>2015-11-03T12:04:56Z</time>
      </trkpt>
      <trkpt lat="45.7177" lon="6.3008">
        <ele>849.3</ele>
        <time>2015-11-03T12:04:57Z</time>
      </trkpt>
      <trkpt lat="45.71774" lon="6.30052">
        <ele>847.9</ele>
        <time>2015-11-03T12:04:59Z</time>
      </trkpt>
      <trkpt lat="45.71774" lon="6.30038">
        <ele>847.5</ele>
        <time>2015-11-03T12:05:00Z</time>
      </trkpt>
      <trkpt lat="45.71775" lon="6.30023">
        <ele>846.7</ele>
        <time>2015-11-03T12:05:01Z</time>
      </trkpt>
      <trkpt lat="45.71776" lon="6.30008">
        <ele>846.1</ele>
        <time>2015-11-03T12:05:02Z</time>
      </trkpt>
      <trkpt lat="45.71778" lon="6.29993">
        <ele>845.1</ele>
        <time>2015-11-03T12:05:03Z</time>
      </trkpt>
      <trkpt lat="45.71781" lon="6.29979">
        <ele>844.3</ele>
        <time>2015-11-03T12:05:04Z</time>
      </trkpt>
      <trkpt lat="45.71785" lon="6.29965">
        <ele>843.1</ele>
        <time>2015-11-03T12:05:05Z</time>
      </trkpt>
      <trkpt lat="45.71791" lon="6.29953">
        <ele>842.2</ele>
        <time>2015-11-03T12:05:06Z</time>
      </trkpt>
      <trkpt lat="45.71799" lon="6.29942">
        <ele>841.5</ele>
        <time>2015-11-03T12:05:07Z</time>
      </trkpt>
      <trkpt lat="45.71808" lon="6.29934">
        <ele>840.4</ele>
        <time>2015-11-03T12:05:08Z</time>
      </trkpt>
      <trkpt lat="45.71819" lon="6.29929">
        <ele>839.6</ele>
        <time>2015-11-03T12:05:09Z</time>
      </trkpt>
      <trkpt lat="45.71829" lon="6.29924">
        <ele>838.2</ele>
        <time>2015-11-03T12:05:10Z</time>
      </trkpt>
      <trkpt lat="45.7184" lon="6.29918">
        <ele>837.1</ele>
        <time>2015-11-03T12:05:11Z</time>
      </trkpt>
      <trkpt lat="45.7185" lon="6.29913">
        <ele>835.8</ele>
        <time>2015-11-03T12:05:12Z</time>
      </trkpt>
      <trkpt lat="45.71861" lon="6.29907">
        <ele>834.9</ele>
        <time>2015-11-03T12:05:13Z</time>
      </trkpt>
      <trkpt lat="45.7187" lon="6.299">
        <ele>834.2</ele>
        <time>2015-11-03T12:05:14Z</time>
      </trkpt>
      <trkpt lat="45.7188" lon="6.29893">
        <ele>833.4</ele>
        <time>2015-11-03T12:05:15Z</time>
      </trkpt>
      <trkpt lat="45.71889" lon="6.29886">
        <ele>832.9</ele>
        <time>2015-11-03T12:05:16Z</time>
      </trkpt>
      <trkpt lat="45.71898" lon="6.29878">
        <ele>832.5</ele>
        <time>2015-11-03T12:05:17Z</time>
      </trkpt>
      <trkpt lat="45.71907" lon="6.29872">
        <ele>832.2</ele>
        <time>2015-11-03T12:05:18Z</time>
      </trkpt>
      <trkpt lat="45.71916" lon="6.29869">
        <ele>832</ele>
        <time>2015-11-03T12:05:19Z</time>
      </trkpt>
      <trkpt lat="45.71925" lon="6.2987">
        <ele>831.7</ele>
        <time>2015-11-03T12:05:20Z</time>
      </trkpt>
      <trkpt lat="45.71934" lon="6.29872">
        <ele>831.5</ele>
        <time>2015-11-03T12:05:21Z</time>
      </trkpt>
      <trkpt lat="45.71943" lon="6.29875">
        <ele>831.3</ele>
        <time>2015-11-03T12:05:22Z</time>
      </trkpt>
      <trkpt lat="45.7196" lon="6.29879">
        <ele>830.8</ele>
        <time>2015-11-03T12:05:24Z</time>
      </trkpt>
      <trkpt lat="45.71977" lon="6.29881">
        <ele>830.3</ele>
        <time>2015-11-03T12:05:26Z</time>
      </trkpt>
      <trkpt lat="45.71994" lon="6.29881">
        <ele>829.1</ele>
        <time>2015-11-03T12:05:28Z</time>
      </trkpt>
      <trkpt lat="45.72009" lon="6.29879">
        <ele>829.9</ele>
        <time>2015-11-03T12:05:30Z</time>
      </trkpt>
      <trkpt lat="45.72024" lon="6.29877">
        <ele>828.8</ele>
        <time>2015-11-03T12:05:32Z</time>
      </trkpt>
      <trkpt lat="45.72039" lon="6.29875">
        <ele>828.4</ele>
        <time>2015-11-03T12:05:34Z</time>
      </trkpt>
      <trkpt lat="45.72054" lon="6.29872">
        <ele>828.1</ele>
        <time>2015-11-03T12:05:36Z</time>
      </trkpt>
      <trkpt lat="45.72068" lon="6.29871">
        <ele>827.8</ele>
        <time>2015-11-03T12:05:38Z</time>
      </trkpt>
      <trkpt lat="45.72081" lon="6.29871">
        <ele>828.4</ele>
        <time>2015-11-03T12:05:40Z</time>
      </trkpt>
      <trkpt lat="45.72092" lon="6.29871">
        <ele>828</ele>
        <time>2015-11-03T12:05:42Z</time>
      </trkpt>
      <trkpt lat="45.72103" lon="6.29876">
        <ele>828.8</ele>
        <time>2015-11-03T12:05:44Z</time>
      </trkpt>
      <trkpt lat="45.72115" lon="6.29883">
        <ele>828.9</ele>
        <time>2015-11-03T12:05:46Z</time>
      </trkpt>
      <trkpt lat="45.72128" lon="6.2989">
        <ele>828.4</ele>
        <time>2015-11-03T12:05:48Z</time>
      </trkpt>
      <trkpt lat="45.72142" lon="6.299">
        <ele>827</ele>
        <time>2015-11-03T12:05:50Z</time>
      </trkpt>
      <trkpt lat="45.72155" lon="6.29915">
        <ele>825.5</ele>
        <time>2015-11-03T12:05:52Z</time>
      </trkpt>
      <trkpt lat="45.72169" lon="6.29931">
        <ele>824.4</ele>
        <time>2015-11-03T12:05:54Z</time>
      </trkpt>
      <trkpt lat="45.72176" lon="6.29938">
        <ele>823.5</ele>
        <time>2015-11-03T12:05:55Z</time>
      </trkpt>
      <trkpt lat="45.72185" lon="6.29944">
        <ele>822.8</ele>
        <time>2015-11-03T12:05:56Z</time>
      </trkpt>
      <trkpt lat="45.72201" lon="6.29951">
        <ele>822.1</ele>
        <time>2015-11-03T12:05:58Z</time>
      </trkpt>
      <trkpt lat="45.72234" lon="6.29958">
        <ele>820.9</ele>
        <time>2015-11-03T12:06:02Z</time>
      </trkpt>
      <trkpt lat="45.7225" lon="6.29957">
        <ele>820.3</ele>
        <time>2015-11-03T12:06:04Z</time>
      </trkpt>
      <trkpt lat="45.72266" lon="6.29954">
        <ele>819.8</ele>
        <time>2015-11-03T12:06:06Z</time>
      </trkpt>
      <trkpt lat="45.72282" lon="6.29951">
        <ele>819.5</ele>
        <time>2015-11-03T12:06:08Z</time>
      </trkpt>
      <trkpt lat="45.72298" lon="6.29948">
        <ele>818.7</ele>
        <time>2015-11-03T12:06:10Z</time>
      </trkpt>
      <trkpt lat="45.72313" lon="6.29944">
        <ele>818.3</ele>
        <time>2015-11-03T12:06:12Z</time>
      </trkpt>
      <trkpt lat="45.72329" lon="6.29942">
        <ele>818</ele>
        <time>2015-11-03T12:06:14Z</time>
      </trkpt>
      <trkpt lat="45.72344" lon="6.29939">
        <ele>817.7</ele>
        <time>2015-11-03T12:06:16Z</time>
      </trkpt>
      <trkpt lat="45.7236" lon="6.29937">
        <ele>816.9</ele>
        <time>2015-11-03T12:06:18Z</time>
      </trkpt>
      <trkpt lat="45.72375" lon="6.29934">
        <ele>816.6</ele>
        <time>2015-11-03T12:06:20Z</time>
      </trkpt>
      <trkpt lat="45.72391" lon="6.29931">
        <ele>816.4</ele>
        <time>2015-11-03T12:06:22Z</time>
      </trkpt>
      <trkpt lat="45.72407" lon="6.29929">
        <ele>815.9</ele>
        <time>2015-11-03T12:06:24Z</time>
      </trkpt>
      <trkpt lat="45.72423" lon="6.29926">
        <ele>815.5</ele>
        <time>2015-11-03T12:06:26Z</time>
      </trkpt>
      <trkpt lat="45.72438" lon="6.29925">
        <ele>815.5</ele>
        <time>2015-11-03T12:06:28Z</time>
      </trkpt>
      <trkpt lat="45.72454" lon="6.29925">
        <ele>815.7</ele>
        <time>2015-11-03T12:06:30Z</time>
      </trkpt>
      <trkpt lat="45.72468" lon="6.29924">
        <ele>815.8</ele>
        <time>2015-11-03T12:06:32Z</time>
      </trkpt>
      <trkpt lat="45.72482" lon="6.29925">
        <ele>815.9</ele>
        <time>2015-11-03T12:06:34Z</time>
      </trkpt>
      <trkpt lat="45.72496" lon="6.29925">
        <ele>815.8</ele>
        <time>2015-11-03T12:06:36Z</time>
      </trkpt>
      <trkpt lat="45.72509" lon="6.29925">
        <ele>816.2</ele>
        <time>2015-11-03T12:06:38Z</time>
      </trkpt>
      <trkpt lat="45.72521" lon="6.29925">
        <ele>816.2</ele>
        <time>2015-11-03T12:06:40Z</time>
      </trkpt>
      <trkpt lat="45.72534" lon="6.29926">
        <ele>815.8</ele>
        <time>2015-11-03T12:06:42Z</time>
      </trkpt>
      <trkpt lat="45.72546" lon="6.29927">
        <ele>815.9</ele>
        <time>2015-11-03T12:06:44Z</time>
      </trkpt>
      <trkpt lat="45.72558" lon="6.29929">
        <ele>816.4</ele>
        <time>2015-11-03T12:06:46Z</time>
      </trkpt>
      <trkpt lat="45.7257" lon="6.29933">
        <ele>816.7</ele>
        <time>2015-11-03T12:06:48Z</time>
      </trkpt>
      <trkpt lat="45.72581" lon="6.29941">
        <ele>816.6</ele>
        <time>2015-11-03T12:06:50Z</time>
      </trkpt>
      <trkpt lat="45.72592" lon="6.29949">
        <ele>816.1</ele>
        <time>2015-11-03T12:06:52Z</time>
      </trkpt>
      <trkpt lat="45.72603" lon="6.29954">
        <ele>815.6</ele>
        <time>2015-11-03T12:06:54Z</time>
      </trkpt>
    </trkseg>
  </trk>
</gpx>